Date StartTime U_cm/s V_cm/s W_cm/s Ustd_cm/s Vstd_cm/s Wstd_cm/s Uvar_(cm/s)^2 Vvar_(cm/s)^2 Wvar_(cm/s)^2 KE_(m/s)^2 TurbulentKE_(m/s)^2 HorizWindSpeed_cm/s FrictionSpeec_cm/s DragCoef SpeedOfSound_m/s SonicTemperature_C Pressure_mb 
10/13/2014  00:00:00      -52.687      -42.520       -7.338       20.090       19.552       16.088      403.598      382.298      258.810        0.284        0.052       67.705       11.438        0.029      338.041       10.425      866.291
10/13/2014  00:01:00      -61.888      -30.029       -3.899       20.931       20.654       15.126      438.109      426.579      228.789        0.292        0.055       68.789       12.773        0.034      338.032       10.409      866.282
10/13/2014  00:02:00      -65.771      -13.084       -2.667       28.486       17.788       15.172      811.441      316.399      230.186        0.293        0.068       67.059       15.165        0.051      337.988       10.335      866.289
10/13/2014  00:03:00      -81.869      -27.778      -13.095       17.890       16.685       11.179      320.052      278.401      124.971        0.418        0.036       86.453        6.642        0.006      337.998       10.350      866.284
10/13/2014  00:04:00      -87.779      -16.904      -17.037       17.238       13.966       11.346      297.161      195.059      128.731        0.445        0.031       89.392        5.308        0.004      337.951       10.272      866.283
10/13/2014  00:05:00      -80.138      -12.580       -7.223       25.167       15.496       12.344      633.401      240.123      152.385        0.383        0.051       81.120       12.886        0.025      337.968       10.300      866.282
10/13/2014  00:06:00      -88.831      -30.309      -14.953       11.880       16.067        9.217      141.143      258.154       84.958        0.476        0.024       93.859        3.225        0.001      337.989       10.338      866.282
10/13/2014  00:07:00     -106.839      -29.751      -19.667       12.086       10.709       12.316      146.076      114.673      151.674        0.655        0.021      110.904        7.793        0.005      337.957       10.282      866.279
10/13/2014  00:08:00     -112.792      -40.284      -13.274       10.972       11.400        7.743      120.375      129.958       59.961        0.742        0.016      119.770        5.818        0.002      337.923       10.225      866.294
10/13/2014  00:09:00     -129.168      -27.960      -18.299       13.622       13.174        9.663      185.552      173.564       93.373        0.913        0.023      132.159        4.980        0.001      337.856       10.112      866.287
10/13/2014  00:10:00     -138.932      -15.425      -24.017       12.850       12.315        9.623      165.116      151.653       92.600        1.026        0.020      139.785        6.729        0.002      337.836       10.078      866.278
10/13/2014  00:11:00     -114.519       -5.706      -19.327       13.314       10.997       10.134      177.273      120.929      102.699        0.696        0.020      114.661        5.442        0.002      337.759        9.951      866.283
10/13/2014  00:12:00      -59.811      -43.009       -7.317       25.713       20.350       14.909      661.170      414.133      222.278        0.339        0.065       73.669       13.599        0.034      337.838       10.081      866.285
10/13/2014  00:13:00      -91.307      -44.661      -16.178       20.174       17.468       12.983      406.974      305.144      168.546        0.574        0.044      101.644        8.734        0.007      337.798       10.015      866.277
10/13/2014  00:14:00     -112.614      -38.901      -16.588       15.437       16.652       11.067      238.288      277.286      122.476        0.755        0.032      119.144        9.206        0.006      337.826       10.063      866.266
10/13/2014  00:15:00     -104.071      -40.245      -13.402       21.371       16.876       13.294      456.702      284.800      176.729        0.677        0.046      111.581        9.676        0.008      337.842       10.089      866.248
10/13/2014  00:16:00     -110.665      -36.358       -9.871       21.553       16.198       11.383      464.541      262.376      129.571        0.726        0.043      116.485       12.471        0.011      337.871       10.138      866.234
10/13/2014  00:17:00      -83.745      -40.954       -3.453       27.949       22.480       13.142      781.174      505.341      172.704        0.508        0.073       93.223       15.320        0.027      337.925       10.228      866.229
10/13/2014  00:18:00      -92.195      -57.891       -5.303       34.904       28.491       19.897     1218.260      811.724      395.892        0.715        0.121      108.864       18.725        0.030      337.850       10.102      866.211
10/13/2014  00:19:00      -82.587      -47.117       -4.612       24.985       15.674       16.522      624.259      245.689      272.966        0.510        0.057       95.082       13.433        0.020      337.767        9.963      866.210
10/13/2014  00:20:00      -76.848      -40.551       -8.364       12.836       13.930        8.352      164.767      194.046       69.755        0.402        0.021       86.891        5.815        0.004      337.793       10.009      866.209
10/13/2014  00:21:00      -73.406      -38.938       -8.810       10.663        9.977        6.869      113.700       99.539       47.180        0.362        0.013       83.094        2.955        0.001      337.933       10.243      866.197
10/13/2014  00:22:00      -59.514      -34.600       -6.775       18.239       13.098       11.952      332.659      171.556      142.850        0.272        0.032       68.841        5.925        0.007      337.934       10.243      866.196
10/13/2014  00:23:00      -89.047      -37.338       -6.422       11.209       11.268        8.233      125.646      126.957       67.777        0.484        0.016       96.559        3.475        0.001      337.898       10.184      866.203
10/13/2014  00:24:00      -91.584      -44.942       -8.435       10.145       10.409        9.102      102.925      108.352       82.846        0.539        0.015      102.017        6.112        0.004      337.785        9.994      866.202
10/13/2014  00:25:00      -86.875      -45.626      -12.613       19.042       14.646       12.413      362.614      214.495      154.086        0.526        0.037       98.127        6.337        0.004      337.778        9.981      866.219
10/13/2014  00:26:00      -89.346      -62.016       -9.153       34.922       27.355       18.023     1219.570      748.299      324.833        0.710        0.115      108.760       10.994        0.010      337.679        9.817      866.235
10/13/2014  00:27:00     -103.847      -62.917       -3.548       33.771       19.986       17.461     1140.510      399.432      304.897        0.830        0.092      121.420       12.405        0.010      337.604        9.690      866.227
10/13/2014  00:28:00     -125.186      -50.519       -6.079       12.223       16.190       12.373      149.396      262.103      153.102        0.941        0.028      134.995        6.028        0.002      337.603        9.689      866.223
10/13/2014  00:29:00     -110.999      -43.550      -12.460       15.201       14.158       12.864      231.072      200.455      165.472        0.748        0.030      119.237        4.117        0.001      337.593        9.673      866.226
10/13/2014  00:30:00      -99.209      -27.870       -9.737       21.834       18.718       16.244      476.704      350.351      263.857        0.590        0.055      103.049       13.750        0.018      337.588        9.663      866.212
10/13/2014  00:31:00      -92.568      -30.342       -4.396       22.989       16.491       12.788      528.473      271.938      163.522        0.524        0.048       97.414       11.680        0.014      337.588        9.663      866.218
10/13/2014  00:32:00      -95.540      -35.371       -5.499       17.474       15.656       11.679      305.336      245.097      136.404        0.555        0.034      101.877        9.095        0.008      337.560        9.616      866.224
10/13/2014  00:33:00     -100.863      -32.229       -8.370       21.621       19.979       15.052      467.479      399.146      226.575        0.619        0.055      105.887       14.025        0.018      337.546        9.592      866.222
10/13/2014  00:34:00     -113.483      -37.856       -6.564       22.082       15.768       12.341      487.598      248.621      152.289        0.762        0.044      119.631       11.995        0.010      337.535        9.574      866.222
10/13/2014  00:35:00      -52.076      -34.151        1.807       47.264       30.228       21.636     2233.845      913.708      468.110        0.375        0.181       62.275       19.692        0.100      337.501        9.518      866.227
10/13/2014  00:36:00      -87.264      -68.370       -3.146       47.410       29.589       26.142     2247.685      875.482      683.425        0.805        0.190      110.857       23.420        0.045      337.470        9.465      866.224
10/13/2014  00:37:00     -125.686      -77.645       -7.953       28.272       22.416       14.922      799.313      502.473      222.660        1.171        0.076      147.735       11.050        0.006      337.461        9.451      866.213
10/13/2014  00:38:00     -137.107      -63.283       -6.769       16.788       18.608       13.327      281.838      346.276      177.606        1.183        0.040      151.007        7.830        0.003      337.451        9.434      866.207
10/13/2014  00:39:00     -128.902      -72.377       -5.791       34.796       21.103       18.773     1210.748      445.321      352.441        1.195        0.100      147.831       16.484        0.012      337.424        9.388      866.204
10/13/2014  00:40:00      -97.311      -64.684       -5.917       38.928       28.249       18.833     1515.395      798.004      354.680        0.818        0.133      116.848       15.448        0.017      337.472        9.468      866.204
10/13/2014  00:41:00      -55.106      -49.257        3.315       33.325       32.982       18.023     1110.524     1087.808      324.845        0.400        0.126       73.911       18.449        0.062      337.450        9.433      866.213
10/13/2014  00:42:00      -89.748      -62.146       -3.263       35.458       28.473       19.882     1257.270      810.700      395.296        0.719        0.123      109.164       17.361        0.025      337.442        9.418      866.219
10/13/2014  00:43:00      -80.571      -61.158        1.022       41.635       33.008       22.164     1733.434     1089.555      491.252        0.677        0.166      101.153       19.366        0.037      337.444        9.422      866.204
10/13/2014  00:44:00      -78.929      -58.694       -2.291       42.230       16.764       19.004     1783.363      281.039      361.164        0.605        0.121       98.360       17.159        0.030      337.394        9.339      866.196
10/13/2014  00:45:00      -95.330      -64.635       -6.760       22.279       18.892       16.516      496.347      356.903      272.794        0.722        0.056      115.176       10.210        0.008      337.452        9.435      866.186
10/13/2014  00:46:00      -97.633      -43.990       -5.305       22.682       15.990       16.581      514.458      255.684      274.926        0.627        0.052      107.086        9.881        0.009      337.473        9.471      866.165
10/13/2014  00:47:00     -105.370      -43.234      -12.104       17.942       17.193       12.300      321.907      295.606      151.283        0.694        0.038      113.895        8.077        0.005      337.419        9.378      866.156
10/13/2014  00:48:00     -103.726      -30.542      -10.843       22.253       24.095       15.568      495.199      580.590      242.367        0.656        0.066      108.129       13.097        0.015      337.357        9.276      866.165
10/13/2014  00:49:00     -105.814      -28.545       -8.789       16.645       15.060       11.875      277.057      226.816      141.027        0.637        0.032      109.597        7.688        0.005      337.370        9.298      866.163
10/13/2014  00:50:00      -94.938      -34.643       -7.308       28.448       22.644       11.390      809.299      512.757      129.722        0.586        0.073      101.061       12.587        0.016      337.385        9.324      866.164
10/13/2014  00:51:00     -101.462      -39.217      -10.398       23.436       16.068       12.321      549.231      258.172      151.809        0.645        0.048      108.777       10.408        0.009      337.315        9.207      866.182
10/13/2014  00:52:00     -113.611      -43.265       -8.509       21.748       17.985       15.016      472.989      323.444      225.475        0.794        0.051      121.570       13.582        0.012      337.328        9.226      866.184
10/13/2014  00:53:00      -98.441      -40.481       -3.021       24.525       22.926       15.020      601.476      525.580      225.591        0.635        0.068      106.440       15.600        0.021      337.316        9.210      866.186
10/13/2014  00:54:00      -83.255      -43.859        0.389       25.820       20.178       17.222      666.696      407.158      296.585        0.511        0.069       94.101       11.337        0.015      337.341        9.249      866.190
10/13/2014  00:55:00      -74.085      -47.760       -4.968       30.015       24.944       15.374      900.898      622.198      236.370        0.478        0.088       88.145       14.417        0.027      337.361        9.282      866.181
10/13/2014  00:56:00      -95.347      -51.929       -4.441       27.086       18.359       16.138      733.644      337.058      260.422        0.657        0.067      108.571       11.819        0.012      337.337        9.242      866.174
10/13/2014  00:57:00     -108.050      -63.903       -3.049       18.813       16.906       16.287      353.934      285.827      265.281        0.834        0.045      125.533        8.692        0.005      337.310        9.198      866.182
10/13/2014  00:58:00      -77.385      -52.126       -0.437       36.137       23.237       17.475     1305.868      539.974      305.386        0.543        0.108       93.304       13.739        0.022      337.250        9.098      866.175
10/13/2014  00:59:00      -78.578      -44.329        1.290       42.398       22.598       20.118     1797.550      510.689      404.745        0.543        0.136       90.219       19.639        0.047      337.293        9.168      866.168
10/13/2014  01:00:00     -143.837      -29.820       -5.810       31.456       32.422       16.559      989.462     1051.184      274.206        1.196        0.116      146.895       15.072        0.011      337.276        9.140      866.169
10/13/2014  01:01:00     -147.657      -42.507      -11.851       24.564       25.483       16.796      603.397      649.375      282.121        1.264        0.077      153.653        9.028        0.003      337.250        9.098      866.150
10/13/2014  01:02:00     -155.201      -54.615       -8.470       27.424       34.560       19.793      752.077     1194.383      391.778        1.474        0.117      164.531       14.169        0.007      337.224        9.053      866.140
10/13/2014  01:03:00      -58.183      -16.744        0.491       47.554       34.194       18.010     2261.346     1169.252      324.344        0.371        0.188       60.544        7.970        0.017      337.255        9.106      866.144
10/13/2014  01:04:00      -49.364      -30.444       -1.268       28.137       24.473       15.711      791.677      598.920      246.832        0.250        0.082       57.996        7.711        0.018      337.306        9.191      866.167
10/13/2014  01:05:00      -57.084      -20.783        2.910       30.527       26.100       18.931      931.881      681.199      358.400        0.283        0.099       60.750       16.022        0.070      337.286        9.158      866.177
10/13/2014  01:06:00      -47.783      -17.778       -2.120       30.718       18.897       17.446      943.583      357.094      304.365        0.210        0.080       50.983       16.931        0.110      337.286        9.159      866.189
10/13/2014  01:07:00      -59.374      -17.785       -7.110       23.514       20.947       13.321      552.926      438.769      177.460        0.253        0.058       61.981       10.850        0.031      337.307        9.193      866.211
10/13/2014  01:08:00      -81.139        4.646      -17.563       26.672       22.537       16.648      711.405      507.935      277.157        0.420        0.075       81.272       13.554        0.028      337.273        9.135      866.221
10/13/2014  01:09:00      -85.358      -12.060      -10.047       30.440       32.932       15.974      926.621     1084.529      255.158        0.490        0.113       86.206       11.083        0.017      337.298        9.178      866.223
10/13/2014  01:10:00      -64.924      -17.157       -5.153       25.430       21.905       14.322      646.692      479.808      205.130        0.293        0.067       67.153       11.435        0.029      337.301        9.182      866.239
10/13/2014  01:11:00      -92.460      -45.365      -10.519       29.069       38.269       18.251      845.004     1464.531      333.102        0.668        0.132      102.990        6.953        0.005      337.331        9.231      866.253
10/13/2014  01:12:00      -74.072      -60.671       -3.007       26.859       33.080       18.247      721.399     1094.256      332.959        0.566        0.107       95.748       12.273        0.016      337.291        9.165      866.248
10/13/2014  01:13:00        0.955      -16.451       13.581       24.148       22.896       21.274      583.145      524.222      452.574        0.101        0.078       16.479       15.440        0.878      337.189        8.994      866.239
10/13/2014  01:14:00      -28.033      -23.064        2.639       32.879       19.494       20.622     1080.999      379.997      425.262        0.161        0.094       36.302       20.918        0.332      337.245        9.090      866.243
10/13/2014  01:15:00      -35.055      -42.702        5.964       36.467       26.521       18.793     1329.815      703.387      353.194        0.274        0.119       55.248       20.619        0.139      337.242        9.084      866.233
10/13/2014  01:16:00      -23.114      -28.622       12.351       23.329       20.192       18.043      544.265      407.716      325.549        0.139        0.064       36.789       15.743        0.183      337.271        9.133      866.232
10/13/2014  01:17:00      -70.378      -13.510       -8.675       47.255       20.310       18.432     2233.079      412.499      339.739        0.410        0.149       71.663       23.235        0.105      337.271        9.133      866.223
10/13/2014  01:18:00      -72.749      -30.271      -14.741       22.153       21.359       17.493      490.744      456.224      306.020        0.384        0.063       78.796        7.065        0.008      337.356        9.274      866.230
10/13/2014  01:19:00      -17.266      -19.477       -0.569       20.746       24.745       19.475      430.387      612.294      379.273        0.105        0.071       26.028       16.793        0.416      337.329        9.231      866.225
10/13/2014  01:20:00      -35.615      -10.822        0.954       21.229       13.920       15.574      450.689      193.770      242.538        0.114        0.044       37.222       11.189        0.090      337.365        9.290      866.207
10/13/2014  01:21:00      -98.023      -23.949      -14.219       18.742       26.905       13.788      351.268      723.896      190.099        0.582        0.063      100.906       11.071        0.012      337.386        9.324      866.183
10/13/2014  01:22:00      -81.899      -39.981       -7.018       17.497       16.416       12.976      306.135      269.493      168.365        0.455        0.037       91.137        6.154        0.005      337.417        9.377      866.170
10/13/2014  01:23:00      -77.032      -44.260       -9.960       17.665       21.477       12.555      312.067      461.253      157.627        0.446        0.047       88.842        5.286        0.004      337.434        9.405      866.147
10/13/2014  01:24:00      -60.635      -44.749      -12.350       14.730       21.149       12.292      216.983      447.282      151.105        0.332        0.041       75.360        4.748        0.004      337.378        9.311      866.132
10/13/2014  01:25:00      -84.433      -38.144      -15.257       21.309       16.708       11.892      454.081      279.169      141.424        0.485        0.044       92.650        4.619        0.002      337.392        9.336      866.127
10/13/2014  01:26:00      -96.127      -24.337      -17.136        9.749       11.433       10.788       95.036      130.709      116.390        0.523        0.017       99.160        4.380        0.002      337.339        9.245      866.132
10/13/2014  01:27:00      -88.049      -25.547      -19.418       13.225       13.944       11.169      174.892      194.424      124.753        0.464        0.025       91.681        6.777        0.005      337.405        9.357      866.119
10/13/2014  01:28:00      -90.612      -32.137      -11.874       11.723       14.906       13.124      137.434      222.174      172.241        0.496        0.027       96.142        7.638        0.006      337.406        9.359      866.109
10/13/2014  01:29:00      -95.752      -25.064      -16.320       12.032       10.110       12.165      144.777      102.210      147.998        0.523        0.020       98.978        7.640        0.006      337.353        9.271      866.109
10/13/2014  01:30:00      -91.016      -36.024       -9.661       11.465       14.989       11.135      131.454      224.679      123.978        0.508        0.024       97.886        8.841        0.008      337.430        9.398      866.118
10/13/2014  01:31:00     -103.946      -39.017       -8.612        9.457       11.551        8.099       89.437      133.434       65.601        0.634        0.014      111.028        3.037        0.001      337.522        9.552      866.130
10/13/2014  01:32:00      -81.164      -38.646       -3.421       23.148       17.984       13.955      535.841      323.412      194.749        0.457        0.053       89.895       12.198        0.018      337.442        9.418      866.133
10/13/2014  01:33:00      -81.837      -63.131       -1.243       43.537       18.380       18.018     1895.497      337.842      324.652        0.662        0.128      103.357       18.622        0.032      337.347        9.259      866.133
10/13/2014  01:34:00      -43.487      -50.987        1.835       35.658       26.050       18.318     1271.512      678.600      335.542        0.339        0.114       67.013       14.302        0.046      337.257        9.110      866.132
10/13/2014  01:35:00      -71.008      -63.496        3.417       35.609       27.869       21.641     1267.970      776.659      468.325        0.580        0.126       95.257       21.987        0.053      337.263        9.120      866.135
10/13/2014  01:36:00      -74.687      -56.425       -4.177       42.111       28.166       17.568     1773.314      793.349      308.620        0.583        0.144       93.606       14.872        0.025      337.294        9.170      866.150
10/13/2014  01:37:00      -73.979      -57.850       -2.479       39.007       28.150       23.276     1521.523      792.434      541.751        0.584        0.143       93.912       17.195        0.034      337.290        9.163      866.147
10/13/2014  01:38:00      -97.939      -57.733       -0.432       30.828       41.091       23.947      950.358     1688.484      573.453        0.807        0.161      113.689        9.120        0.006      337.201        9.017      866.137
10/13/2014  01:39:00      -95.261      -79.719       -0.308       36.307       29.555       17.175     1318.213      873.524      294.976        0.896        0.124      124.217       15.489        0.016      337.136        8.907      866.130
10/13/2014  01:40:00      -89.945      -72.743       -3.107       33.714       45.266       25.369     1136.646     2049.047      643.595        0.861        0.191      115.679       23.910        0.043      337.097        8.840      866.136
10/13/2014  01:41:00     -113.877      -46.613        0.962       48.750       39.679       29.742     2376.552     1574.460      884.570        0.999        0.242      123.048       17.890        0.021      337.056        8.771      866.119
10/13/2014  01:42:00     -114.019      -63.531        2.149       51.951       47.119       27.123     2698.913     2220.198      735.660        1.135        0.283      130.524       27.149        0.043      336.952        8.598      866.112
10/13/2014  01:43:00     -132.533      -70.209       -2.484       31.019       26.981       21.944      962.185      727.974      481.531        1.234        0.109      149.981       18.547        0.015      337.010        8.695      866.114
10/13/2014  01:44:00     -104.190      -68.646       -4.391       46.967       27.453       25.478     2205.861      753.676      649.113        0.960        0.180      124.771       25.297        0.041      337.001        8.681      866.126
10/13/2014  01:45:00     -106.656      -69.299       -9.697       32.137       27.397       18.311     1032.788      750.573      335.292        0.919        0.106      127.193       14.633        0.013      336.986        8.655      866.151
10/13/2014  01:46:00     -105.908      -67.724       -8.933       33.969       24.281       19.008     1153.882      589.574      361.316        0.899        0.105      125.710       17.723        0.020      337.017        8.708      866.155
10/13/2014  01:47:00     -108.995      -79.479       -7.193       28.319       25.709       17.046      801.952      660.966      290.572        1.000        0.088      134.896       10.910        0.007      336.982        8.647      866.152
10/13/2014  01:48:00      -79.645      -67.267       -5.774       46.050       30.062       18.222     2120.647      903.715      332.057        0.713        0.168      104.250       17.782        0.029      336.970        8.628      866.156
10/13/2014  01:49:00      -95.960      -41.270       -5.715       25.199       25.935       15.210      635.000      672.617      231.355        0.624        0.077      104.459       13.004        0.015      337.015        8.704      866.170
10/13/2014  01:50:00      -91.675      -33.944       -5.169       27.807       22.457       14.996      773.249      504.299      224.891        0.554        0.075       97.758       10.081        0.011      337.055        8.770      866.171
10/13/2014  01:51:00      -73.981      -49.800       -5.420       32.999       15.322       16.616     1088.957      234.758      276.095        0.479        0.080       89.181       14.676        0.027      337.078        8.809      866.156
10/13/2014  01:52:00      -46.150      -48.643       -3.743       26.272       23.657       15.724      690.215      559.670      247.243        0.300        0.075       67.052       12.542        0.035      337.052        8.765      866.152
10/13/2014  01:53:00      -43.730      -32.881       -0.843       39.962       22.390       18.309     1596.959      501.305      335.207        0.271        0.122       54.713       18.071        0.109      337.002        8.680      866.144
10/13/2014  01:54:00      -86.270      -46.318      -10.093       14.839       13.365        9.817      220.185      178.635       96.372        0.509        0.025       97.917        7.567        0.006      336.970        8.627      866.130
10/13/2014  01:55:00      -84.169      -29.239       -8.474       14.462       12.105       10.429      209.153      146.541      108.764        0.424        0.023       89.103        6.050        0.005      337.049        8.759      866.124
10/13/2014  01:56:00      -94.520      -53.705       -9.301       14.622       16.073       12.139      213.793      258.327      147.366        0.626        0.031      108.712        7.429        0.005      337.000        8.678      866.143
10/13/2014  01:57:00      -77.374      -51.865       -9.110       21.724       17.439       14.299      471.913      304.135      204.457        0.487        0.049       93.149       10.338        0.012      336.984        8.651      866.153
10/13/2014  01:58:00      -87.363      -41.445      -12.604       28.562       21.989       14.811      815.791      483.521      219.376        0.551        0.076       96.696       16.035        0.027      336.944        8.585      866.154
10/13/2014  01:59:00      -80.585      -41.528       -6.501       25.052       23.736       17.695      627.580      563.406      313.102        0.488        0.075       90.656       11.121        0.015      336.925        8.552      866.157
10/13/2014  02:00:00      -57.981      -46.200      -10.635       29.901       22.479       16.039      894.041      505.317      257.246        0.363        0.083       74.136       11.364        0.023      336.926        8.555      866.166
10/13/2014  02:01:00      -49.851      -38.524        1.405       29.742       21.667       19.601      884.567      469.465      384.198        0.285        0.087       63.002       17.905        0.081      337.021        8.713      866.164
10/13/2014  02:02:00      -89.251      -50.713      -14.426       20.371       23.143       15.823      414.960      535.587      250.362        0.597        0.060      102.652        7.203        0.005      337.031        8.730      866.156
10/13/2014  02:03:00      -54.325      -48.748       -7.998       28.036       21.737       22.702      786.006      472.515      515.371        0.358        0.089       72.990       17.628        0.058      337.019        8.711      866.149
10/13/2014  02:04:00      -20.928      -21.254        7.409       21.782       26.951       15.626      474.441      726.348      244.162        0.119        0.072       29.828       12.425        0.174      337.008        8.693      866.157
10/13/2014  02:05:00      -22.924       -7.246        7.110       27.783       17.400       17.800      771.909      302.771      316.849        0.101        0.070       24.042       19.552        0.661      336.962        8.615      866.154
10/13/2014  02:06:00      -61.327      -24.672       -8.686       29.223       18.254       14.777      853.971      333.212      218.352        0.293        0.070       66.104       12.552        0.036      337.024        8.719      866.159
10/13/2014  02:07:00      -63.558      -37.653       -7.898       33.599       27.602       16.007     1128.916      761.885      256.231        0.383        0.107       73.874       17.886        0.059      337.092        8.833      866.160
10/13/2014  02:08:00      -67.976      -55.464       -1.414       33.397       26.692       18.041     1115.326      712.437      325.460        0.493        0.108       87.732       17.776        0.041      337.057        8.773      866.161
10/13/2014  02:09:00      -58.262      -60.548       -4.005       32.544       27.576       23.715     1059.099      760.420      562.395        0.473        0.119       84.027       21.723        0.067      337.086        8.822      866.155
10/13/2014  02:10:00      -67.498      -23.649       -4.771       31.855       23.141       21.062     1014.722      535.497      443.614        0.357        0.100       71.521       11.823        0.027      337.113        8.867      866.150
10/13/2014  02:11:00      -68.460      -27.475      -15.955       36.247       18.028       17.840     1313.838      324.999      318.266        0.383        0.098       73.767       14.531        0.039      337.160        8.946      866.152
10/13/2014  02:12:00      -52.526       -8.640        0.611       24.919       22.714       13.573      620.968      515.914      184.216        0.208        0.066       53.232        6.653        0.016      337.123        8.884      866.159
10/13/2014  02:13:00      -64.285      -20.974       -3.522       17.768       21.228       13.508      315.709      450.616      182.478        0.277        0.047       67.620        9.879        0.021      337.081        8.812      866.153
10/13/2014  02:14:00      -67.999      -21.758      -14.589       18.176       20.429       11.161      330.370      417.357      124.564        0.309        0.044       71.396        6.091        0.007      337.167        8.961      866.157
10/13/2014  02:15:00      -55.694      -25.709      -14.117       30.739       17.106       14.979      944.893      292.603      224.375        0.271        0.073       61.342       10.520        0.029      337.216        9.043      866.153
10/13/2014  02:16:00      -38.039       -9.965        0.856       30.611       21.603       15.116      937.014      466.682      228.494        0.159        0.082       39.322       13.622        0.120      337.136        8.905      866.160
10/13/2014  02:17:00      -70.446      -61.873      -11.038       28.538       23.030       16.141      814.407      530.400      260.530        0.526        0.080       93.760        8.013        0.007      337.219        9.046      866.167
10/13/2014  02:18:00      -70.807      -35.480      -13.317       26.176       26.408       17.694      685.180      697.376      313.072        0.407        0.085       79.199        8.591        0.012      337.165        8.956      866.160
10/13/2014  02:19:00      -11.626      -17.968       13.636       32.025       20.173       19.094     1025.601      406.935      364.573        0.122        0.090       21.401       16.755        0.613      337.077        8.808      866.167
10/13/2014  02:20:00      -24.907      -45.870        1.751       44.873       30.318       23.126     2013.588      919.194      534.835        0.310        0.173       52.196       24.496        0.220      337.022        8.714      866.188
10/13/2014  02:21:00      -24.458      -60.041        8.447       35.500       41.333       22.259     1260.278     1708.455      495.460        0.387        0.173       64.832       25.075        0.150      337.082        8.816      866.213
10/13/2014  02:22:00      -73.917      -58.798       -0.419       41.027       30.047       20.803     1683.225      902.841      432.745        0.597        0.151       94.451       24.659        0.068      337.119        8.878      866.221
10/13/2014  02:23:00      -97.938      -55.512       -2.377       20.499       31.067       17.155      420.217      965.168      294.293        0.718        0.084      112.576        9.868        0.008      337.035        8.738      866.218
10/13/2014  02:24:00      -97.465      -63.154       -1.283       38.937       35.406       25.749     1516.057     1253.588      663.025        0.846        0.172      116.137       22.904        0.039      336.927        8.556      866.220
10/13/2014  02:25:00      -92.276      -65.966        2.692       40.995       35.311       25.423     1680.624     1246.857      646.343        0.822        0.179      113.430       20.624        0.033      336.815        8.368      866.220
10/13/2014  02:26:00      -72.277      -44.296        9.365       42.672       39.065       23.771     1820.899     1526.090      565.044        0.559        0.196       84.771       23.075        0.074      336.807        8.357      866.224
10/13/2014  02:27:00     -112.404      -58.286      -10.694       36.993       31.568       18.587     1368.458      996.518      345.480        0.943        0.136      126.617       16.213        0.016      336.817        8.375      866.233
10/13/2014  02:28:00     -120.019      -63.588      -10.454       37.545       35.502       25.101     1409.619     1260.407      630.068        1.093        0.165      135.824       23.012        0.029      336.818        8.374      866.242
10/13/2014  02:29:00      -56.430      -39.656        3.154       46.562       35.583       21.596     2167.976     1266.176      466.379        0.433        0.195       68.971       21.833        0.100      336.842        8.415      866.248
10/13/2014  02:30:00      -63.652      -90.709       -1.398       28.215       30.298       17.295      796.060      917.943      299.102        0.715        0.101      110.814        5.810        0.003      336.800        8.346      866.246
10/13/2014  02:31:00      -64.182      -60.048        4.766       27.276       38.735       21.494      743.977     1500.418      461.994        0.523        0.135       87.892       23.811        0.073      336.766        8.289      866.247
10/13/2014  02:32:00      -97.345      -68.630       -2.133       36.181       33.625       23.951     1309.101     1130.659      573.650        0.860        0.151      119.106       19.842        0.028      336.828        8.392      866.251
10/13/2014  02:33:00     -112.722      -64.591       -1.179       31.137       39.617       19.375      969.531     1569.543      375.402        0.990        0.146      129.916        8.668        0.004      336.854        8.436      866.240
10/13/2014  02:34:00     -102.371      -71.362       -8.506       32.277       25.775       19.410     1041.809      664.347      376.748        0.886        0.104      124.789       13.750        0.012      336.814        8.369      866.235
10/13/2014  02:35:00     -104.037      -74.595      -11.609       33.694       40.940       26.768     1135.286     1676.051      716.511        1.002        0.176      128.016       17.494        0.019      336.822        8.380      866.234
10/13/2014  02:36:00      -97.909      -68.693       -0.200       28.894       29.955       20.824      834.889      897.310      433.643        0.824        0.108      119.603       17.464        0.021      336.831        8.397      866.246
10/13/2014  02:37:00     -147.480      -72.088       -4.037       34.818       20.241       19.411     1212.328      409.686      376.801        1.448        0.100      164.155       16.108        0.010      336.820        8.379      866.256
10/13/2014  02:38:00     -105.089      -66.824       -0.074       42.646       21.491       21.255     1818.664      461.856      451.774        0.912        0.137      124.536       21.032        0.029      336.768        8.293      866.250
10/13/2014  02:39:00     -112.284      -51.414      -12.870       23.829       18.494       11.724      567.807      342.045      137.457        0.823        0.052      123.495        7.002        0.003      336.786        8.323      866.241
10/13/2014  02:40:00      -84.778      -42.445       -5.178       23.157       21.866       13.674      536.252      478.104      186.968        0.511        0.060       94.810        9.572        0.010      336.803        8.350      866.236
10/13/2014  02:41:00      -89.659      -43.099       -5.262       31.486       26.254       16.514      991.354      689.268      272.724        0.594        0.098       99.480       10.999        0.012      336.724        8.220      866.237
10/13/2014  02:42:00      -95.621      -26.749       -8.803       34.650       21.434       17.371     1200.641      459.397      301.768        0.595        0.098       99.292       20.572        0.043      336.712        8.199      866.239
10/13/2014  02:43:00     -110.419      -65.043       -6.397       22.068       21.810       13.878      487.001      475.696      192.604        0.881        0.058      128.152       10.926        0.007      336.717        8.207      866.228
10/13/2014  02:44:00      -89.417      -56.891       -5.498       23.322       27.155       20.698      543.903      737.404      428.421        0.649        0.085      105.981       17.506        0.027      336.652        8.098      866.224
10/13/2014  02:45:00      -67.202      -52.132       -9.920       29.214       19.141       13.155      853.465      366.387      173.048        0.436        0.070       85.052        8.845        0.011      336.606        8.023      866.224
10/13/2014  02:46:00      -92.780      -58.895      -11.863       20.813       17.638       16.799      433.184      311.098      282.197        0.662        0.051      109.894       10.478        0.009      336.609        8.026      866.227
10/13/2014  02:47:00      -74.389      -44.819       -6.179       29.029       19.684       15.853      842.664      387.451      251.307        0.453        0.074       86.848       12.495        0.021      336.646        8.088      866.214
10/13/2014  02:48:00      -57.692      -23.331       -5.886       35.531       19.736       14.122     1262.480      389.528      199.429        0.288        0.093       62.231       15.638        0.063      336.634        8.069      866.192
10/13/2014  02:49:00      -77.516      -42.231       -4.618       30.235       20.630       16.206      914.150      425.606      262.628        0.471        0.080       88.274       15.311        0.030      336.545        7.918      866.188
10/13/2014  02:50:00      -35.347      -40.962       -4.546       32.184       22.392       19.460     1035.788      501.420      378.683        0.243        0.096       54.104       18.589        0.118      336.637        8.074      866.190
10/13/2014  02:51:00      -24.453      -11.406        1.516       23.532       12.344       15.016      553.746      152.376      225.469        0.083        0.047       26.982       14.922        0.306      336.654        8.104      866.185
10/13/2014  02:52:00      -14.645        2.355       -5.381       22.093       11.465       12.118      488.092      131.441      146.856        0.051        0.038       14.834        9.821        0.438      336.683        8.153      866.184
10/13/2014  02:53:00      -40.067      -14.505        3.472       38.617       18.430       16.523     1491.305      339.655      273.019        0.197        0.105       42.612       16.570        0.151      336.660        8.111      866.188
10/13/2014  02:54:00      -50.721      -51.429      -11.735       26.414       22.734       20.125      697.691      516.833      405.032        0.349        0.081       72.233        9.998        0.019      336.652        8.098      866.200
10/13/2014  02:55:00      -96.730      -43.581      -14.650       22.238       23.251       11.917      494.543      540.601      142.022        0.632        0.059      106.094       11.170        0.011      336.616        8.039      866.206
10/13/2014  02:56:00      -67.016      -36.812       -5.271       29.677       26.413       16.933      880.744      697.630      286.717        0.387        0.093       76.461       10.534        0.019      336.660        8.111      866.212
10/13/2014  02:57:00      -83.370      -40.298       -6.475       22.054       15.471       13.803      486.362      239.336      190.512        0.477        0.046       92.598        6.440        0.005      336.735        8.237      866.228
10/13/2014  02:58:00      -60.477      -38.178       -3.683       26.480       16.114       14.129      701.196      259.648      199.625        0.314        0.058       71.520       11.038        0.024      336.706        8.189      866.236
10/13/2014  02:59:00      -59.417      -25.125       -4.945       16.746       16.269       18.723      280.421      264.669      350.564        0.254        0.045       64.511       13.231        0.042      336.662        8.117      866.234
10/13/2014  03:00:00      -69.899      -33.312       -9.837       11.806       10.591        8.846      139.371      112.174       78.260        0.321        0.016       77.431        4.670        0.004      336.700        8.179      866.223
10/13/2014  03:01:00      -56.234      -36.888       -5.879       11.952       12.065        9.026      142.860      145.559       81.476        0.246        0.018       67.253        6.514        0.009      336.756        8.273      866.219
10/13/2014  03:02:00      -47.546      -40.073       -6.475       13.568       13.886       10.980      184.086      192.810      120.561        0.220        0.025       62.180        4.035        0.004      336.815        8.371      866.222
10/13/2014  03:03:00      -52.093      -22.741      -12.107       10.886       14.902        9.082      118.515      222.079       82.484        0.190        0.021       56.840        6.926        0.015      336.735        8.238      866.233
10/13/2014  03:04:00      -47.362      -29.683       -5.483       16.621       15.039       12.693      276.258      226.176      161.105        0.191        0.033       55.895       10.011        0.032      336.842        8.414      866.236
10/13/2014  03:05:00      -30.039      -29.416       -1.847       22.891       12.547       10.994      523.984      157.439      120.859        0.129        0.040       42.043       12.405        0.087      336.833        8.400      866.229
10/13/2014  03:06:00      -16.449      -23.485       -2.008       16.110        8.100       12.424      259.517       65.618      154.358        0.065        0.024       28.673       11.370        0.157      336.915        8.535      866.219
10/13/2014  03:07:00       -8.686      -19.898       -0.480        8.847        6.236        6.856       78.275       38.882       46.999        0.032        0.008       21.711        3.728        0.029      337.046        8.758      866.219
10/13/2014  03:08:00      -26.591      -20.136      -10.379       17.795        8.722        9.165      316.660       76.068       84.004        0.085        0.024       33.355        9.494        0.081      337.152        8.932      866.207
10/13/2014  03:09:00      -58.072      -23.334       -6.343       10.616       11.274        9.215      112.700      127.100       84.921        0.214        0.016       62.585        4.960        0.006      336.962        8.614      866.195
10/13/2014  03:10:00      -60.136      -27.859       -9.720       19.653       14.114       13.672      386.242      199.216      186.930        0.263        0.039       66.276        4.765        0.005      336.840        8.413      866.188
10/13/2014  03:11:00      -71.201      -34.296      -12.783       16.265       17.556       10.580      264.542      308.204      111.927        0.355        0.034       79.031        8.419        0.011      336.771        8.298      866.198
10/13/2014  03:12:00      -81.130      -14.927      -12.844       13.903       13.655       10.055      193.303      186.470      101.110        0.373        0.024       82.491        7.435        0.008      336.695        8.169      866.196
10/13/2014  03:13:00      -86.775      -20.074      -12.805       12.846       11.765        7.205      165.030      138.404       51.907        0.423        0.018       89.066        4.380        0.002      336.712        8.200      866.191
10/13/2014  03:14:00      -65.419      -31.222       -5.083        9.778       14.064        9.111       95.619      197.793       83.012        0.283        0.019       72.488        6.954        0.009      336.735        8.237      866.179
10/13/2014  03:15:00      -64.194      -20.860       -7.661        9.147       10.161        7.784       83.676      103.249       60.593        0.243        0.012       67.498        4.555        0.005      336.698        8.174      866.174
10/13/2014  03:16:00      -58.516      -15.348      -10.339        5.993        7.158        6.503       35.913       51.239       42.295        0.195        0.006       60.496        2.290        0.001      336.721        8.214      866.173
10/13/2014  03:17:00      -62.017      -17.680       -7.140       11.330        9.744        9.254      128.376       94.943       85.636        0.226        0.015       64.488        6.888        0.011      336.743        8.249      866.171
10/13/2014  03:18:00      -77.929      -19.443      -11.051       12.702       12.746        9.340      161.334      162.473       87.231        0.349        0.021       80.318        4.692        0.003      336.709        8.193      866.160
10/13/2014  03:19:00      -85.811      -11.569       -3.809       18.475       12.583       10.886      341.334      158.341      118.501        0.406        0.031       86.588        9.909        0.013      336.712        8.200      866.149
10/13/2014  03:20:00      -91.871      -37.721      -15.914        9.371       13.205        7.584       87.809      174.381       57.513        0.522        0.016       99.314        5.652        0.003      336.579        7.976      866.141
10/13/2014  03:21:00      -52.549      -36.071       -7.326       22.610       12.327        9.928      511.232      151.951       98.563        0.244        0.038       63.738        6.732        0.011      336.634        8.068      866.133
10/13/2014  03:22:00       -0.562      -32.419       -4.326        9.380       15.056        8.952       87.987      226.674       80.145        0.073        0.020       32.424        6.128        0.036      336.683        8.151      866.131
10/13/2014  03:23:00      -10.765      -34.265        3.231       16.781       11.221       13.241      281.586      125.919      175.315        0.094        0.029       35.916        8.237        0.053      336.782        8.316      866.126
10/13/2014  03:24:00      -71.042      -33.316       -3.206       24.128       33.327       16.725      582.169     1110.679      279.727        0.407        0.099       78.466        5.611        0.005      336.755        8.271      866.124
10/13/2014  03:25:00      -78.490      -39.415       -3.935       44.340       35.032       20.575     1965.997     1227.253      423.328        0.567        0.181       87.831       14.989        0.029      336.680        8.145      866.126
10/13/2014  03:26:00     -113.056      -72.564       -9.295       28.868       44.119       19.801      833.337     1946.528      392.063        1.065        0.159      134.340       10.301        0.006      336.588        7.992      866.126
10/13/2014  03:27:00     -112.526      -70.922       -4.003       40.767       41.401       28.051     1661.965     1714.046      786.875        1.093        0.208      133.012       20.848        0.025      336.417        7.704      866.121
10/13/2014  03:28:00      -68.802      -37.906       -4.195       46.684       28.973       27.363     2179.365      839.420      748.758        0.498        0.188       78.553       20.026        0.065      336.405        7.684      866.126
10/13/2014  03:29:00      -82.613      -36.225       -3.802       50.721       32.701       27.210     2572.643     1069.382      740.408        0.627        0.219       90.206       23.045        0.065      336.370        7.626      866.123
10/13/2014  03:30:00      -21.431      -36.469       13.096       40.391       36.136       23.947     1631.421     1305.828      573.436        0.274        0.176       42.300       18.052        0.182      336.391        7.660      866.124
10/13/2014  03:31:00      -54.006      -46.209        4.901       58.060       35.193       25.396     3370.919     1238.545      644.961        0.516        0.263       71.077       22.805        0.103      336.349        7.591      866.116
10/13/2014  03:32:00      -73.782      -73.418        1.517       46.123       42.337       25.543     2127.337     1792.395      652.445        0.770        0.229      104.086       30.606        0.086      336.366        7.618      866.107
10/13/2014  03:33:00      -88.126      -64.618       -1.748       39.589       32.695       22.902     1567.290     1068.995      524.509        0.755        0.158      109.278       17.290        0.025      336.303        7.515      866.099
10/13/2014  03:34:00     -100.259      -77.370       -5.354       52.495       39.140       22.606     2755.710     1531.951      511.022        1.043        0.240      126.641       25.143        0.039      336.282        7.480      866.098
10/13/2014  03:35:00     -108.045      -92.909       -9.449       52.556       37.335       25.988     2762.133     1393.868      675.402        1.261        0.242      142.498       10.709        0.006      336.312        7.527      866.100
10/13/2014  03:36:00     -104.628     -101.823      -14.298       24.300       35.143       20.837      590.470     1235.031      434.180        1.189        0.113      145.996       15.264        0.011      336.337        7.571      866.103
10/13/2014  03:37:00      -90.539      -89.671       -9.571       22.467       21.775       16.619      504.752      474.131      276.208        0.879        0.063      127.429       15.304        0.014      336.288        7.489      866.113
10/13/2014  03:38:00      -78.702      -76.335       -5.130       34.259       40.905       18.688     1173.651     1673.256      349.223        0.762        0.160      109.640       21.373        0.038      336.269        7.457      866.116
10/13/2014  03:39:00      -72.389      -78.434       -8.451       32.751       26.712       21.257     1072.650      713.509      451.859        0.685        0.112      106.734       20.761        0.038      336.361        7.610      866.133
10/13/2014  03:40:00      -84.582      -46.812       -1.306       33.409       22.945       17.108     1116.194      526.485      292.695        0.564        0.097       96.673       17.934        0.034      336.414        7.700      866.139
10/13/2014  03:41:00      -49.975      -27.887        5.447       51.901       24.746       16.151     2693.752      612.374      260.847        0.344        0.178       57.229       20.214        0.125      336.325        7.550      866.137
10/13/2014  03:42:00      -22.037      -17.881        4.162       37.748       17.317       17.355     1424.927      299.890      301.200        0.142        0.101       28.379       21.706        0.585      336.340        7.576      866.133
10/13/2014  03:43:00      -71.460      -35.442       -9.425       14.955       12.475       10.713      223.667      155.633      114.769        0.347        0.025       79.767        5.518        0.005      336.301        7.512      866.129
10/13/2014  03:44:00      -66.210      -22.617       -4.235       25.775       13.153       12.846      664.368      172.997      165.027        0.296        0.050       69.966        8.858        0.016      336.331        7.562      866.137
10/13/2014  03:45:00      -44.445      -16.157       -4.192       23.466       18.322       10.683      550.663      335.687      114.122        0.163        0.050       47.290       10.615        0.050      336.310        7.527      866.146
10/13/2014  03:46:00      -75.945       -7.394      -11.963       15.498       14.826       11.373      240.198      219.819      129.352        0.328        0.029       76.304        8.467        0.012      336.284        7.483      866.150
10/13/2014  03:47:00      -73.816       -8.139       -7.721       11.043       11.313       13.679      121.938      127.980      187.115        0.301        0.022       74.264        7.267        0.010      336.282        7.479      866.146
10/13/2014  03:48:00      -77.290      -23.018       -7.170       14.475       16.124       12.489      209.529      259.984      155.966        0.359        0.031       80.645        7.330        0.008      336.320        7.542      866.135
10/13/2014  03:49:00      -92.692      -36.134       -9.646       10.684       13.773        8.699      114.154      189.685       75.675        0.518        0.019       99.486        3.283        0.001      336.260        7.440      866.133
10/13/2014  03:50:00      -91.422      -33.617       -2.892       27.033       19.792       17.291      730.776      391.739      298.983        0.546        0.071       97.407       16.115        0.027      336.332        7.562      866.131
10/13/2014  03:51:00      -94.808      -34.220       -9.672       12.882       12.127        8.123      165.950      147.066       65.982        0.532        0.019      100.795        5.084        0.003      336.291        7.494      866.135
10/13/2014  03:52:00      -76.279      -25.200       -7.808       18.320       18.048       14.215      335.611      325.725      202.079        0.369        0.043       80.333       12.045        0.022      336.283        7.480      866.135
10/13/2014  03:53:00      -89.996        0.180       -8.513       35.092       12.093       16.277     1231.430      146.237      264.936        0.491        0.082       89.996       18.674        0.043      336.121        7.209      866.140
10/13/2014  03:54:00      -91.768      -15.807       -8.911       22.881       19.422       17.441      523.546      377.211      304.195        0.498        0.060       93.119       16.175        0.030      336.104        7.182      866.152
10/13/2014  03:55:00      -71.751      -21.837       -3.270       24.957       23.161       16.631      622.853      536.416      276.601        0.354        0.072       75.000       13.270        0.031      336.055        7.100      866.164
10/13/2014  03:56:00     -103.656      -35.144       -7.789       22.777       14.373       14.206      518.772      206.593      201.798        0.648        0.046      109.452       13.275        0.015      336.078        7.138      866.165
10/13/2014  03:57:00      -84.841      -37.766        2.792       24.220       18.665       13.630      586.627      348.390      185.772        0.488        0.056       92.867       12.839        0.019      336.051        7.094      866.161
10/13/2014  03:58:00      -89.391      -42.527       -8.993       21.598       15.624       12.953      466.484      244.100      167.774        0.538        0.044       98.992        9.561        0.009      336.091        7.160      866.167
10/13/2014  03:59:00      -88.014      -39.526       -5.942       25.111       26.116       20.464      630.540      682.038      418.790        0.554        0.087       96.482       18.757        0.038      335.955        6.932      866.175
10/13/2014  04:00:00      -20.262      -29.146        9.015       41.054       30.376       17.192     1685.455      922.702      295.556        0.212        0.145       35.498       18.073        0.259      336.013        7.030      866.166
10/13/2014  04:01:00      -53.408      -36.376      -11.107       29.599       14.397       14.568      876.098      207.259      212.231        0.280        0.065       64.619       11.339        0.031      336.067        7.120      866.146
10/13/2014  04:02:00      -84.674      -35.869       -8.240       19.751       25.476       12.137      390.095      649.042      147.315        0.486        0.059       91.958        9.964        0.012      335.963        6.946      866.137
10/13/2014  04:03:00      -81.362      -33.501       -0.727       19.520       24.189       18.581      381.041      585.120      345.252        0.453        0.066       87.990        8.028        0.008      335.924        6.880      866.142
10/13/2014  04:04:00      -67.116      -37.876       -3.050       14.563       16.613       14.382      212.081      275.977      206.840        0.332        0.035       77.066        9.750        0.016      335.967        6.955      866.143
10/13/2014  04:05:00      -80.697      -26.689      -15.072       15.745       10.038       10.521      247.904      100.761      110.700        0.396        0.023       84.996        9.087        0.011      335.960        6.941      866.140
10/13/2014  04:06:00      -76.939      -28.849      -15.941       21.785       18.365       11.870      474.575      337.269      140.898        0.398        0.048       82.170       10.115        0.015      335.982        6.978      866.136
10/13/2014  04:07:00      -63.743      -49.287      -16.640       13.088       20.094       13.749      171.306      403.767      189.043        0.377        0.038       80.576        9.528        0.014      336.065        7.117      866.131
10/13/2014  04:08:00      -66.881      -23.330      -12.822       17.822       14.381       11.478      317.627      206.820      131.751        0.292        0.033       70.833        9.329        0.017      336.096        7.168      866.126
10/13/2014  04:09:00      -77.154      -23.835      -12.945       18.174       21.442       14.591      330.277      459.768      212.892        0.385        0.050       80.752        4.601        0.003      336.105        7.183      866.115
10/13/2014  04:10:00      -81.010      -36.778      -14.688       22.295       16.435       12.691      497.071      270.125      161.059        0.453        0.046       88.968        7.048        0.006      336.057        7.102      866.106
10/13/2014  04:11:00      -71.941      -37.959       -7.021       38.903       23.616       17.264     1513.450      557.694      298.045        0.452        0.118       81.341       18.254        0.050      336.052        7.094      866.113
10/13/2014  04:12:00      -42.089      -26.373       -9.331       28.367       18.902       17.088      804.707      357.284      291.992        0.200        0.073       49.669       15.248        0.094      336.019        7.039      866.116
10/13/2014  04:13:00      -51.391      -45.823       -5.336       25.268       21.282       17.399      638.468      452.914      302.737        0.308        0.070       68.853       11.748        0.029      335.998        7.004      866.117
10/13/2014  04:14:00      -76.222      -31.280      -15.184       19.464       17.484       14.602      378.835      305.673      213.222        0.396        0.045       82.391        8.447        0.011      336.077        7.135      866.110
10/13/2014  04:15:00      -69.858      -34.494      -11.749       22.387       28.320       15.366      501.157      802.021      236.103        0.387        0.077       77.910        7.752        0.010      336.056        7.101      866.110
10/13/2014  04:16:00      -69.232      -44.630      -17.997       32.408       25.759       13.971     1050.291      663.525      195.180        0.451        0.095       82.370       12.099        0.022      335.943        6.913      866.119
10/13/2014  04:17:00      -73.690      -41.618       -4.130       24.767       31.724       19.179      613.383     1006.407      367.851        0.458        0.099       84.630       12.865        0.023      335.987        6.985      866.114
10/13/2014  04:18:00      -44.508      -28.709       -6.194       40.386       36.512       22.214     1631.031     1333.118      493.446        0.315        0.173       52.964       25.536        0.232      335.937        6.903      866.109
10/13/2014  04:19:00      -13.879       -9.702       -4.273       24.256       20.164       18.877      588.341      406.576      356.335        0.083        0.068       16.934        6.246        0.136      335.936        6.901      866.109
10/13/2014  04:20:00      -12.723      -33.815       -1.285       19.021       16.032       18.861      361.808      257.025      355.755        0.114        0.049       36.129        9.646        0.071      335.912        6.862      866.111
10/13/2014  04:21:00      -91.292      -57.299      -12.626       33.382       23.974       15.350     1114.358      574.741      235.614        0.685        0.096      107.784       14.026        0.017      335.950        6.925      866.104
10/13/2014  04:22:00     -132.766      -37.790       -7.978       23.347       19.623       16.211      545.072      385.043      262.808        1.016        0.060      138.040       14.261        0.011      335.895        6.832      866.089
10/13/2014  04:23:00     -120.589      -49.337      -11.738       13.507       19.163       13.128      182.433      367.205      172.336        0.892        0.036      130.292        9.944        0.006      336.009        7.022      866.075
10/13/2014  04:24:00      -96.259      -30.425       -9.140       16.714       20.955       11.959      279.353      439.106      143.018        0.557        0.043      100.952        6.355        0.004      335.963        6.947      866.067
10/13/2014  04:25:00     -105.602      -57.115       -9.371       20.619       16.443       13.562      425.144      270.386      183.916        0.769        0.044      120.058        8.285        0.005      335.984        6.980      866.068
10/13/2014  04:26:00     -106.584      -56.258       -2.335       24.464       23.703       14.553      598.491      561.847      211.782        0.795        0.069      120.520        8.883        0.005      335.940        6.906      866.057
10/13/2014  04:27:00      -98.596      -49.606       -2.721       22.352       19.119       15.012      499.606      365.518      225.348        0.664        0.055      110.372       12.188        0.012      335.909        6.856      866.050
10/13/2014  04:28:00     -103.119      -38.317       -7.765       17.068       19.104        9.752      291.320      364.973       95.099        0.646        0.038      110.007        4.945        0.002      335.975        6.965      866.057
10/13/2014  04:29:00     -111.714      -49.448       -5.012       22.538       20.865       15.654      507.958      435.342      245.063        0.807        0.059      122.168       10.737        0.008      335.891        6.827      866.070
10/13/2014  04:30:00     -125.695      -33.437       -3.292       25.655       26.695       15.404      658.195      712.620      237.291        0.927        0.080      130.066       14.045        0.012      335.911        6.859      866.066
10/13/2014  04:31:00     -116.475      -32.858       -3.007       36.950       22.693       19.130     1365.332      514.958      365.975        0.845        0.112      121.021       19.934        0.027      335.864        6.782      866.062
10/13/2014  04:32:00     -118.114      -47.162       -0.418       31.999       18.877       13.722     1023.957      356.344      188.294        0.887        0.078      127.182       16.362        0.017      335.928        6.887      866.066
10/13/2014  04:33:00     -117.469      -47.220       -5.023       19.768       22.408       13.832      390.762      502.101      191.312        0.857        0.054      126.605        7.703        0.004      335.920        6.875      866.060
10/13/2014  04:34:00     -115.634      -56.407       -4.246       22.561       19.737       15.858      509.017      389.545      251.466        0.886        0.058      128.658       11.298        0.008      335.889        6.825      866.047
10/13/2014  04:35:00     -105.267      -50.753       -3.078       25.075       20.505       14.764      628.749      420.474      217.986        0.747        0.063      116.863       11.395        0.010      335.810        6.692      866.036
10/13/2014  04:36:00      -80.613      -42.680       -4.017       26.946       23.413       16.258      726.094      548.186      264.330        0.494        0.077       91.214       10.169        0.012      335.827        6.721      866.035
10/13/2014  04:37:00      -76.792      -36.986       -5.218       27.290       22.460       15.948      744.727      504.441      254.340        0.440        0.075       85.235       12.839        0.023      335.823        6.715      866.037
10/13/2014  04:38:00      -73.026      -11.508       -4.061       27.116       20.445       15.627      735.297      418.008      244.207        0.344        0.070       73.927       13.110        0.031      335.744        6.582      866.032
10/13/2014  04:39:00      -73.801      -39.693       -3.727       29.610       25.579       14.742      876.780      654.308      217.339        0.439        0.087       83.798       15.872        0.036      335.806        6.685      866.029
10/13/2014  04:40:00      -95.694      -29.160       -7.477       23.081       20.859       14.489      532.711      435.089      209.944        0.562        0.059      100.039        6.576        0.004      335.724        6.549      866.025
10/13/2014  04:41:00      -65.986      -29.622        2.003       28.300       21.677       14.051      800.870      469.889      197.441        0.335        0.073       72.330       11.231        0.024      335.780        6.642      866.032
10/13/2014  04:42:00      -83.199      -35.914       -9.875       20.254       16.422       11.842      410.219      269.674      140.226        0.456        0.041       90.620        9.809        0.012      335.845        6.750      866.034
10/13/2014  04:43:00      -58.828      -36.535       -5.661       28.778       15.732       13.945      828.154      247.503      194.465        0.305        0.064       69.249       12.776        0.034      335.902        6.846      866.032
10/13/2014  04:44:00      -60.757      -38.861       -3.941       28.318       21.167       11.265      801.891      448.024      126.907        0.330        0.069       72.122       10.162        0.020      335.882        6.814      866.030
10/13/2014  04:45:00      -81.629      -37.178       -2.043       21.414       18.612       12.994      458.558      346.400      168.842        0.451        0.049       89.697       10.396        0.013      335.817        6.706      866.038
10/13/2014  04:46:00      -99.741      -36.217       -2.908       33.022       22.775       16.489     1090.426      518.688      271.893        0.657        0.094      106.113       15.376        0.021      335.864        6.782      866.038
10/13/2014  04:47:00      -96.792      -38.219       -0.587       25.472       22.628       15.740      648.822      512.037      247.739        0.612        0.070      104.064        9.866        0.009      335.895        6.832      866.041
10/13/2014  04:48:00     -115.719      -34.167       -8.367       13.090       13.959        8.824      171.353      194.863       77.866        0.754        0.022      120.657        4.423        0.001      335.934        6.898      866.034
10/13/2014  04:49:00     -105.106      -47.435      -12.956       15.555       11.910        9.969      241.963      141.841       99.374        0.697        0.024      115.314        5.196        0.002      335.883        6.813      866.028
10/13/2014  04:50:00      -95.710      -43.793       -1.896       13.967       15.034       12.374      195.082      226.007      153.120        0.583        0.029      105.253       10.183        0.009      335.853        6.763      866.022
10/13/2014  04:51:00      -95.954      -27.143       -5.942       11.030       14.850       11.751      121.659      220.529      138.080        0.523        0.024       99.719        4.055        0.002      335.802        6.677      866.031
10/13/2014  04:52:00      -92.655      -38.089       -7.150       21.179       18.911       11.872      448.535      357.618      140.943        0.552        0.047      100.178        9.832        0.010      335.761        6.610      866.034
10/13/2014  04:53:00     -108.665      -27.128       -6.302       18.036       17.154       14.209      325.310      294.270      201.886        0.670        0.041      112.000        9.655        0.007      335.747        6.588      866.027
10/13/2014  04:54:00      -44.689      -25.505        1.093       27.993       19.829       16.264      783.584      393.204      264.517        0.204        0.072       51.455       17.023        0.109      335.678        6.471      866.027
10/13/2014  04:55:00      -56.100      -42.039       -1.444       27.522       19.102       14.823      757.469      364.879      219.712        0.313        0.067       70.103       16.048        0.052      335.763        6.615      866.028
10/13/2014  04:56:00      -34.406      -25.985       -1.470       35.715       24.474       22.291     1275.583      598.992      496.884        0.212        0.119       43.116       25.446        0.348      335.767        6.621      866.024
10/13/2014  04:57:00       -9.328      -16.643       -1.871       17.882       12.602       12.446      319.766      158.821      154.896        0.050        0.032       19.079        6.203        0.106      335.840        6.741      866.012
10/13/2014  04:58:00      -36.790      -20.696        6.962       31.061       24.380       16.561      964.770      594.387      274.251        0.183        0.092       42.212       18.387        0.190      335.839        6.740      866.014
10/13/2014  04:59:00       10.442      -37.541        8.596       44.331       27.539       28.019     1965.198      758.414      785.059        0.255        0.175       38.967       27.570        0.501      335.862        6.778      866.016
10/13/2014  05:00:00      -76.219      -59.864       -2.891       56.144       34.435       18.323     3152.118     1185.754      335.718        0.704        0.234       96.918       23.211        0.057      335.794        6.667      866.024
10/13/2014  05:01:00      -39.149      -29.618        3.643       44.509       33.126       18.397     1981.064     1097.340      338.437        0.292        0.171       49.091       21.262        0.188      335.786        6.652      866.022
10/13/2014  05:02:00      -71.567      -35.708        0.645       46.755       28.699       21.688     2186.000      823.622      470.391        0.494        0.174       79.981        8.719        0.012      335.753        6.597      866.021
10/13/2014  05:03:00      -24.412      -23.460       12.567       30.382       30.150       18.449      923.059      909.030      340.362        0.174        0.109       33.857       13.341        0.155      335.733        6.565      866.018
10/13/2014  05:04:00      -55.474       -8.081       -0.501       33.933       21.321       12.388     1151.436      454.597      153.462        0.245        0.088       56.060       11.604        0.043      335.842        6.745      866.033
10/13/2014  05:05:00      -54.546      -24.169       -5.591       23.769       18.547       15.420      564.944      343.990      237.763        0.237        0.057       59.661       10.691        0.032      335.832        6.730      866.059
10/13/2014  05:06:00      -76.037      -46.446      -12.347       20.638       32.906       17.752      425.929     1082.821      315.130        0.496        0.091       89.100        8.839        0.010      335.843        6.747      866.078
10/13/2014  05:07:00      -36.139      -33.369        2.069       35.945       28.864       22.068     1292.049      833.110      486.996        0.252        0.131       49.188       23.638        0.231      335.827        6.722      866.084
10/13/2014  05:08:00      -57.997      -18.117        2.343       36.730       21.321       18.429     1349.082      454.591      339.627        0.292        0.107       60.761       23.279        0.147      335.820        6.709      866.081
10/13/2014  05:09:00      -83.451      -50.421      -14.345       23.760       24.548       16.935      564.533      602.593      286.800        0.558        0.073       97.501       12.482        0.016      335.851        6.760      866.084
10/13/2014  05:10:00      -79.897      -58.320      -12.066       25.428       21.235       15.874      646.608      450.940      251.995        0.564        0.067       98.917       11.568        0.014      335.866        6.784      866.087
10/13/2014  05:11:00      -88.426      -34.275      -10.317       19.927       14.389       10.362      397.096      207.040      107.372        0.491        0.036       94.836       11.481        0.015      335.892        6.829      866.087
10/13/2014  05:12:00      -82.175      -40.230      -14.001       10.329       13.744       10.787      106.692      188.887      116.362        0.449        0.021       91.494        4.755        0.003      335.908        6.854      866.085
10/13/2014  05:13:00      -81.737      -30.861       -9.548       20.982       17.026       12.162      440.229      289.881      147.908        0.430        0.044       87.369       11.219        0.016      335.906        6.851      866.087
10/13/2014  05:14:00      -51.239      -32.080       -4.238       19.566       12.093       13.005      382.822      146.242      169.135        0.219        0.035       60.453       10.022        0.027      335.972        6.960      866.096
10/13/2014  05:15:00      -51.297      -33.708       -0.429       15.909       12.400       13.448      253.093      153.753      180.842        0.218        0.029       61.381       11.339        0.034      335.967        6.953      866.103
10/13/2014  05:16:00      -44.703      -32.618       -1.774       20.646       14.219       12.592      426.242      202.191      158.559        0.193        0.039       55.338       11.523        0.043      335.936        6.901      866.115
10/13/2014  05:17:00      -41.818      -31.472       -1.313       24.492       17.607       13.449      599.843      309.993      180.886        0.192        0.055       52.338       11.419        0.048      335.964        6.947      866.118
10/13/2014  05:18:00      -35.486      -24.523       -3.212       21.512       14.223       10.693      462.785      202.306      114.348        0.133        0.039       43.136        9.068        0.044      336.025        7.049      866.115
10/13/2014  05:19:00      -44.332      -27.361        3.103       23.526       18.133       14.910      553.478      328.818      222.296        0.191        0.055       52.096       13.212        0.064      336.015        7.033      866.111
10/13/2014  05:20:00      -10.497      -17.134        9.976       18.824       10.746       12.294      354.342      115.466      151.130        0.056        0.031       20.094       10.706        0.284      336.031        7.060      866.118
10/13/2014  05:21:00       -8.859      -15.163       -0.622       14.488       10.504       10.758      209.888      110.337      115.740        0.037        0.022       17.562        7.827        0.199      336.042        7.077      866.118
10/13/2014  05:22:00      -46.067      -21.249        2.057       27.580       19.672       14.671      760.660      387.002      215.232        0.197        0.068       50.732       17.255        0.116      335.992        6.995      866.118
10/13/2014  05:23:00      -63.579      -47.292       -3.893       26.134       19.740       15.490      682.966      389.687      239.925        0.380        0.066       79.239       14.076        0.032      335.917        6.870      866.124
10/13/2014  05:24:00      -77.949      -49.840       -1.766       19.750       18.554       12.436      390.052      344.235      154.660        0.473        0.044       92.520        9.945        0.012      335.915        6.866      866.129
10/13/2014  05:25:00      -74.358      -44.944       -6.374       16.712       14.585       10.215      279.304      212.715      104.342        0.409        0.030       86.885        6.151        0.005      335.919        6.873      866.146
10/13/2014  05:26:00      -66.915      -36.737       -4.915       27.727       12.674       11.954      768.765      160.629      142.893        0.346        0.054       76.336       13.017        0.029      335.922        6.878      866.159
10/13/2014  05:27:00      -83.597      -41.211       -8.117       14.359       12.864        8.404      206.175      165.489       70.632        0.460        0.022       93.203        5.913        0.004      335.940        6.908      866.168
10/13/2014  05:28:00      -83.423      -31.020       -7.838       15.786       11.066        9.563      249.189      122.467       91.458        0.422        0.023       89.003        5.272        0.004      335.848        6.756      866.179
10/13/2014  05:29:00      -94.470      -46.024       -9.976       18.684       13.570       10.267      349.105      184.139      105.408        0.589        0.032      105.085        3.146        0.001      335.881        6.810      866.189
10/13/2014  05:30:00     -105.225      -47.277       -2.388       14.434       12.157       12.485      208.353      147.796      155.869        0.691        0.026      115.358        9.912        0.007      335.838        6.739      866.199
10/13/2014  05:31:00      -89.245      -29.459       -6.108       18.338       18.258       12.486      336.269      333.356      155.903        0.485        0.041       93.982        9.989        0.011      335.848        6.755      866.206
10/13/2014  05:32:00      -90.541      -13.959       -3.707       14.843       12.514       11.098      220.302      156.598      123.155        0.445        0.025       91.611        7.697        0.007      335.837        6.738      866.209
10/13/2014  05:33:00      -89.952      -23.552       -5.751       21.288       12.638       10.519      453.187      159.708      110.645        0.470        0.036       92.984        5.264        0.003      335.816        6.701      866.214
10/13/2014  05:34:00     -117.699      -27.588      -11.755       12.609       16.667       13.013      158.976      277.804      169.348        0.768        0.030      120.888        7.803        0.004      335.812        6.694      866.224
10/13/2014  05:35:00     -116.436      -32.556      -11.275       24.204       20.494       17.158      585.817      419.988      294.406        0.802        0.065      120.902       15.184        0.016      335.803        6.681      866.243
10/13/2014  05:36:00     -113.490      -43.489       -7.298       31.925       26.044       18.788     1019.221      678.294      352.977        0.844        0.103      121.537       11.015        0.008      335.721        6.543      866.269
10/13/2014  05:37:00      -91.394      -40.461       -2.663       24.572       27.429       17.933      603.790      752.333      321.593        0.584        0.084       99.949       13.175        0.017      335.672        6.462      866.292
10/13/2014  05:38:00     -104.152      -54.447       -4.380       31.877       23.963       15.420     1016.120      574.237      237.776        0.783        0.091      117.525       12.045        0.011      335.709        6.524      866.311
10/13/2014  05:39:00     -103.650      -58.837       -8.352       22.806       25.139       15.141      520.105      631.982      229.237        0.783        0.069      119.185        7.923        0.004      335.689        6.491      866.332
10/13/2014  05:40:00     -104.493      -67.547      -11.189       22.647       19.853       17.036      512.885      394.123      290.228        0.840        0.060      124.424       12.021        0.009      335.641        6.411      866.344
10/13/2014  05:41:00     -117.822      -71.515       -5.879       20.590       19.290       16.321      423.935      372.101      266.375        1.005        0.053      137.828       12.267        0.008      335.587        6.321      866.361
10/13/2014  05:42:00     -121.000      -52.388      -17.995       13.728       15.195       14.735      188.456      230.892      217.116        0.917        0.032      131.854        4.035        0.001      335.547        6.254      866.372
10/13/2014  05:43:00     -118.423      -59.658      -11.776       15.062       16.351       12.832      226.877      267.345      164.662        0.919        0.033      132.601        4.781        0.001      335.579        6.306      866.386
10/13/2014  05:44:00     -103.298      -33.895       -3.834       22.001       25.753       13.255      484.056      663.235      175.695        0.658        0.066      108.717       11.593        0.011      335.547        6.254      866.391
10/13/2014  05:45:00     -101.882      -16.262       -8.438       35.928       18.368       19.622     1290.851      337.374      385.026        0.636        0.101      103.172       23.166        0.050      335.473        6.129      866.396
10/13/2014  05:46:00     -122.935       -9.355      -10.254       28.303       23.796       16.375      801.077      566.249      268.132        0.847        0.082      123.291       14.690        0.014      335.427        6.053      866.402
10/13/2014  05:47:00     -113.027      -25.331       -8.345       32.396       26.485       18.390     1049.528      701.430      338.188        0.779        0.104      115.831       16.465        0.020      335.471        6.127      866.410
10/13/2014  05:48:00     -104.571      -17.867       -9.447       35.653       37.580       16.418     1271.135     1412.231      269.566        0.715        0.148      106.086       18.465        0.030      335.538        6.240      866.436
10/13/2014  05:49:00     -114.883      -22.429      -11.573       34.159       31.751       18.442     1166.812     1008.139      340.111        0.817        0.126      117.052       17.432        0.022      335.535        6.234      866.444
10/13/2014  05:50:00     -125.856      -15.854      -11.907       17.354       26.139       18.238      301.170      683.258      332.616        0.877        0.066      126.851        9.368        0.005      335.566        6.285      866.452
10/13/2014  05:51:00     -110.647      -21.987       -8.946       52.421       26.047       20.343     2747.944      678.471      413.855        0.832        0.192      112.810       26.593        0.056      335.518        6.205      866.462
10/13/2014  05:52:00     -112.145      -37.820       -9.533       28.375       24.726       15.999      805.123      611.365      255.962        0.788        0.084      118.350       10.010        0.007      335.612        6.362      866.471
10/13/2014  05:53:00     -160.930      -31.121      -11.909       16.810       14.726       11.873      282.592      216.857      140.969        1.382        0.032      163.912        7.657        0.002      335.599        6.341      866.487
10/13/2014  05:54:00     -122.656      -33.284       -8.548       23.753       26.756       14.998      564.187      715.895      224.933        0.886        0.075      127.092       11.426        0.008      335.640        6.409      866.484
10/13/2014  05:55:00      -78.314      -33.242       -1.916       19.257       25.776       15.719      370.831      664.394      247.083        0.426        0.064       85.078       12.780        0.023      335.703        6.514      866.481
10/13/2014  05:56:00     -110.458      -12.860      -12.238       29.303       21.341       18.036      858.638      455.432      325.298        0.708        0.082      111.204       16.470        0.022      335.621        6.377      866.474
10/13/2014  05:57:00     -104.822      -13.857       -6.058       26.685       23.056       16.709      712.112      531.559      279.202        0.637        0.076      105.734       13.782        0.017      335.548        6.255      866.473
10/13/2014  05:58:00     -136.959       -8.535       -5.474       31.105       26.759       16.172      967.522      716.032      261.546        1.040        0.097      137.225       15.015        0.012      335.590        6.327      866.476
10/13/2014  05:59:00     -100.263      -30.026       -3.728       30.093       23.460       15.364      905.576      550.383      236.056        0.633        0.085      104.663       15.168        0.021      335.642        6.411      866.475
10/13/2014  06:00:00      -90.347      -37.283       -2.919       34.893       24.070       17.275     1217.548      579.343      298.430        0.583        0.105       97.737       16.862        0.030      335.634        6.398      866.480
10/13/2014  06:01:00      -90.490      -42.983       -5.345       22.262       20.781       18.832      495.596      431.855      354.643        0.567        0.064      100.180       13.794        0.019      335.673        6.464      866.501
10/13/2014  06:02:00      -42.970      -15.718        2.075       27.593       20.615       18.517      761.381      424.994      342.878        0.181        0.076       45.754       14.619        0.102      335.632        6.395      866.508
10/13/2014  06:03:00      -39.149      -37.660       -1.238       44.401       19.441       16.946     1971.484      377.940      287.154        0.279        0.132       54.322       21.771        0.161      335.659        6.440      866.512
10/13/2014  06:04:00      -89.377      -54.727       -8.403       34.258       25.136       18.869     1173.611      631.817      356.053        0.661        0.108      104.801       16.377        0.024      335.558        6.272      866.521
10/13/2014  06:05:00     -109.625      -28.491       -9.189       23.278       23.289       14.982      541.886      542.392      224.473        0.711        0.065      113.267       13.586        0.014      335.589        6.324      866.535
10/13/2014  06:06:00      -75.296      -42.319        1.337       26.092       21.094       15.289      680.795      444.951      233.758        0.441        0.068       86.373       14.982        0.030      335.635        6.400      866.547
10/13/2014  06:07:00      -54.202      -47.591       -0.365       29.497       17.200       16.704      870.056      295.828      279.038        0.332        0.072       72.130       15.795        0.048      335.731        6.559      866.553
10/13/2014  06:08:00      -71.129      -52.260       -0.563       29.611       16.164       16.402      876.792      261.263      269.034        0.460        0.070       88.264       13.478        0.023      335.729        6.557      866.554
10/13/2014  06:09:00      -74.173      -49.116       -2.302       29.899       24.887       18.745      893.941      619.383      351.365        0.489        0.093       88.960       19.117        0.046      335.786        6.653      866.555
10/13/2014  06:10:00      -43.076      -38.227       -3.153       43.205       18.202       14.639     1866.706      331.302      214.303        0.287        0.121       57.592       16.380        0.081      335.850        6.758      866.556
10/13/2014  06:11:00      -10.730      -20.781        2.215       23.154       14.181        9.927      536.091      201.098       98.553        0.069        0.042       23.388       11.340        0.235      335.766        6.618      866.561
10/13/2014  06:12:00       -1.681      -22.865        3.585       12.252       10.855       12.597      150.113      117.837      158.676        0.048        0.021       22.927        8.148        0.126      335.771        6.627      866.560
10/13/2014  06:13:00      -31.637      -32.513        3.752       22.794       17.704       15.652      519.544      313.425      244.976        0.157        0.054       45.366       10.750        0.056      335.778        6.638      866.562
10/13/2014  06:14:00      -51.372      -45.220       -2.320       26.523       15.182       14.515      703.465      230.485      210.700        0.292        0.057       68.439        8.843        0.017      335.821        6.710      866.569
10/13/2014  06:15:00      -27.799      -30.921       -2.993       25.915       17.360       16.740      671.605      301.386      280.233        0.150        0.063       41.580       11.399        0.075      335.768        6.622      866.576
10/13/2014  06:16:00      -30.126      -32.271        4.753       39.085       19.375       17.571     1527.657      375.390      308.746        0.209        0.111       44.147       12.779        0.084      335.771        6.628      866.591
10/13/2014  06:17:00      -64.765      -39.473        1.097       28.589       21.755       17.338      817.351      473.263      300.608        0.367        0.080       75.847        6.704        0.008      335.730        6.561      866.604
10/13/2014  06:18:00      -49.497      -46.989       -3.333       22.932       22.674       15.810      525.856      514.108      249.970        0.298        0.064       68.249        9.538        0.020      335.815        6.701      866.617
10/13/2014  06:19:00      -18.003      -51.886      -10.869       22.171       18.455       13.611      491.535      340.602      185.257        0.208        0.051       54.921       10.070        0.034      335.939        6.905      866.627
10/13/2014  06:20:00      -27.990      -14.435        2.985       18.881       15.178       11.554      356.492      230.380      133.485        0.086        0.036       31.493        7.252        0.053      335.872        6.797      866.642
10/13/2014  06:21:00      -34.691       -2.799        1.838       14.826       12.517       10.497      219.803      156.673      110.184        0.085        0.024       34.803        8.559        0.060      335.878        6.806      866.652
10/13/2014  06:22:00      -56.197        6.143       -1.532       16.073       10.203        9.289      258.337      104.093       86.279        0.182        0.022       56.532        5.351        0.009      335.813        6.698      866.657
10/13/2014  06:23:00      -54.622       -3.911       -5.894       15.599       15.035       12.713      243.333      226.054      161.618        0.183        0.032       54.761        8.407        0.024      335.750        6.594      866.659
10/13/2014  06:24:00      -66.864       -7.651      -10.377       28.426       18.328       19.588      808.012      335.927      383.696        0.308        0.076       67.300        6.709        0.010      335.768        6.623      866.660
10/13/2014  06:25:00      -42.897      -34.894        1.567       30.736       22.827       14.843      944.716      521.080      220.310        0.237        0.084       55.297       10.883        0.039      335.685        6.485      866.660
10/13/2014  06:26:00      -40.160      -39.372        0.229       31.768       20.944       14.073     1009.209      438.643      198.048        0.240        0.082       56.240        8.875        0.025      335.702        6.513      866.658
10/13/2014  06:27:00      -54.241      -33.517       -1.585       31.184       20.811       15.336      972.459      433.112      235.195        0.285        0.082       63.762        7.628        0.014      335.668        6.456      866.658
10/13/2014  06:28:00      -37.167      -35.957       -0.981       38.110       24.844       13.773     1452.379      617.237      189.697        0.247        0.113       51.714       18.166        0.123      335.723        6.548      866.668
10/13/2014  06:29:00      -40.619      -43.291        0.772       33.539       40.920       20.077     1124.881     1674.477      403.086        0.336        0.160       59.363       23.116        0.152      335.711        6.527      866.673
10/13/2014  06:30:00      -68.503      -46.927        1.472       38.750       36.210       21.541     1501.593     1311.194      464.018        0.509        0.164       83.035       23.876        0.083      335.703        6.514      866.680
10/13/2014  06:31:00      -33.720      -34.928        0.986       33.677       28.341       16.579     1134.149      803.187      274.859        0.228        0.111       48.549       12.831        0.070      335.698        6.508      866.689
10/13/2014  06:32:00      -34.658      -34.188        5.696       25.900       26.219       16.793      670.795      687.423      282.001        0.202        0.082       48.683       15.286        0.099      335.684        6.482      866.694
10/13/2014  06:33:00      -44.404      -49.230       -5.937       35.890       17.379       16.914     1288.087      302.044      286.072        0.315        0.094       66.297        3.651        0.003      335.729        6.557      866.711
10/13/2014  06:34:00      -46.318      -41.393        7.756       55.013       32.588       22.843     3026.470     1061.982      521.823        0.426        0.231       62.119       32.171        0.268      335.632        6.395      866.727
10/13/2014  06:35:00      -53.687      -38.645        0.578       38.488       25.925       22.117     1481.305      672.127      489.174        0.351        0.132       66.149       21.512        0.106      335.629        6.390      866.747
10/13/2014  06:36:00      -48.880      -41.334        2.392       44.786       35.232       21.701     2005.782     1241.300      470.941        0.391        0.186       64.014       22.770        0.127      335.599        6.341      866.766
10/13/2014  06:37:00      -21.095      -33.883        9.838       34.251       22.505       20.117     1173.153      506.477      404.688        0.189        0.104       39.913       16.596        0.173      335.619        6.373      866.775
10/13/2014  06:38:00      -35.273      -32.906        8.775       37.065       27.555       18.641     1373.841      759.257      347.485        0.244        0.124       48.239       15.501        0.103      335.639        6.408      866.784
10/13/2014  06:39:00      -89.726      -71.553        1.083       24.864       30.862       18.842      618.216      952.482      355.008        0.755        0.096      114.763       14.396        0.016      335.482        6.143      866.790
10/13/2014  06:40:00      -74.869      -76.925       -3.545       39.559       31.555       24.089     1564.906      995.687      580.274        0.734        0.157      107.344       25.801        0.058      335.464        6.115      866.805
10/13/2014  06:41:00      -79.219      -63.143        0.086       31.724       37.057       22.359     1006.391     1373.245      499.928        0.657        0.144      101.304       22.893        0.051      335.482        6.145      866.809
10/13/2014  06:42:00      -47.903      -48.090        5.211       31.763       31.768       19.885     1008.915     1009.232      395.422        0.352        0.121       67.877       19.078        0.079      335.476        6.136      866.816
10/13/2014  06:43:00      -92.700      -36.758       -5.019       16.460       17.707       13.680      270.931      313.522      187.140        0.537        0.039       99.722        5.325        0.003      335.532        6.230      866.829
10/13/2014  06:44:00      -60.224      -33.330        1.476       28.727       22.808       15.675      825.246      520.186      245.718        0.317        0.080       68.831       14.882        0.047      335.447        6.086      866.838
10/13/2014  06:45:00      -90.441      -36.694       -1.777       19.874       22.043       13.741      394.989      485.910      188.802        0.530        0.053       97.601        9.731        0.010      335.512        6.194      866.840
10/13/2014  06:46:00      -70.789      -32.374       -7.888       29.262       23.972       17.302      856.260      574.646      299.370        0.393        0.087       77.840       12.465        0.026      335.458        6.104      866.848
10/13/2014  06:47:00      -64.847      -25.483       -1.411       32.821       16.980       16.059     1077.245      288.330      257.907        0.324        0.081       69.675       15.579        0.050      335.446        6.083      866.845
10/13/2014  06:48:00      -71.464      -48.534       -5.474       44.407       34.407       13.426     1971.963     1183.817      180.257        0.541        0.167       86.387       14.658        0.029      335.437        6.069      866.843
10/13/2014  06:49:00      -61.935      -15.194       -2.361       18.049       32.918       17.904      325.758     1083.596      320.562        0.290        0.086       63.771       17.804        0.078      335.434        6.064      866.844
10/13/2014  06:50:00      -82.552       21.316      -10.566       11.278       16.340        9.974      127.190      266.981       99.482        0.394        0.025       85.259        5.491        0.004      335.292        5.828      866.843
10/13/2014  06:51:00      -48.008       -0.226       -7.028       15.288       17.289       10.858      233.710      298.922      117.894        0.150        0.033       48.009        5.865        0.015      335.323        5.877      866.851
10/13/2014  06:52:00      -66.175      -11.653       -6.449       19.113       14.015       12.398      365.291      196.425      153.701        0.264        0.036       67.193        7.279        0.012      335.310        5.857      866.852
10/13/2014  06:53:00      -70.055       -4.675       -7.566       22.131       15.126       12.666      489.794      228.808      160.422        0.293        0.044       70.210       10.831        0.024      335.273        5.795      866.856
10/13/2014  06:54:00      -70.865       -0.199      -12.360       20.070       18.144       11.382      402.788      329.188      129.545        0.302        0.043       70.865        6.078        0.007      335.230        5.724      866.859
10/13/2014  06:55:00      -52.996      -13.580       -7.247       21.539       17.437       12.544      463.916      304.032      157.340        0.199        0.046       54.709        7.943        0.021      335.225        5.716      866.854
10/13/2014  06:56:00      -42.570       -6.219       -2.394       18.874       13.290       10.616      356.241      176.619      112.701        0.125        0.032       43.022       11.299        0.069      335.211        5.693      866.860
10/13/2014  06:57:00      -40.309      -24.741       -1.947       22.713       18.823        7.818      515.897      354.312       61.119        0.159        0.047       47.297        4.430        0.009      335.215        5.701      866.857
10/13/2014  06:58:00      -82.575      -37.474      -13.727       14.092       12.538        9.158      198.598      157.190       83.874        0.443        0.022       90.680        4.493        0.002      335.206        5.684      866.857
10/13/2014  06:59:00      -65.876      -32.748       -2.485       28.105       19.451       11.770      789.883      378.324      138.529        0.336        0.065       73.567       12.596        0.029      335.270        5.789      866.868
10/13/2014  07:00:00      -22.803      -20.528        1.531       20.545       14.223       12.287      422.095      202.294      150.966        0.086        0.039       30.682        5.389        0.031      335.326        5.884      866.872
10/13/2014  07:01:00      -32.581      -14.962       -5.485       13.646       10.073        7.104      186.209      101.463       50.465        0.083        0.017       35.852        6.881        0.037      335.304        5.847      866.873
10/13/2014  07:02:00      -45.795      -20.177       -5.997       14.454       11.782        8.125      208.923      138.814       66.011        0.148        0.021       50.043        3.423        0.005      335.354        5.930      866.869
10/13/2014  07:03:00      -51.181      -11.622       -1.725       17.982       10.460       10.418      323.360      109.422      108.543        0.165        0.027       52.484        7.588        0.021      335.333        5.896      866.863
10/13/2014  07:04:00      -25.740      -14.797       -0.119       20.315       13.625       11.644      412.693      185.651      135.591        0.081        0.037       29.690       10.675        0.129      335.302        5.845      866.861
10/13/2014  07:05:00      -34.913      -28.442       -4.274       19.756       15.682        9.509      390.311      245.937       90.424        0.139        0.036       45.032        5.700        0.016      335.378        5.970      866.853
10/13/2014  07:06:00      -29.474       -4.539       -0.140       19.447        9.880        9.871      378.183       97.623       97.438        0.073        0.029       29.821        6.491        0.047      335.419        6.040      866.858
10/13/2014  07:07:00      -58.179      -17.342       -1.987       14.098        9.616       12.943      198.740       92.461      167.531        0.207        0.023       60.709       10.363        0.029      335.481        6.143      866.851
10/13/2014  07:08:00      -53.862      -33.997       -1.769       18.068       13.112       11.889      326.438      171.925      141.340        0.235        0.032       63.694       10.763        0.029      335.463        6.113      866.844
10/13/2014  07:09:00      -42.193      -34.619       -2.476       20.672       17.807       14.900      427.321      317.075      222.010        0.198        0.048       54.578       12.170        0.050      335.493        6.163      866.846
10/13/2014  07:10:00      -35.435      -31.104       -1.173       25.133       17.142       17.639      631.689      293.849      311.149        0.173        0.062       47.150        9.116        0.037      335.487        6.152      866.848
10/13/2014  07:11:00      -34.272      -14.679        2.190       25.188       18.100       15.138      634.438      327.607      229.163        0.129        0.060       37.283       10.718        0.083      335.447        6.086      866.840
10/13/2014  07:12:00      -44.983      -19.703       -4.053       20.826       13.223       12.527      433.716      174.861      156.916        0.160        0.038       49.109       10.887        0.049      335.452        6.093      866.839
10/13/2014  07:13:00      -63.281      -18.884       -6.163       15.575       18.262       10.958      242.577      333.508      120.074        0.255        0.035       66.038        4.694        0.005      335.486        6.150      866.839
10/13/2014  07:14:00      -28.330      -14.598        2.306       28.544       13.357        9.610      814.753      178.412       92.347        0.105        0.054       31.870        8.516        0.071      335.511        6.193      866.844
10/13/2014  07:15:00      -63.707      -44.872        0.863       40.026       32.685       17.728     1602.068     1068.334      314.299        0.453        0.149       77.924       15.393        0.039      335.426        6.053      866.840
10/13/2014  07:16:00      -95.613      -72.505       -1.064       28.422       28.488       21.332      807.804      811.550      455.040        0.824        0.104      119.996       19.256        0.026      335.389        5.989      866.843
10/13/2014  07:17:00      -85.248      -86.571       -4.887       36.823       36.992       19.084     1355.948     1368.378      364.191        0.894        0.154      121.498       17.825        0.022      335.380        5.974      866.841
10/13/2014  07:18:00      -78.829      -96.253       -7.988       33.466       36.295       24.450     1119.986     1317.333      597.780        0.929        0.152      124.413       15.723        0.016      335.390        5.991      866.836
10/13/2014  07:19:00      -71.809      -76.319       -2.763       28.838       21.417       20.306      831.613      458.686      412.352        0.635        0.085      104.791       17.144        0.027      335.400        6.008      866.837
10/13/2014  07:20:00      -43.023      -70.205       -0.333       23.041       33.692       20.906      530.866     1135.131      437.050        0.444        0.105       82.339       15.933        0.037      335.469        6.122      866.838
10/13/2014  07:21:00      -71.028      -62.891       -3.299       33.937       37.453       17.453     1151.690     1402.701      304.616        0.593        0.143       94.870       15.897        0.028      335.516        6.202      866.841
10/13/2014  07:22:00      -84.287      -51.471       -6.427       26.211       42.641       20.167      687.021     1818.221      406.702        0.635        0.146       98.760       20.351        0.042      335.462        6.112      866.849
10/13/2014  07:23:00      -65.791      -49.946       -2.745       48.016       27.006       16.881     2305.492      729.307      284.961        0.507        0.166       82.601       21.474        0.068      335.550        6.259      866.859
10/13/2014  07:24:00      -82.550      -31.252      -10.554       24.265       23.635       14.077      588.809      558.610      198.163        0.462        0.067       88.267       12.394        0.020      335.535        6.234      866.862
10/13/2014  07:25:00      -81.814      -37.677       -4.146       32.492       29.316       16.664     1055.739      859.437      277.693        0.516        0.110       90.073       16.437        0.033      335.488        6.154      866.865
10/13/2014  07:26:00      -93.256       -5.912       -6.189       30.382       20.342       18.622      923.075      413.778      346.787        0.523        0.084       93.443       20.227        0.047      335.358        5.937      866.858
10/13/2014  07:27:00      -77.882      -22.507        0.810       36.230       25.198       15.324     1312.640      634.920      234.824        0.438        0.109       81.069       15.623        0.037      335.318        5.871      866.849
10/13/2014  07:28:00      -91.016      -26.483       -2.186       23.005       21.649       15.583      529.220      468.660      242.834        0.512        0.062       94.790       10.213        0.012      335.259        5.773      866.841
10/13/2014  07:29:00      -84.386      -23.033       -3.314       35.325       20.896       17.876     1247.861      436.630      319.558        0.483        0.100       87.473       18.961        0.047      335.392        5.994      866.835
10/13/2014  07:30:00      -87.264      -14.213       -2.218       31.303       22.489       18.615      979.901      505.741      346.536        0.483        0.092       88.414       13.977        0.025      335.309        5.856      866.841
10/13/2014  07:31:00      -95.725      -24.761        0.772       26.699       20.206       15.145      712.862      408.270      229.376        0.556        0.068       98.876       12.889        0.017      335.336        5.901      866.864
10/13/2014  07:32:00      -94.983      -27.357       -2.505       24.044       21.005       16.173      578.121      441.191      261.575        0.553        0.064       98.844       15.076        0.023      335.369        5.955      866.900
10/13/2014  07:33:00      -93.746      -26.752       -1.162       23.500       20.951       13.905      552.228      438.948      193.356        0.534        0.059       97.488        9.322        0.009      335.409        6.023      866.930
10/13/2014  07:34:00      -93.141      -35.668       -4.481       16.097       16.731       12.097      259.121      279.937      146.327        0.533        0.034       99.737        6.987        0.005      335.486        6.152      866.954
10/13/2014  07:35:00      -97.663      -31.561       -9.101       18.071       16.388       15.458      326.544      268.556      238.942        0.573        0.042      102.636       12.201        0.014      335.523        6.214      866.977
10/13/2014  07:36:00      -83.224      -10.709       -2.628       26.569       18.022       15.743      705.901      324.805      247.829        0.416        0.064       83.910       14.684        0.031      335.472        6.128      866.976
10/13/2014  07:37:00      -92.982      -29.832       -6.374       17.154       23.889       11.107      294.273      570.673      123.377        0.528        0.049       97.650        8.942        0.008      335.504        6.182      866.979
10/13/2014  07:38:00      -75.802      -42.871       -2.647       18.029       24.519       11.105      325.034      601.204      123.328        0.432        0.052       87.085        7.873        0.008      335.597        6.338      866.982
10/13/2014  07:39:00      -57.688      -22.388       -1.107       13.190       17.713       11.646      173.980      313.752      135.627        0.223        0.031       61.880        7.501        0.015      335.638        6.407      866.989
10/13/2014  07:40:00      -50.032       -8.500       -4.720       14.008       11.239       10.064      196.213      126.312      101.283        0.151        0.021       50.749        6.875        0.018      335.683        6.480      866.997
10/13/2014  07:41:00      -59.666      -21.005       -8.263        9.227        7.537        7.282       85.145       56.811       53.020        0.213        0.010       63.255        4.244        0.005      335.736        6.571      866.998
10/13/2014  07:42:00      -54.996      -15.109       -5.264       12.832        8.333        8.646      164.663       69.442       74.760        0.179        0.015       57.034        6.741        0.014      335.734        6.566      867.002
10/13/2014  07:43:00      -61.753       -9.931       -7.051       11.002       12.000        6.986      121.035      143.992       48.809        0.214        0.016       62.546        2.556        0.002      335.733        6.563      867.015
10/13/2014  07:44:00      -69.142      -18.676       -8.296       20.514       14.234       11.125      420.805      202.601      123.756        0.297        0.037       71.620       10.505        0.022      335.765        6.618      867.027
10/13/2014  07:45:00      -77.366      -21.569      -11.109       13.064       10.379       11.198      170.663      107.717      125.404        0.349        0.020       80.316        4.759        0.004      335.736        6.569      867.049
10/13/2014  07:46:00      -73.310      -10.905       -9.148       15.615       10.297       11.174      243.822      106.023      124.858        0.303        0.024       74.117        8.947        0.015      335.776        6.636      867.061
10/13/2014  07:47:00      -81.619      -27.478       -9.109       15.284       16.062       10.778      233.587      257.980      116.176        0.405        0.030       86.120        8.202        0.009      335.883        6.814      867.070
10/13/2014  07:48:00      -62.193      -31.862       -3.214       15.244       16.015       12.851      232.365      256.466      165.141        0.277        0.033       69.880        9.298        0.018      335.963        6.947      867.079
10/13/2014  07:49:00      -71.861       -9.672       -6.961       17.796       17.207       11.429      316.694      296.078      130.626        0.302        0.037       72.509       10.442        0.021      335.953        6.929      867.088
10/13/2014  07:50:00      -68.239      -31.598        1.624       16.849       19.135       10.490      283.872      366.133      110.045        0.321        0.038       75.200        6.107        0.007      336.076        7.134      867.100
10/13/2014  07:51:00      -73.063      -16.472       -2.591       20.001       20.250       12.902      400.053      410.057      166.449        0.330        0.049       74.897        9.008        0.014      336.066        7.117      867.126
10/13/2014  07:52:00      -83.144      -36.448       -5.186       24.395       23.320       10.433      595.098      543.833      108.856        0.476        0.062       90.782        6.439        0.005      336.112        7.194      867.138
10/13/2014  07:53:00      -86.232      -37.525       -4.693       31.158       17.508       14.004      970.797      306.533      196.102        0.517        0.074       94.043       16.311        0.030      336.132        7.228      867.151
10/13/2014  07:54:00      -88.046      -37.362       -3.315       23.660       22.068       10.820      559.777      487.016      117.077        0.516        0.058       95.645        9.765        0.010      336.165        7.284      867.173
10/13/2014  07:55:00      -80.297      -18.755        0.997       30.415       28.533       18.112      925.088      814.160      328.028        0.443        0.103       82.459       19.529        0.056      336.205        7.351      867.188
10/13/2014  07:56:00     -113.384      -47.432       -7.988       24.578       21.525       12.000      604.077      463.331      144.003        0.819        0.061      122.906       10.955        0.008      336.202        7.345      867.193
10/13/2014  07:57:00      -97.629      -20.046       -8.195       27.797       18.913       13.127      772.672      357.692      172.310        0.565        0.065       99.666       11.231        0.013      336.257        7.436      867.215
10/13/2014  07:58:00      -90.057      -36.447       -1.169       22.624       12.169       13.354      511.864      148.077      178.333        0.514        0.042       97.152       13.703        0.020      336.271        7.460      867.228
10/13/2014  07:59:00      -85.906      -36.466       -1.722       21.161       13.772       13.366      447.781      189.675      178.657        0.476        0.041       93.325       10.459        0.013      336.289        7.492      867.238
10/13/2014  08:00:00      -28.779      -59.270        4.928       22.224       14.467       12.218      493.886      209.301      149.287        0.261        0.043       65.888        5.913        0.008      336.361        7.613      867.242
10/13/2014  08:01:00      -56.528      -35.251       -5.505       18.534       10.991       11.115      343.511      120.809      123.534        0.253        0.029       66.619       10.155        0.023      336.404        7.682      867.240
10/13/2014  08:02:00      -32.076      -32.803        0.987       30.955       14.414       15.773      958.234      207.774      248.783        0.176        0.071       45.879       17.595        0.147      336.541        7.912      867.237
10/13/2014  08:03:00      -24.593      -31.896        2.589       22.369       18.515       12.443      500.351      342.813      154.838        0.131        0.050       40.276        9.702        0.058      336.553        7.932      867.233
10/13/2014  08:04:00      -15.741      -23.196        7.816       22.835       29.363       19.861      521.443      862.213      394.446        0.131        0.089       28.033       17.105        0.372      336.800        8.345      867.231
10/13/2014  08:05:00      -64.302      -67.571       -6.255       31.283       27.245       17.050      978.627      742.307      290.689        0.538        0.101       93.277       17.698        0.036      336.577        7.973      867.239
10/13/2014  08:06:00      -58.396      -47.803      -10.925       22.299       23.892       14.586      497.239      570.848      212.750        0.355        0.064       75.467       13.239        0.031      336.623        8.050      867.243
10/13/2014  08:07:00      -55.421      -52.173       -5.926       18.152       20.104       13.693      329.513      404.158      187.487        0.337        0.046       76.115       11.126        0.021      336.638        8.075      867.246
10/13/2014  08:08:00      -29.349      -50.523        1.623       25.463       20.597       14.662      648.369      424.224      214.960        0.235        0.064       58.429       15.023        0.066      336.690        8.162      867.241
10/13/2014  08:09:00      -32.195      -30.571       -3.473       19.835       22.857       11.334      393.409      522.450      128.464        0.151        0.052       44.397       11.015        0.062      336.712        8.200      867.240
10/13/2014  08:10:00      -18.495      -32.664        0.905       20.784       17.101       12.235      431.987      292.440      149.704        0.114        0.044       37.536       11.626        0.096      336.799        8.345      867.239
10/13/2014  08:11:00      -10.829      -29.163        1.029        8.216       14.390        7.582       67.496      207.072       57.482        0.065        0.017       31.109        6.248        0.040      336.779        8.310      867.228
10/13/2014  08:12:00      -13.930      -39.505       -2.399       14.195        9.863        9.937      201.509       97.279       98.739        0.108        0.020       41.889        6.593        0.025      336.786        8.324      867.223
10/13/2014  08:13:00      -22.258       -8.622       -2.970       13.424       17.659        6.795      180.210      311.848       46.178        0.056        0.027       23.870        4.108        0.030      336.943        8.584      867.224
10/13/2014  08:14:00      -38.098       -5.319        3.947       22.241       10.632        9.435      494.672      113.041       89.028        0.110        0.035       38.467        9.006        0.055      336.999        8.677      867.224
10/13/2014  08:15:00      -25.949       -0.480        6.638       10.021       13.991        7.989      100.428      195.761       63.821        0.054        0.018       25.954        6.109        0.055      336.957        8.607      867.239
10/13/2014  08:16:00      -29.503       13.451       12.747       14.984       12.606       13.614      224.521      158.916      185.329        0.089        0.028       32.425       10.591        0.107      337.182        8.982      867.252
10/13/2014  08:17:00      -19.728        5.139        0.006        8.281       11.446       10.179       68.569      131.007      103.607        0.036        0.015       20.387        5.771        0.080      337.029        8.727      867.258
10/13/2014  08:18:00      -31.655       -8.921       -0.949       18.773       10.940        8.485      352.431      119.688       72.002        0.081        0.027       32.888        5.281        0.026      337.060        8.778      867.266
10/13/2014  08:19:00      -21.742      -10.604        0.606       17.475       19.087       10.758      305.375      364.303      115.736        0.069        0.039       24.190       10.351        0.183      337.151        8.931      867.276
10/13/2014  08:20:00      -19.377       -9.375       -1.313        8.466       11.425        5.435       71.673      130.535       29.541        0.035        0.012       21.526        4.690        0.047      337.115        8.871      867.284
10/13/2014  08:21:00       -5.304      -26.075       -2.151       10.737        7.540        9.115      115.276       56.848       83.087        0.048        0.013       26.609        7.025        0.070      337.059        8.775      867.288
10/13/2014  08:22:00      -16.638      -27.655       -2.826       18.129       22.605       19.798      328.657      510.983      391.966        0.114        0.062       32.274       13.337        0.171      337.057        8.775      867.297
10/13/2014  08:23:00      -15.429      -36.972        7.232       23.134       36.069       22.291      535.161     1300.978      496.886        0.199        0.117       40.062       22.077        0.304      337.195        9.005      867.305
10/13/2014  08:24:00      -19.541      -10.115        5.183       17.369       16.235       19.163      301.673      263.579      367.223        0.072        0.047       22.003       13.565        0.380      337.457        9.443      867.319
10/13/2014  08:25:00      -35.169      -19.148       -4.617       10.587       10.623        8.775      112.090      112.847       76.996        0.096        0.015       40.044        5.129        0.016      337.246        9.091      867.324
10/13/2014  08:26:00      -18.676       -2.457       -1.799       11.789        9.891        9.656      138.988       97.836       93.242        0.034        0.017       18.837        9.272        0.242      337.385        9.325      867.333
10/13/2014  08:27:00      -14.571       -4.389       -0.367       13.863       12.275       13.733      192.192      150.670      188.602        0.038        0.027       15.217        5.144        0.114      337.438        9.412      867.343
10/13/2014  08:28:00      -26.965      -42.318        1.861       22.123       31.449       11.230      489.429      989.058      126.121        0.206        0.080       50.179        8.621        0.030      337.301        9.182      867.349
10/13/2014  08:29:00      -41.418      -34.183       -4.519       12.584       11.831        8.785      158.360      139.969       77.168        0.164        0.019       53.702        2.686        0.003      337.191        8.998      867.356
10/13/2014  08:30:00      -23.773      -28.789        0.071       18.098       14.354       11.949      327.540      206.034      142.781        0.104        0.034       37.336        9.891        0.070      337.259        9.114      867.355
10/13/2014  08:31:00       -9.533      -10.317        3.006       12.131        9.269        6.013      147.167       85.923       36.153        0.024        0.013       14.047        4.280        0.093      337.507        9.528      867.361
10/13/2014  08:32:00      -26.175      -29.960       -5.829       13.188       14.096       11.660      173.911      198.687      135.963        0.106        0.025       39.783        6.010        0.023      337.310        9.200      867.367
10/13/2014  08:33:00      -31.785       11.584       -0.938       14.572       22.777       12.986      212.339      518.788      168.628        0.102        0.045       33.830       10.079        0.089      337.394        9.339      867.378
10/13/2014  08:34:00      -34.113       15.813        6.529       27.305       29.791       19.852      745.553      887.525      394.112        0.174        0.101       37.600       11.115        0.087      337.684        9.825      867.377
10/13/2014  08:35:00      -40.187       -1.526        3.338       20.177       14.064       11.436      407.103      197.801      130.789        0.118        0.037       40.216       11.768        0.086      337.532        9.569      867.381
10/13/2014  08:36:00      -31.921       -7.388       -3.387       17.313       18.204        9.832      299.751      331.402       96.661        0.091        0.036       32.765        8.255        0.063      337.494        9.506      867.377
10/13/2014  08:37:00      -50.357       21.569       -6.600       17.078       20.031       16.375      291.667      401.232      268.148        0.200        0.048       54.781       14.067        0.066      337.505        9.522      867.369
10/13/2014  08:38:00      -31.596        0.306      -13.373       19.460       21.698       12.996      378.703      470.798      168.899        0.110        0.051       31.598       10.496        0.110      337.612        9.703      867.356
10/13/2014  08:39:00       -5.858       14.546       36.905       21.547       19.330       18.663      464.260      373.634      348.297        0.140        0.059       15.681        8.628        0.303      338.256       10.783      867.341
10/13/2014  08:40:00        0.691       -4.987       22.577       29.048       45.461       30.158      843.774     2066.735      909.488        0.218        0.191        5.035       20.838       17.129      338.091       10.507      867.324
10/13/2014  08:41:00       22.960       30.595       50.958       37.688       37.884       27.927     1420.371     1435.226      779.922        0.385        0.182       38.252       23.600        0.381      337.973       10.308      867.317
10/13/2014  08:42:00        4.310       36.464       62.282       22.361       31.409       22.307      500.027      986.518      497.595        0.361        0.099       36.718       22.414        0.373      338.044       10.428      867.305
10/13/2014  08:43:00      -25.503      -31.035       10.099       20.513       33.839       21.738      420.779     1145.103      472.541        0.188        0.102       40.169       16.736        0.174      337.954       10.276      867.290
10/13/2014  08:44:00      -21.986      -15.999       15.771       23.652       22.530       15.198      559.417      507.620      230.987        0.114        0.065       27.191        9.281        0.117      338.159       10.621      867.276
10/13/2014  08:45:00      -15.915      -20.414       17.031       25.695       29.536       21.775      660.246      872.352      474.151        0.148        0.100       25.885        9.947        0.148      338.100       10.522      867.266
10/13/2014  08:46:00        9.118        0.999       41.383       23.800       39.280       17.106      566.435     1542.915      292.603        0.210        0.120        9.172       14.630        2.544      338.472       11.147      867.262
10/13/2014  08:47:00       15.414      -28.243       21.805       27.051       54.514       34.739      731.740     2971.784     1206.783        0.321        0.246       32.176       28.530        0.786      338.408       11.039      867.255
10/13/2014  08:48:00       17.983       14.895       36.237       41.007       56.272       27.277     1681.571     3166.567      744.034        0.372        0.280       23.350       33.380        2.044      338.152       10.609      867.251
10/13/2014  08:49:00       26.640       -0.145       40.511       31.300       43.270       28.964      979.668     1872.271      838.921        0.302        0.185       26.640       30.538        1.314      338.275       10.817      867.235
10/13/2014  08:50:00       22.599      -15.647       19.500       33.111       50.623       30.780     1096.319     2562.681      947.425        0.287        0.230       27.487       28.322        1.062      338.320       10.892      867.229
10/13/2014  08:51:00       20.983      -14.945       28.045       39.966       52.090       39.418     1597.291     2713.382     1553.759        0.366        0.293       25.761       39.598        2.363      338.456       11.121      867.228
10/13/2014  08:52:00       32.523       -5.011       36.463       40.670       42.552       32.362     1654.081     1810.685     1047.276        0.346        0.226       32.907       22.579        0.471      338.370       10.976      867.239
10/13/2014  08:53:00       33.337        1.253       34.622       40.892       27.392       30.306     1672.144      750.314      918.464        0.283        0.167       33.360       22.087        0.438      338.425       11.068      867.242
10/13/2014  08:54:00       26.409      -77.184        2.902       38.522       45.075       42.380     1483.956     2031.743     1796.079        0.599        0.266       81.577       29.317        0.129      338.135       10.581      867.256
10/13/2014  08:55:00       14.478       -3.175       26.320       29.968       37.428       30.653      898.082     1400.850      939.578        0.207        0.162       14.822       10.161        0.470      338.591       11.346      867.262
10/13/2014  08:56:00       20.563       18.667       44.170       23.362       35.380       19.342      545.777     1251.753      374.110        0.245        0.109       27.772       16.914        0.371      338.440       11.094      867.271
10/13/2014  08:57:00       -6.731       42.192       61.950       25.297       33.443       25.067      639.931     1118.462      628.339        0.402        0.119       42.725       23.288        0.297      338.398       11.022      867.280
10/13/2014  08:58:00       -2.854      -27.624      -11.528       33.682       28.815       22.033     1134.469      830.305      485.453        0.168        0.123       27.771       17.138        0.381      338.132       10.576      867.281
10/13/2014  08:59:00        3.218       -2.655        5.397       34.826       37.114       26.546     1212.834     1377.472      704.678        0.167        0.165        4.172       22.001       27.807      338.393       11.013      867.289
10/13/2014  09:00:00        4.158      -46.485        8.616       34.919       37.165       25.055     1219.333     1381.250      627.730        0.274        0.161       46.671       18.945        0.165      338.429       11.074      867.298
10/13/2014  09:01:00      -59.174      -46.929       -8.051       46.265       26.137       23.838     2140.416      683.162      568.238        0.458        0.170       75.524       12.730        0.028      338.236       10.751      867.313
10/13/2014  09:02:00      -42.125      -47.954        4.657       41.478       33.288       24.402     1720.455     1108.095      595.470        0.376        0.171       63.829       27.386        0.184      338.056       10.448      867.322
10/13/2014  09:03:00      -71.308      -46.367        6.825       55.181       37.442       29.132     3044.939     1401.910      848.658        0.629        0.265       85.058       22.450        0.070      338.029       10.403      867.315
10/13/2014  09:04:00      -76.806      -56.901       -0.371       33.830       34.078       17.412     1144.481     1161.320      303.170        0.587        0.130       95.587       13.368        0.020      337.955       10.279      867.315
10/13/2014  09:05:00      -77.454      -42.141       -0.863       36.125       32.074       21.178     1305.011     1028.733      448.504        0.528        0.139       88.176       18.890        0.046      338.066       10.464      867.313
10/13/2014  09:06:00      -63.680      -35.542       -3.742       49.237       32.666       20.631     2424.267     1067.075      425.625        0.462        0.196       72.927       20.336        0.078      338.136       10.583      867.311
10/13/2014  09:07:00      -28.180      -10.431        2.269       38.672       31.093       16.270     1495.546      966.745      264.723        0.182        0.136       30.049       10.552        0.123      338.398       11.022      867.308
10/13/2014  09:08:00       -8.195       18.135       25.509       17.314       23.932       33.844      299.775      572.748     1145.394        0.153        0.101       19.901       20.993        1.113      338.717       11.559      867.299
10/13/2014  09:09:00       -7.818       -4.434       19.582       30.302       23.679       32.369      918.216      560.701     1047.758        0.150        0.126        8.988       25.804        8.242      338.650       11.445      867.279
10/13/2014  09:10:00      -16.133       25.750       43.740       35.271       25.741       24.620     1244.074      662.595      606.140        0.267        0.126       30.386       16.555        0.297      338.670       11.480      867.267
10/13/2014  09:11:00      -47.266      -14.649        1.150       29.969       22.481       16.135      898.153      505.415      260.330        0.206        0.083       49.485       14.560        0.087      338.295       10.850      867.260
10/13/2014  09:12:00      -59.860      -63.885      -10.383       22.865       28.594       17.742      522.813      817.590      314.784        0.471        0.083       87.547        7.663        0.008      338.166       10.632      867.261
10/13/2014  09:13:00      -33.201        4.815       15.176       19.926       15.547       20.176      397.052      241.709      407.060        0.120        0.052       33.548       12.236        0.133      338.575       11.319      867.274
10/13/2014  09:14:00      -22.657       14.375       27.628       19.495       24.993       22.601      380.049      624.644      510.786        0.150        0.076       26.832       17.601        0.430      338.832       11.753      867.282
10/13/2014  09:15:00      -11.000      -10.547       29.707       23.216       27.072       23.190      538.976      732.910      537.753        0.146        0.090       15.239       16.140        1.122      339.161       12.305      867.297
10/13/2014  09:16:00        4.210       24.444       36.935       20.938       21.560       24.974      438.411      464.833      623.718        0.175        0.076       24.804       19.528        0.620      339.072       12.157      867.301
10/13/2014  09:17:00      -16.433       20.236       15.214       17.754       19.808       20.384      315.201      392.373      415.499        0.102        0.056       26.069        7.132        0.075      338.937       11.929      867.286
10/13/2014  09:18:00      -46.714      -27.114        3.739       35.113       26.939       24.188     1232.898      725.686      585.047        0.274        0.127       54.012       16.034        0.088      338.545       11.269      867.283
10/13/2014  09:19:00      -53.668      -21.755        2.637       53.647       32.191       19.935     2878.049     1036.242      397.402        0.384        0.216       57.909       25.811        0.199      338.859       11.798      867.280
10/13/2014  09:20:00      -54.501      -36.285        2.295       30.956       29.352       16.234      958.298      861.511      263.555        0.319        0.104       65.475       12.597        0.037      338.573       11.318      867.270
10/13/2014  09:21:00      -71.424      -75.372       -9.321       26.899       32.296       21.152      723.541     1043.028      447.407        0.654        0.111      103.838       13.234        0.016      338.458       11.124      867.250
10/13/2014  09:22:00      -52.898      -69.439      -19.416       33.092       22.415       19.185     1095.063      502.447      368.060        0.498        0.098       87.292       17.430        0.040      338.530       11.243      867.241
10/13/2014  09:23:00      -48.412      -53.861       -2.815       10.505       19.004       10.700      110.357      361.135      114.495        0.292        0.029       72.421        6.626        0.008      338.435       11.085      867.233
10/13/2014  09:24:00      -40.505      -28.540        1.637       23.683       24.200       14.741      560.887      585.647      217.305        0.191        0.068       49.550       14.690        0.088      338.667       11.475      867.237
10/13/2014  09:25:00      -42.286      -27.137       -1.968       20.207       16.899       11.150      408.309      285.579      124.327        0.167        0.041       50.245       11.529        0.053      338.692       11.517      867.249
10/13/2014  09:26:00      -19.618      -21.707       -0.028       10.620       14.542        8.162      112.789      211.461       66.612        0.062        0.020       29.258        5.946        0.041      338.651       11.446      867.260
10/13/2014  09:27:00      -60.069      -38.946       -1.779       28.553       22.942       14.091      815.283      526.323      198.556        0.333        0.077       71.589       10.805        0.023      338.717       11.558      867.271
10/13/2014  09:28:00      -44.442      -23.067        3.768       34.882       22.137       16.943     1216.733      490.048      287.058        0.226        0.100       50.072       17.717        0.125      338.888       11.845      867.277
10/13/2014  09:29:00      -31.658      -29.120        3.992       35.874       25.465       15.728     1286.954      648.479      247.363        0.202        0.109       43.013       16.030        0.139      338.936       11.928      867.270
10/13/2014  09:30:00        4.325      -25.247       14.390       20.437       22.471       19.192      417.687      504.926      368.334        0.108        0.065       25.615       12.253        0.229      339.134       12.259      867.251
10/13/2014  09:31:00       -3.400      -22.396        4.660       23.289       24.355       24.024      542.371      593.177      577.130        0.112        0.086       22.652       17.419        0.591      338.985       12.009      867.239
10/13/2014  09:32:00      -10.323      -91.420      -11.269       25.231       26.417       17.527      636.602      697.843      307.190        0.512        0.082       92.001        8.989        0.010      338.703       11.535      867.223
10/13/2014  09:33:00      -16.380      -77.993       -3.129       15.904       23.688       13.940      252.934      561.143      194.318        0.368        0.050       79.694        3.378        0.002      338.687       11.508      867.219
10/13/2014  09:34:00      -11.203      -51.810       -3.970       12.204       15.546       17.726      148.940      241.683      314.197        0.177        0.035       53.007        8.145        0.024      338.800       11.697      867.212
10/13/2014  09:35:00      -10.495      -45.642       -4.449       13.838       12.789       14.754      191.499      163.568      217.678        0.139        0.029       46.834        9.033        0.037      338.790       11.679      867.200
10/13/2014  09:36:00       17.602       -1.719        2.701       18.855       35.319       25.197      355.514     1247.410      634.887        0.128        0.112       17.685       20.049        1.285      339.209       12.386      867.178
10/13/2014  09:37:00       -5.234       93.299       -9.673       18.302       43.301       19.538      334.961     1874.957      381.733        0.571        0.130       93.446       20.728        0.049      339.117       12.231      867.162
10/13/2014  09:38:00       36.612       60.077        1.547       25.829       38.970       25.180      667.117     1518.652      634.022        0.389        0.141       70.354       19.000        0.073      339.295       12.530      867.137
10/13/2014  09:39:00       12.342       59.391        7.907       36.123       39.723       21.171     1304.865     1577.910      448.221        0.354        0.167       60.660       17.059        0.079      339.470       12.825      867.116
10/13/2014  09:40:00       10.195       96.310       -6.861       31.133       28.295       23.451      969.235      800.614      549.936        0.587        0.116       96.848       12.894        0.018      339.330       12.590      867.106
10/13/2014  09:41:00        5.614       59.552        0.226       25.940       32.369       20.873      672.875     1047.756      435.667        0.287        0.108       59.816       19.354        0.105      339.669       13.161      867.122
10/13/2014  09:42:00      -10.589       31.105       11.379       17.371       35.247       20.606      301.746     1242.335      424.621        0.159        0.098       32.858       19.975        0.370      339.803       13.387      867.139
10/13/2014  09:43:00      -10.552       53.125       -1.226       16.411       35.687       20.529      269.330     1273.563      421.449        0.245        0.098       54.163       19.016        0.123      339.538       12.940      867.156
10/13/2014  09:44:00      -11.751       68.779        0.429       17.531       26.098       26.228      307.345      681.104      687.931        0.327        0.084       69.775       18.097        0.067      339.597       13.040      867.175
10/13/2014  09:45:00       28.820       35.946       18.895       22.262       18.525       23.820      495.614      343.189      567.378        0.194        0.070       46.072       14.209        0.095      339.597       13.039      867.185
10/13/2014  09:46:00       61.932       32.287        5.859       39.271       30.225       25.174     1542.197      913.572      633.749        0.400        0.154       69.843       15.416        0.049      339.296       12.532      867.178
10/13/2014  09:47:00       23.006       58.566        2.232       38.224       35.956       23.858     1461.089     1292.809      569.182        0.364        0.166       62.922       16.279        0.067      339.712       13.235      867.172
10/13/2014  09:48:00        8.854       60.456       -1.187       21.842       32.037       26.032      477.070     1026.370      677.677        0.296        0.109       61.101       24.582        0.162      339.578       13.007      867.167
10/13/2014  09:49:00      -25.149       63.588       -0.113       16.041       27.642       21.237      257.321      764.091      451.024        0.307        0.074       68.380       16.385        0.057      339.717       13.241      867.160
10/13/2014  09:50:00      -13.078       16.403       -2.494       20.263       36.652       20.585      410.600     1343.393      423.722        0.131        0.109       20.978       15.046        0.514      339.553       12.966      867.149
10/13/2014  09:51:00       30.452       66.513       -2.400       33.459       35.304       29.250     1119.525     1246.389      855.552        0.429        0.161       73.153       25.894        0.125      339.768       13.327      867.126
10/13/2014  09:52:00       51.898       42.813        8.896       34.619       24.030       28.648     1198.504      577.422      820.722        0.360        0.130       67.278       20.496        0.093      339.583       13.016      867.104
10/13/2014  09:53:00       25.589       75.445       -5.192       33.516       41.849       21.236     1123.324     1751.344      450.961        0.485        0.166       79.666       24.244        0.093      339.672       13.166      867.082
10/13/2014  09:54:00       17.613       67.529        4.241       27.661       45.451       31.642      765.153     2065.791     1001.232        0.436        0.192       69.788       32.803        0.221      339.852       13.471      867.074
10/13/2014  09:55:00       47.830       21.578       -6.602       24.397       31.395       17.965      595.230      985.643      322.729        0.235        0.095       52.472       11.322        0.047      339.521       12.909      867.059
10/13/2014  09:56:00       51.256       44.331        3.729       34.900       30.581       30.198     1218.043      935.208      911.918        0.384        0.153       67.768       19.731        0.085      339.642       13.116      867.049
10/13/2014  09:57:00       31.983       23.700       22.492       35.907       14.147       22.931     1289.282      200.138      525.848        0.205        0.101       39.807       10.730        0.073      339.859       13.481      867.043
10/13/2014  09:58:00       60.516       55.514        2.232       19.236       22.540       23.643      370.018      508.057      559.004        0.409        0.072       82.122       14.322        0.030      339.779       13.347      867.029
10/13/2014  09:59:00       47.046       56.997       24.708       26.879       17.591       24.301      722.456      309.427      590.529        0.385        0.081       73.905       15.109        0.042      339.587       13.023      867.031
10/13/2014  10:00:00        9.524       36.205       45.316       17.469       20.634       16.596      305.171      425.767      275.429        0.223        0.050       37.437        9.860        0.069      340.024       13.761      867.035
10/13/2014  10:01:00       44.005       31.398       11.965       23.205       20.618       22.366      538.487      425.089      500.242        0.226        0.073       54.058       13.569        0.063      339.955       13.644      867.027
10/13/2014  10:02:00      -12.267       78.084       -8.075       18.518       35.530       20.310      342.910     1262.387      412.511        0.416        0.101       79.041       20.870        0.070      339.958       13.649      867.020
10/13/2014  10:03:00      -11.875       68.816       -2.819       19.297       36.159       21.109      372.380     1307.476      445.587        0.350        0.106       69.833       14.286        0.042      340.371       14.346      866.997
10/13/2014  10:04:00      -10.261        9.349       12.063       20.293       22.603       17.467      411.797      510.900      305.079        0.078        0.061       13.881       12.582        0.822      340.601       14.735      866.972
10/13/2014  10:05:00      -25.089        9.349       16.775       22.933       16.493       19.216      525.902      272.014      369.239        0.108        0.058       26.775       14.063        0.276      340.479       14.528      866.952
10/13/2014  10:06:00      -28.919        8.479        4.232       14.316       10.596       16.932      204.959      112.283      286.696        0.076        0.030       30.136       11.491        0.145      340.104       13.895      866.936
10/13/2014  10:07:00      -16.831        5.321       19.876       21.261       11.111       12.954      452.040      123.446      167.811        0.072        0.037       17.652        4.878        0.076      340.933       15.298      866.922
10/13/2014  10:08:00      -61.219      -20.075        6.426       16.426       24.970       13.390      269.811      623.492      179.303        0.263        0.054       64.427       12.021        0.035      339.964       13.659      866.908
10/13/2014  10:09:00      -21.336        9.105        7.042       25.384       20.949       20.052      644.345      438.863      402.080        0.104        0.074       23.197       15.273        0.434      340.432       14.448      866.905
10/13/2014  10:10:00      -58.374      -51.469       -7.148       49.942       38.670       23.586     2494.191     1495.406      556.293        0.533        0.227       77.824       17.695        0.052      339.999       13.717      866.898
10/13/2014  10:11:00      -33.181      -36.605        7.021       64.208       37.912       28.040     4122.687     1437.287      786.258        0.442        0.317       49.406       25.786        0.272      340.085       13.864      866.902
10/13/2014  10:12:00      -74.201      -46.682       -7.758       22.543       19.043       18.771      508.171      362.645      352.339        0.448        0.061       87.664       10.896        0.015      339.937       13.611      866.913
10/13/2014  10:13:00      -33.556      -22.374       27.546       45.153       41.946       24.998     2038.767     1759.484      624.924        0.340        0.221       40.331       28.572        0.502      340.554       14.656      866.911
10/13/2014  10:14:00        2.776       13.938       38.449       31.508       26.644       24.349      992.756      709.903      592.873        0.199        0.115       14.211       16.066        1.278      340.876       15.200      866.898
10/13/2014  10:15:00       27.761      -51.729       19.412       57.352       56.308       44.467     3289.309     3170.640     1977.325        0.613        0.422       58.707       34.916        0.354      340.597       14.728      866.883
10/13/2014  10:16:00       56.272      -37.594       24.798       46.232       54.503       39.738     2137.416     2970.623     1579.142        0.594        0.334       67.675       25.055        0.137      340.513       14.584      866.886
10/13/2014  10:17:00       13.311        1.076       27.613       30.545       34.793       47.988      933.019     1210.552     2302.822        0.269        0.222       13.355       29.567        4.902      340.567       14.677      866.879
10/13/2014  10:18:00       27.836       15.105       56.026       23.411       50.283       28.496      548.067     2528.402      811.995        0.401        0.194       31.671       31.576        0.994      340.518       14.593      866.873
10/13/2014  10:19:00       34.003       -7.617       16.418       34.582       57.390       34.592     1195.893     3293.596     1196.599        0.358        0.284       34.846       37.752        1.174      340.258       14.154      866.865
10/13/2014  10:20:00       76.215      -61.325        8.706       64.453       62.950       43.000     4154.207     3962.735     1849.012        0.980        0.498       97.823       48.269        0.243      340.560       14.665      866.859
10/13/2014  10:21:00       54.339       29.055       10.821       38.464       27.880       35.534     1479.480      777.312     1262.662        0.372        0.176       61.619       24.478        0.158      340.497       14.558      866.843
10/13/2014  10:22:00       49.547       21.191        8.706       45.401       36.405       34.923     2061.279     1325.300     1219.589        0.379        0.230       53.888       22.727        0.178      340.767       15.015      866.815
10/13/2014  10:23:00       95.731       70.398       54.548       58.425       52.648       49.447     3413.443     2771.790     2444.965        1.286        0.432      118.829       41.381        0.121      340.642       14.804      866.796
10/13/2014  10:24:00       70.825       47.759       32.524       61.814       48.899       44.350     3821.014     2391.124     1966.951        0.827        0.409       85.423       30.019        0.123      340.629       14.782      866.784
10/13/2014  10:25:00       45.381       18.639       55.474       60.021       51.920       43.205     3602.577     2695.726     1866.699        0.682        0.408       49.060       45.634        0.865      340.825       15.113      866.777
10/13/2014  10:26:00      100.808       -8.497       49.378       71.815       85.525       55.439     5157.383     7314.598     3073.458        1.411        0.777      101.165       61.800        0.373      340.601       14.734      866.771
10/13/2014  10:27:00       33.559       12.594       41.357       49.660       45.503       33.414     2466.156     2070.561     1116.485        0.432        0.283       35.845       28.939        0.652      340.815       15.097      866.764
10/13/2014  10:28:00       -8.954       26.328       56.173       26.052       59.112       31.796      678.730     3494.187     1010.965        0.456        0.259       27.809       33.849        1.482      341.078       15.541      866.747
10/13/2014  10:29:00       36.640        3.564       42.418       44.708       51.597       44.255     1998.790     2662.241     1958.488        0.489        0.331       36.813       37.978        1.064      341.031       15.461      866.730
10/13/2014  10:30:00       53.824      -74.754       28.531       47.025      114.487       43.998     2211.367    13107.304     1935.829        1.327        0.863       92.115       47.543        0.266      340.913       15.262      866.723
10/13/2014  10:31:00       30.168      -17.830       48.877       42.892      101.168       54.896     1839.760    10235.002     3013.533        0.935        0.754       35.043       59.829        2.915      340.954       15.330      866.727
10/13/2014  10:32:00       66.592     -164.784      -25.044       67.648       57.773       34.506     4576.228     3337.686     1190.644        2.066        0.455      177.731       32.060        0.033      340.506       14.572      866.725
10/13/2014  10:33:00       31.734      -57.950       18.768       42.250       84.190       47.285     1785.062     7087.998     2235.865        0.791        0.555       66.070       56.456        0.730      340.788       15.050      866.739
10/13/2014  10:34:00        0.869      -22.878       30.197       17.068       39.961       26.592      291.314     1596.885      707.111        0.202        0.130       22.894       25.284        1.220      340.963       15.346      866.738
10/13/2014  10:35:00        2.128       -1.017       13.511       42.622       21.226       26.763     1816.642      450.563      716.283        0.159        0.149        2.358       14.085       35.675      341.072       15.531      866.746
10/13/2014  10:36:00        7.335       26.408       24.118       25.516       29.954       23.843      651.058      897.235      568.469        0.172        0.106       27.408       12.946        0.223      341.146       15.656      866.753
10/13/2014  10:37:00      -14.896      -29.308        9.142       24.848       40.986       22.511      617.430     1679.817      506.767        0.198        0.140       32.876       23.106        0.494      340.858       15.170      866.763
10/13/2014  10:38:00       -3.481       10.121       44.811       27.160       36.218       30.396      737.662     1311.743      923.944        0.255        0.149       10.703       20.166        3.550      341.350       16.001      866.754
10/13/2014  10:39:00      -36.614      -12.582       11.776       38.140       41.923       27.652     1454.656     1757.557      764.622        0.281        0.199       38.715       28.188        0.530      341.230       15.798      866.749
10/13/2014  10:40:00       22.145      -30.133       23.108       56.777       81.852       34.205     3223.602     6699.814     1169.966        0.651        0.555       37.396       23.531        0.396      341.222       15.786      866.743
10/13/2014  10:41:00       54.705       26.793       51.576       48.803       73.587       46.524     2381.695     5415.038     2164.489        0.816        0.498       60.914       41.847        0.472      340.855       15.163      866.745
10/13/2014  10:42:00       55.653       38.924       26.383       36.771       26.091       33.412     1352.086      680.727     1116.370        0.423        0.157       67.915        9.471        0.019      340.865       15.180      866.748
10/13/2014  10:43:00       31.782       41.972       30.653       44.325       38.555       21.512     1964.689     1486.513      462.753        0.381        0.196       52.647       22.459        0.182      340.939       15.307      866.729
10/13/2014  10:44:00       13.720      -27.650       20.541       23.628       51.778       36.784      558.278     2681.008     1353.092        0.298        0.230       30.867       37.443        1.472      341.032       15.464      866.728
10/13/2014  10:45:00       17.107      -30.130       24.253       56.264       47.767       48.893     3165.665     2281.654     2390.536        0.481        0.392       34.648       34.369        0.984      340.955       15.333      866.702
10/13/2014  10:46:00       33.132        1.534       29.086       73.104       58.626       44.612     5344.160     3436.963     1990.225        0.636        0.539       33.168       46.818        1.992      341.097       15.575      866.692
10/13/2014  10:47:00       41.742        5.970       34.931       49.276       55.710       44.194     2428.149     3103.628     1953.136        0.524        0.374       42.167       34.126        0.655      341.021       15.445      866.657
10/13/2014  10:48:00       32.476      -84.587        2.933       66.240       76.379       47.656     4387.705     5833.757     2271.105        1.035        0.625       90.607       38.995        0.185      340.969       15.357      866.637
10/13/2014  10:49:00       78.695     -150.228      -15.295       55.369       56.807       45.563     3065.767     3226.991     2075.968        1.868        0.418      169.592       34.341        0.041      340.873       15.192      866.630
10/13/2014  10:50:00       46.347      -28.139        0.432       57.330       62.991       31.526     3286.759     3967.822      993.917        0.559        0.412       54.221       37.078        0.468      340.998       15.406      866.619
10/13/2014  10:51:00        3.301      -27.985        6.980       35.957       41.764       24.681     1292.886     1744.242      609.131        0.224        0.182       28.179       14.264        0.256      340.844       15.146      866.598
10/13/2014  10:52:00       40.500      -19.263       25.015       47.201       40.908       30.816     2227.965     1673.493      949.653        0.374        0.243       44.848       28.722        0.410      340.997       15.404      866.601
10/13/2014  10:53:00      -22.859      -36.672        6.299       41.712       42.424       26.089     1739.922     1799.798      680.622        0.306        0.211       43.212       11.071        0.066      341.234       15.806      866.595
10/13/2014  10:54:00      -50.818      -69.439        0.664       47.873       41.097       29.010     2291.870     1688.981      841.601        0.611        0.241       86.048       23.665        0.076      341.261       15.850      866.615
10/13/2014  10:55:00       -6.772       -8.854       35.531       30.222       36.308       27.877      913.347     1318.260      777.138        0.220        0.150       11.147       15.652        1.972      341.823       16.804      866.626
10/13/2014  10:56:00      -12.779       31.995       22.274       40.264       37.085       28.798     1621.199     1375.308      829.351        0.275        0.191       34.452       23.093        0.449      341.445       16.163      866.637
10/13/2014  10:57:00       54.787       45.546       34.994       61.721       36.394       33.691     3809.529     1324.504     1135.060        0.628        0.313       71.246       27.399        0.148      341.048       15.491      866.646
10/13/2014  10:58:00      -26.783       20.149       10.911       49.459       28.130       25.471     2446.231      791.302      648.780        0.256        0.194       33.516       26.741        0.637      341.248       15.829      866.637
10/13/2014  10:59:00      -27.409       -2.875        4.998       25.864       43.845       21.631      668.954     1922.384      467.898        0.192        0.153       27.560       16.961        0.379      341.333       15.973      866.619
10/13/2014  11:00:00      -23.688      -16.609       13.807       25.489       23.438       18.166      649.713      549.338      330.003        0.128        0.076       28.931       13.661        0.223      341.480       16.221      866.590
10/13/2014  11:01:00      -46.672      -78.236       -4.990       27.550       31.125       19.625      758.988      968.758      385.154        0.522        0.106       91.100       12.308        0.018      340.949       15.322      866.566
10/13/2014  11:02:00        2.515       -0.986       21.274       28.571       32.189       19.776      816.317     1036.111      391.099        0.135        0.112        2.701       22.370       68.600      341.560       16.357      866.537
10/13/2014  11:03:00       45.450      -52.787       12.975       68.449       72.783       42.582     4685.282     5297.344     1813.202        0.841        0.590       69.657       44.464        0.407      341.453       16.177      866.514
10/13/2014  11:04:00       36.077      -14.414       26.056       50.225       55.782       35.581     2522.523     3111.591     1266.037        0.454        0.345       38.850       32.947        0.719      341.547       16.335      866.479
10/13/2014  11:05:00       41.482      -15.069       25.968       45.683       55.438       48.019     2086.981     3073.382     2305.779        0.504        0.373       44.135       40.853        0.857      341.654       16.517      866.449
10/13/2014  11:06:00      -14.702       -8.816       31.568       46.149       42.942       36.915     2129.703     1844.044     1362.706        0.331        0.267       17.143       32.231        3.535      341.774       16.722      866.415
10/13/2014  11:07:00      -35.418      -71.179       11.521       59.534       44.449       44.133     3544.356     1975.673     1947.685        0.696        0.373       79.504       18.461        0.054      341.663       16.531      866.400
10/13/2014  11:08:00       40.197     -123.765      -23.637       77.846       71.962       35.485     6060.037     5178.579     1259.158        1.499        0.625      130.129       36.063        0.077      341.417       16.113      866.372
10/13/2014  11:09:00       36.469      -14.456       46.067       47.316       75.384       47.810     2238.821     5682.726     2285.790        0.693        0.510       39.230       56.234        2.055      341.417       16.116      866.362
10/13/2014  11:10:00       51.030        1.514       29.755       38.630       33.896       33.881     1492.257     1148.956     1147.922        0.364        0.189       51.053       24.856        0.237      341.252       15.836      866.334
10/13/2014  11:11:00       -8.984      -10.088       38.435       21.690       62.691       40.802      470.462     3930.124     1664.790        0.386        0.303       13.509       45.820       11.505      341.809       16.779      866.316
10/13/2014  11:12:00      -21.739      -36.423        2.657       47.334       30.480       34.358     2240.476      929.019     1180.466        0.308        0.217       42.417       22.153        0.273      341.575       16.382      866.297
10/13/2014  11:13:00      -19.723      -20.981       41.493       18.286       51.438       23.800      334.368     2645.875      566.429        0.305        0.177       28.795       20.941        0.529      341.913       16.956      866.293
10/13/2014  11:14:00      -41.930      -40.317        1.931       41.929       24.647       24.934     1758.005      607.467      621.684        0.319        0.149       58.169       22.515        0.150      341.615       16.452      866.291
10/13/2014  11:15:00      -44.360      -86.741        1.065       39.890       51.186       19.951     1591.200     2620.030      398.049        0.705        0.230       97.426       20.059        0.042      341.326       15.961      866.289
10/13/2014  11:16:00       -2.834      -38.332        0.144       42.786       29.184       20.872     1830.617      851.687      435.657        0.230        0.156       38.437       10.738        0.078      341.662       16.531      866.288
10/13/2014  11:17:00      -19.550      -25.900      -13.733       26.510       22.671       22.562      702.796      513.990      509.023        0.148        0.086       32.450        7.687        0.056      341.530       16.307      866.269
10/13/2014  11:18:00       14.788       18.164       21.205       37.779       32.375       38.588     1427.268     1048.135     1489.032        0.248        0.198       23.422       19.169        0.670      342.013       17.125      866.250
10/13/2014  11:19:00       12.503       47.391       70.156       41.220       43.330       42.601     1699.124     1877.478     1814.856        0.636        0.270       49.012       33.365        0.463      342.048       17.185      866.210
10/13/2014  11:20:00        3.522       69.152       88.611       32.957       53.583       42.790     1086.148     2871.095     1831.010        0.922        0.289       69.242       40.209        0.337      341.797       16.759      866.184
10/13/2014  11:21:00      131.251       88.238       45.842       42.123       35.143       34.039     1774.348     1234.996     1158.675        1.564        0.208      158.155       21.875        0.019      341.562       16.361      866.143
10/13/2014  11:22:00      108.295       81.358       22.619       51.668       37.644       49.664     2669.564     1417.034     2466.498        1.270        0.328      135.451       34.111        0.063      341.392       16.074      866.101
10/13/2014  11:23:00       22.743       30.993       10.795       62.544       48.245       30.907     3911.776     2327.597      955.271        0.439        0.360       38.442       26.756        0.484      341.460       16.187      866.050
10/13/2014  11:24:00       55.513      -12.118       57.358       62.107       99.261       63.524     3857.333     9852.784     4035.249        1.213        0.887       56.821       53.242        0.878      341.747       16.674      866.025
10/13/2014  11:25:00       18.791       44.578       88.999       40.051       56.762       43.936     1604.055     3221.936     1930.378        0.851        0.338       48.377       34.256        0.501      341.722       16.632      866.005
10/13/2014  11:26:00       15.337       69.777      104.396       50.526       48.412       36.304     2552.880     2343.697     1317.953        1.111        0.311       71.443       36.281        0.258      341.604       16.432      866.007
10/13/2014  11:27:00       20.739       32.802       58.728       38.096       35.248       31.868     1451.286     1242.438     1015.559        0.433        0.185       38.809       15.822        0.166      341.678       16.559      866.015
10/13/2014  11:28:00       29.877       14.133       49.012       40.307       35.577       26.561     1624.666     1265.690      705.501        0.354        0.180       33.051       13.800        0.174      341.741       16.666      866.018
10/13/2014  11:29:00       33.089       36.054       64.195       34.907       35.643       24.653     1218.524     1270.430      607.772        0.481        0.155       48.936       11.459        0.055      341.836       16.825      866.017
10/13/2014  11:30:00       -9.078       21.591       42.203       25.046       23.211       25.321      627.291      538.733      641.140        0.207        0.090       23.422       14.510        0.384      342.227       17.490      866.011
10/13/2014  11:31:00       28.302       19.319       33.175       33.753       28.319       38.693     1139.248      801.967     1497.174        0.286        0.172       34.267       27.800        0.658      341.747       16.675      866.011
10/13/2014  11:32:00        3.386       25.403      -10.902       13.590       22.868       15.972      184.691      522.936      255.102        0.087        0.048       25.628       10.430        0.166      341.629       16.473      866.002
10/13/2014  11:33:00        3.227       10.444       27.723       19.108       17.880       13.623      365.105      319.698      185.582        0.088        0.044       10.931        8.062        0.544      342.487       17.932      865.989
10/13/2014  11:34:00        9.365        3.469       11.157       16.922       17.352       21.687      286.346      301.087      470.338        0.064        0.053        9.987       14.828        2.205      342.234       17.502      865.964
10/13/2014  11:35:00       34.320       11.594       21.800       25.417       24.711       28.374      646.002      610.609      805.084        0.192        0.103       36.226       12.942        0.128      341.775       16.721      865.944
10/13/2014  11:36:00       -3.913       -3.375       18.245       18.204       34.754       28.048      331.394     1207.833      786.678        0.134        0.116        5.167       18.316       12.565      342.167       17.387      865.926
10/13/2014  11:37:00       12.605      -57.912       14.225       49.321       52.679       46.714     2432.597     2775.125     2182.206        0.555        0.369       59.268       40.672        0.471      342.319       17.646      865.902
10/13/2014  11:38:00       40.624       14.384       60.521       55.090       50.228       46.444     3034.887     2522.846     2157.058        0.662        0.386       43.096       22.958        0.284      342.303       17.619      865.891
10/13/2014  11:39:00       66.521     -110.429        7.954       54.346       61.584       45.039     2953.504     3792.548     2028.507        1.273        0.439      128.917       31.067        0.058      341.953       17.025      865.889
10/13/2014  11:40:00       78.205      -67.192       -9.416       61.047       52.923       38.633     3726.679     2800.839     1492.510        0.937        0.401      103.106       28.579        0.077      342.062       17.209      865.882
10/13/2014  11:41:00        3.555       -9.541       41.445       36.874       71.825       39.869     1359.694     5158.783     1589.564        0.496        0.405       10.182       42.189       17.169      342.315       17.639      865.873
10/13/2014  11:42:00       12.237       12.191       46.819       41.175       54.004       34.965     1695.380     2916.474     1222.557        0.416        0.292       17.273       37.714        4.767      342.447       17.864      865.866
10/13/2014  11:43:00       15.175      -16.316       42.552       26.721       43.303       36.103      714.034     1875.126     1303.402        0.310        0.195       22.282       35.388        2.522      342.475       17.911      865.850
10/13/2014  11:44:00        3.734      -34.886       -4.363       36.314       57.717       30.118     1318.702     3331.242      907.105        0.340        0.278       35.085       21.934        0.391      342.305       17.621      865.838
10/13/2014  11:45:00       -8.155      -46.431       22.210       28.763       47.790       30.169      827.295     2283.926      910.140        0.337        0.201       47.142       25.486        0.292      342.428       17.832      865.810
10/13/2014  11:46:00       18.214      -47.708       -3.515       32.511       27.215       24.597     1056.980      740.651      605.032        0.251        0.120       51.066       16.937        0.110      341.712       16.617      865.805
10/13/2014  11:47:00       13.912      -52.163        6.063       46.380       38.750       29.060     2151.077     1501.564      844.474        0.372        0.225       53.986       20.098        0.139      341.995       17.096      865.786
10/13/2014  11:48:00       11.271      -85.320       24.711       39.604       54.929       53.014     1568.480     3017.222     2810.504        0.771        0.370       86.061       18.425        0.046      342.558       18.051      865.761
10/13/2014  11:49:00       14.593      -16.399       23.588       46.332       68.136       39.052     2146.610     4642.551     1525.023        0.467        0.416       21.952       37.990        2.995      342.378       17.747      865.772
10/13/2014  11:50:00       38.828      -16.306       38.913       56.408       75.597       53.361     3181.873     5714.899     2847.370        0.751        0.587       42.113       59.769        2.014      342.280       17.581      865.773
10/13/2014  11:51:00       66.021       -1.686       33.484       35.576       26.032       33.192     1265.635      677.676     1101.707        0.426        0.152       66.043       20.326        0.095      341.825       16.807      865.778
10/13/2014  11:52:00       34.526       16.485        9.441       18.272       23.393       17.220      333.880      547.232      296.537        0.137        0.059       38.260        6.684        0.031      341.769       16.711      865.777
10/13/2014  11:53:00       27.785      -10.829       13.448       29.296       13.243       23.271      858.261      175.365      541.522        0.132        0.079       29.821       16.769        0.316      342.223       17.483      865.764
10/13/2014  11:54:00       10.181       15.273       11.478       20.920       18.861       20.896      437.627      355.752      436.646        0.085        0.062       18.356       11.373        0.384      342.129       17.325      865.744
10/13/2014  11:55:00        0.843        0.011        7.259       34.377       31.181       22.504     1181.783      972.247      506.412        0.136        0.133        0.843       17.536      432.231      342.258       17.542      865.728
10/13/2014  11:56:00       16.507      -34.813       -0.317       32.802       28.244       23.529     1075.957      797.698      553.600        0.196        0.121       38.528       14.144        0.135      341.808       16.776      865.704
10/13/2014  11:57:00        2.056       -4.646        7.226       23.232       37.075       28.711      539.747     1374.592      824.294        0.141        0.137        5.080       20.256       15.897      342.425       17.825      865.675
10/13/2014  11:58:00      -25.576       32.892      -14.585       22.763       22.289       15.462      518.175      496.781      239.061        0.160        0.063       41.665       13.548        0.106      342.382       17.754      865.655
10/13/2014  11:59:00       32.002       21.756        7.882       19.954       20.651       16.111      398.154      426.471      259.562        0.132        0.054       38.697       10.786        0.078      342.643       18.197      865.645
10/13/2014  12:00:00        5.164      -18.618        6.203       16.115       20.657       14.350      259.682      426.728      205.919        0.065        0.045       19.321        9.277        0.231      342.498       17.949      865.628
10/13/2014  12:01:00        3.222       -4.548       32.414       27.044       36.276       17.888      731.358     1315.912      319.967        0.172        0.118        5.574        9.897        3.153      342.838       18.528      865.613
10/13/2014  12:02:00       36.395      -46.049        0.289       30.153       66.228       37.987      909.225     4386.214     1442.993        0.509        0.337       58.695       35.222        0.360      342.380       17.748      865.607
10/13/2014  12:03:00       95.855       38.632        6.931       41.491       30.556       31.091     1721.531      933.645      966.635        0.717        0.181      103.347       22.443        0.047      342.267       17.556      865.590
10/13/2014  12:04:00       52.421       43.949       10.664       40.169       32.618       31.976     1613.528     1063.930     1022.441        0.425        0.185       68.407       23.682        0.120      342.398       17.780      865.587
10/13/2014  12:05:00       44.259      -52.349       -8.561       39.636       92.588       26.343     1571.050     8572.524      693.938        0.780        0.542       68.551       24.186        0.124      342.225       17.486      865.585
10/13/2014  12:06:00       60.156      -77.198       -0.551       45.227       56.064       37.911     2045.475     3143.172     1437.266        0.810        0.331       97.868       32.654        0.111      342.246       17.523      865.590
10/13/2014  12:07:00       39.928      -70.624      -14.383       44.006       41.157       29.073     1936.558     1693.936      845.268        0.563        0.224       81.129       12.005        0.022      342.257       17.539      865.602
10/13/2014  12:08:00       11.543      -95.991        3.509       54.466       31.483       30.435     2966.533      991.199      926.296        0.712        0.244       96.682       12.593        0.017      342.597       18.118      865.609
10/13/2014  12:09:00       62.274      -60.169       -0.890       43.264       54.723       39.728     1871.799     2994.577     1578.328        0.697        0.322       86.593       44.639        0.266      342.598       18.119      865.614
10/13/2014  12:10:00       26.585      -38.205       14.549       22.974       47.354       37.492      527.810     2242.408     1405.654        0.328        0.209       46.544       29.635        0.405      342.490       17.938      865.612
10/13/2014  12:11:00        6.323      -54.657       -6.143       17.187       22.623       24.248      295.399      511.812      587.957        0.223        0.070       55.022       15.058        0.075      342.390       17.767      865.588
10/13/2014  12:12:00      -53.952      -15.473       -3.317       33.854       35.112       16.875     1146.069     1232.867      284.779        0.291        0.133       56.127       17.116        0.093      342.727       18.339      865.573
10/13/2014  12:13:00      -79.510      -61.985       -4.671       53.936       40.565       24.429     2909.039     1645.511      596.788        0.767        0.258      100.817       23.955        0.056      342.594       18.113      865.555
10/13/2014  12:14:00      -54.778      -57.585       -0.002       39.608       31.703       21.806     1568.799     1005.109      475.513        0.468        0.152       79.477       19.810        0.062      342.567       18.067      865.534
10/13/2014  12:15:00      -20.661      -38.987       11.926       27.814       31.638       21.658      773.609     1000.953      469.061        0.217        0.112       44.123       19.127        0.188      342.763       18.401      865.501
10/13/2014  12:16:00       26.741       33.190       30.692       25.692       17.963       24.451      660.083      322.686      597.865        0.217        0.079       42.622        8.266        0.038      342.895       18.624      865.466
10/13/2014  12:17:00       58.207       28.352        5.427       19.016       23.900       20.011      361.623      571.194      400.439        0.278        0.067       64.744        6.504        0.010      342.523       17.991      865.445
10/13/2014  12:18:00       28.598       -0.406       19.695       32.652       25.614       23.170     1066.122      656.082      536.832        0.173        0.113       28.601       11.238        0.154      342.548       18.036      865.418
10/13/2014  12:19:00       29.430        4.840        5.985       19.361       32.010       27.916      374.845     1024.616      779.314        0.155        0.109       29.825       15.755        0.279      342.597       18.118      865.399
10/13/2014  12:20:00       13.117       -8.454       -2.669       32.009       21.162       12.779     1024.597      447.820      163.314        0.094        0.082       15.605        9.279        0.354      342.595       18.114      865.389
10/13/2014  12:21:00      -21.797       20.313       32.323       29.775       17.186       13.378      886.559      295.366      178.962        0.165        0.068       29.795       14.130        0.225      343.138       19.038      865.392
10/13/2014  12:22:00       15.852       -7.635       11.257       32.967       15.062       20.056     1086.837      226.872      402.245        0.108        0.086       17.595       14.711        0.699      343.044       18.880      865.375
10/13/2014  12:23:00      -18.271      -35.267       12.702       40.237       17.156       23.899     1619.005      294.320      571.179        0.211        0.124       39.719       26.422        0.443      343.002       18.807      865.348
10/13/2014  12:24:00       30.898        2.342       21.528       19.421       15.650       17.569      377.166      244.933      308.684        0.118        0.047       30.987       10.050        0.105      343.083       18.945      865.327
10/13/2014  12:25:00       64.565      -80.599        4.401       40.949       50.682       27.042     1676.829     2568.676      731.250        0.783        0.249      103.270       22.287        0.047      343.068       18.920      865.291
10/13/2014  12:26:00        9.523      -37.831       11.960       31.042       42.083       33.377      963.602     1770.942     1114.020        0.276        0.192       39.011       18.355        0.221      343.412       19.506      865.244
10/13/2014  12:27:00       45.731       13.740       37.253       39.692       39.629       37.620     1575.482     1570.441     1415.298        0.411        0.228       47.750       21.855        0.209      343.178       19.106      865.220
10/13/2014  12:28:00       86.076        6.440       10.378       37.064       29.596       31.152     1373.705      875.908      970.448        0.539        0.161       86.316       17.904        0.043      342.576       18.081      865.182
10/13/2014  12:29:00       35.248       27.824       27.517       19.232       19.091       20.975      369.882      364.461      439.946        0.197        0.059       44.906        5.757        0.016      342.995       18.797      865.145
10/13/2014  12:30:00       21.839       15.739       24.938       36.097       24.508       38.387     1302.992      600.638     1473.551        0.236        0.169       26.920       30.505        1.284      343.272       19.267      865.125
10/13/2014  12:31:00       50.522       12.950       35.919       37.437       32.396       31.809     1401.514     1049.507     1011.828        0.374        0.173       52.155       19.884        0.145      342.746       18.371      865.105
10/13/2014  12:32:00        9.452      -23.509       18.144       22.304       37.612       25.714      497.479     1414.650      661.229        0.177        0.129       25.338       20.811        0.675      343.083       18.944      865.107
10/13/2014  12:33:00       21.115       -9.604       16.316       27.340       17.755       19.871      747.452      315.242      394.839        0.113        0.073       23.196       13.009        0.315      343.033       18.861      865.109
10/13/2014  12:34:00       43.710        9.598       13.295       26.458       27.454       23.993      700.013      753.720      575.659        0.210        0.101       44.752       19.005        0.180      342.791       18.448      865.095
10/13/2014  12:35:00        8.423       21.082        8.101       43.586       25.395       22.906     1899.724      644.883      524.671        0.182        0.153       22.702       14.804        0.425      342.777       18.424      865.090
10/13/2014  12:36:00       37.880       18.353        2.944       26.707       18.326       25.090      713.268      335.844      629.489        0.173        0.084       42.091       12.867        0.093      342.987       18.782      865.078
10/13/2014  12:37:00      -26.173       49.793       -7.798       30.444       48.731       23.294      926.844     2374.721      542.613        0.353        0.192       56.253       24.488        0.190      343.289       19.295      865.049
10/13/2014  12:38:00      -52.695       90.987      -13.349       34.640       48.782       28.119     1199.963     2379.662      790.680        0.780        0.219      105.145       18.066        0.030      343.302       19.318      865.043
10/13/2014  12:39:00      -25.947       -3.665       -6.145       35.261       21.161       17.128     1243.321      447.781      293.354        0.135        0.099       26.205        9.345        0.127      343.414       19.510      865.022
10/13/2014  12:40:00      -17.694       36.933       24.545       23.505       36.472       19.444      552.476     1330.235      378.073        0.227        0.113       40.953       12.164        0.088      343.837       20.231      864.994
10/13/2014  12:41:00       -4.648       65.692       -1.070       38.521       33.560       22.061     1483.875     1126.268      486.687        0.372        0.155       65.856       20.874        0.100      343.433       19.542      864.983
10/13/2014  12:42:00      -50.259      119.161      -17.875       22.413       34.616       24.835      502.333     1198.292      616.782        0.968        0.116      129.327       19.401        0.023      343.346       19.393      864.965
10/13/2014  12:43:00       14.423       14.566       26.490       23.589       25.753       17.165      556.443      663.222      294.641        0.132        0.076       20.498       15.872        0.600      344.234       20.908      864.945
10/13/2014  12:44:00       -9.877       77.800       12.935       26.749       31.444       28.557      715.508      988.753      815.527        0.442        0.126       78.424       18.943        0.058      343.805       20.175      864.932
10/13/2014  12:45:00       32.554       43.419        9.725       29.065       22.684       24.668      844.767      514.559      608.496        0.250        0.098       54.267       15.032        0.077      343.920       20.371      864.899
10/13/2014  12:46:00       77.444       49.001       40.182       47.433       37.728       45.717     2249.895     1423.439     2090.084        0.789        0.288       91.645       22.967        0.063      343.758       20.097      864.870
10/13/2014  12:47:00       79.638       83.271        9.151       51.946       44.373       34.175     2698.412     1968.992     1167.941        0.960        0.292      115.223       24.437        0.045      343.655       19.921      864.850
10/13/2014  12:48:00       80.979       56.466        4.315       53.608       33.271       35.018     2873.783     1106.988     1226.282        0.748        0.260       98.721       10.857        0.012      343.696       19.989      864.826
10/13/2014  12:49:00      116.376       50.669       10.620       73.180       50.938       35.198     5355.284     2594.629     1238.880        1.270        0.459      126.928       29.659        0.055      343.647       19.906      864.805
10/13/2014  12:50:00       43.395        9.283       24.630       36.077       33.662       26.546     1301.559     1133.109      704.694        0.286        0.157       44.377       21.955        0.245      343.733       20.053      864.793
10/13/2014  12:51:00       20.208      -44.812        1.940       30.272       32.021       24.245      916.422     1025.375      587.814        0.247        0.126       49.158       22.711        0.213      343.382       19.455      864.779
10/13/2014  12:52:00       20.608       -2.331       -1.279       49.259       45.316       26.850     2426.422     2053.524      720.926        0.282        0.260       20.740       18.424        0.789      343.569       19.775      864.755
10/13/2014  12:53:00      107.111       37.041       22.690       71.016       54.792       36.771     5043.257     3002.179     1352.086        1.138        0.470      113.335       11.504        0.010      344.071       20.630      864.735
10/13/2014  12:54:00      111.850      115.835       -1.244       72.634       79.879       58.778     5275.695     6380.645     3454.816        2.052        0.756      161.022       49.917        0.096      343.738       20.059      864.708
10/13/2014  12:55:00      130.148      111.609       21.385       50.440       43.389       49.736     2544.227     1882.624     2473.621        1.838        0.345      171.450       22.684        0.018      343.799       20.165      864.694
10/13/2014  12:56:00       -0.312       38.360      -32.852       47.845       40.842       29.478     2289.106     1668.057      868.972        0.369        0.241       38.362       17.996        0.220      343.644       19.902      864.682
10/13/2014  12:57:00      -95.211       13.099      -25.970       29.979       38.703       23.092      898.760     1497.916      533.247        0.642        0.146       96.108       14.720        0.023      343.850       20.251      864.645
10/13/2014  12:58:00      -98.953       71.862       -4.412       51.845       49.120       38.154     2687.928     2412.804     1455.721        1.076        0.328      122.294       24.449        0.040      344.027       20.554      864.603
10/13/2014  12:59:00      -75.450      110.522       -2.157       46.529       67.914       39.016     2164.985     4612.364     1522.211        1.310        0.415      133.820       36.706        0.075      344.249       20.933      864.590
10/13/2014  13:00:00      -32.933       64.255       10.674       41.979       63.885       41.633     1762.215     4081.262     1733.286        0.645        0.379       72.203       23.134        0.103      344.516       21.390      864.573
10/13/2014  13:01:00     -150.547      -55.864      -15.376       41.820       38.008       41.419     1748.948     1444.611     1715.544        1.546        0.245      160.577       22.844        0.020      344.068       20.624      864.559
10/13/2014  13:02:00      -51.657       -5.925       -5.720       24.021       19.848       22.322      577.020      393.924      498.250        0.210        0.073       51.996        7.363        0.020      344.106       20.690      864.557
10/13/2014  13:03:00      -30.045        3.710        4.907       17.814       11.945       20.746      317.332      142.693      430.399        0.092        0.045       30.273        9.364        0.096      344.363       21.129      864.517
10/13/2014  13:04:00        2.088        5.551       11.263       20.332       36.379       16.059      413.373     1323.417      257.877        0.108        0.100        5.931       12.037        4.119      344.615       21.561      864.483
10/13/2014  13:05:00       38.992       21.474       19.290       43.749       29.592       26.505     1913.968      875.694      702.508        0.292        0.175       44.514       12.283        0.076      344.754       21.798      864.451
10/13/2014  13:06:00       22.042       33.279       25.387       31.249       46.057       31.628      976.503     2121.215     1000.311        0.317        0.205       39.917       29.477        0.545      344.621       21.571      864.423
10/13/2014  13:07:00       36.297       50.108       46.179       56.733       44.268       46.242     3218.603     1959.669     2138.341        0.664        0.366       61.873       30.304        0.240      344.705       21.714      864.390
10/13/2014  13:08:00       60.790       46.450       12.808       52.299       36.723       35.608     2735.199     1348.544     1267.964        0.568        0.268       76.505       22.894        0.090      344.651       21.621      864.370
10/13/2014  13:09:00       21.121       48.647       21.979       55.357       69.296       44.523     3064.406     4801.967     1982.332        0.657        0.492       53.034       26.616        0.252      344.681       21.672      864.333
10/13/2014  13:10:00      111.443       -0.088       20.256       84.627       97.989       40.127     7161.645     9601.871     1610.140        1.560        0.919      111.443       47.101        0.179      344.473       21.315      864.323
10/13/2014  13:11:00       77.253      -17.011       17.288       71.917       43.553       41.770     5172.008     1896.841     1744.703        0.768        0.441       79.104       28.413        0.129      344.332       21.076      864.309
10/13/2014  13:12:00       57.103      -10.910       22.873       47.563       43.681       24.862     2262.203     1908.032      618.140        0.434        0.239       58.136       22.759        0.153      344.312       21.041      864.284
10/13/2014  13:13:00       26.360       28.171       25.464       55.007       32.903       30.900     3025.723     1082.597      954.820        0.360        0.253       38.581       25.406        0.434      344.638       21.599      864.276
10/13/2014  13:14:00       18.876       63.055        9.505       74.104       39.827       42.238     5491.353     1586.188     1784.042        0.664        0.443       65.820       33.347        0.257      344.696       21.699      864.260
10/13/2014  13:15:00       64.575       70.492       11.866       65.327       49.093       37.747     4267.659     2410.137     1424.811        0.869        0.405       95.599       25.481        0.071      344.628       21.582      864.247
10/13/2014  13:16:00       38.234       13.849       14.686       43.829       35.468       32.648     1921.020     1257.959     1065.890        0.306        0.212       40.665       21.682        0.284      345.008       22.232      864.219
10/13/2014  13:17:00       80.877       27.097       27.883       68.391       42.232       39.982     4677.288     1783.552     1598.579        0.805        0.403       85.296       14.911        0.031      344.791       21.861      864.201
10/13/2014  13:18:00       83.002       71.865       17.882       64.574       45.015       39.650     4169.837     2026.355     1572.105        1.007        0.388      109.790       27.770        0.064      344.747       21.785      864.183
10/13/2014  13:19:00      116.467      115.475        2.345       74.816       49.583       35.462     5597.427     2458.445     1257.521        1.811        0.466      164.009       26.841        0.027      344.543       21.435      864.161
10/13/2014  13:20:00       25.430       57.422       -0.124       37.702       66.690       31.550     1421.467     4447.549      995.404        0.540        0.343       62.801       20.755        0.109      344.744       21.779      864.148
10/13/2014  13:21:00      127.172       77.325       35.713       79.821       67.802       43.442     6371.377     4597.160     1887.165        1.814        0.643      148.835       30.883        0.043      344.564       21.470      864.129
10/13/2014  13:22:00       74.248       43.617       35.092       48.806       35.195       37.737     2382.059     1238.715     1424.106        0.684        0.252       86.112       25.923        0.091      344.658       21.633      864.125
10/13/2014  13:23:00       56.662       49.121       45.623       44.981       54.964       30.555     2023.309     3021.044      933.632        0.684        0.299       74.990       29.391        0.154      344.748       21.786      864.115
10/13/2014  13:24:00       38.470        5.134       30.140       22.918       21.058       18.962      525.225      443.455      359.576        0.187        0.066       38.811       11.396        0.086      344.745       21.782      864.106
10/13/2014  13:25:00       29.407        6.777        1.516       27.431       22.417       25.262      752.473      502.526      638.180        0.140        0.095       30.177       15.909        0.278      344.488       21.342      864.082
10/13/2014  13:26:00       18.652       34.432      -11.529       61.957       47.843       24.405     3838.678     2288.905      595.613        0.419        0.336       39.159        8.916        0.052      344.932       22.102      864.068
10/13/2014  13:27:00       17.508       34.790       10.688       33.229       35.230       25.087     1104.148     1241.120      629.379        0.230        0.149       38.947       12.787        0.108      345.176       22.519      864.042
10/13/2014  13:28:00       39.183       71.065       -2.364       48.382       57.179       37.286     2340.821     3269.439     1390.235        0.679        0.350       81.151       33.076        0.166      345.004       22.226      864.029
10/13/2014  13:29:00       35.845       34.811        7.445       40.448       31.278       28.454     1636.011      978.338      809.650        0.299        0.171       49.966       19.761        0.156      345.034       22.276      864.008
10/13/2014  13:30:00       98.290       31.039       12.467       29.499       25.068       23.153      870.204      628.381      536.060        0.641        0.102      103.074       19.566        0.036      344.656       21.630      863.993
10/13/2014  13:31:00       47.899       41.644       14.837       46.607       46.530       39.716     2172.227     2165.037     1577.364        0.508        0.296       63.471       27.778        0.192      344.793       21.866      863.961
10/13/2014  13:32:00       82.339       26.139       19.407       65.689       62.818       36.499     4315.075     3946.135     1332.159        0.871        0.480       86.388       34.099        0.156      344.729       21.755      863.954
10/13/2014  13:33:00       84.873       71.272       27.162       88.948       56.389       43.595     7911.772     3179.681     1900.566        1.300        0.650      110.830       20.687        0.035      345.219       22.594      863.937
10/13/2014  13:34:00       70.701      102.279       87.286       95.750       74.312       65.972     9168.091     5522.219     4352.319        2.106        0.952      124.337       56.461        0.206      345.106       22.396      863.936
10/13/2014  13:35:00       32.686        8.530       58.639       58.072       78.648       50.099     3372.300     6185.463     2509.958        0.832        0.603       33.781       43.903        1.689      345.376       22.863      863.923
10/13/2014  13:36:00      104.009        3.731       73.389       58.013       78.692       56.968     3365.516     6192.367     3245.326        1.451        0.640      104.076       50.917        0.239      344.966       22.159      863.919
10/13/2014  13:37:00      175.200      137.125      100.702      118.314      112.388       91.000    13998.153    12630.992     8281.061        4.727        1.746      222.482       76.164        0.117      344.849       21.957      863.870
10/13/2014  13:38:00       45.780       84.581      102.995       66.396       59.498       46.004     4408.406     3539.975     2116.327        1.496        0.503       96.176       32.177        0.112      345.127       22.435      863.890
10/13/2014  13:39:00       78.736      -24.825       19.591       80.761       60.845       39.175     6522.261     3702.142     1534.669        0.948        0.588       82.557       41.760        0.256      344.944       22.121      863.888
10/13/2014  13:40:00       75.732     -105.032       -4.027       62.791       81.150       55.632     3942.722     6585.368     3094.935        1.520        0.681      129.488       53.319        0.170      345.136       22.451      863.876
10/13/2014  13:41:00       68.931      -12.651       44.844       77.024      124.026       76.368     5932.693    15382.546     5832.014        1.703        1.357       70.082       93.597        1.784      345.153       22.479      863.877
10/13/2014  13:42:00       87.195       95.972       71.289       66.200       50.782       46.224     4382.496     2578.761     2136.629        1.550        0.455      129.667       35.725        0.076      345.002       22.220      863.862
10/13/2014  13:43:00       29.013      -17.818       22.428       46.585       81.263       40.270     2170.158     6603.701     1621.682        0.603        0.520       34.048       54.117        2.526      345.019       22.252      863.831
10/13/2014  13:44:00       90.063     -116.048      -12.210       36.154       45.304       22.629     1307.143     2052.439      512.070        1.280        0.194      146.896       15.467        0.011      345.125       22.432      863.788
10/13/2014  13:45:00       22.414      -26.636       10.265       23.582       23.304       22.982      556.101      543.055      528.161        0.147        0.081       34.812       15.603        0.201      345.197       22.555      863.756
10/13/2014  13:46:00       29.177       -4.173       21.701       22.386       20.535       23.698      501.130      421.693      561.607        0.141        0.074       29.474       15.205        0.266      344.912       22.068      863.727
10/13/2014  13:47:00        9.075      -26.521       18.732       29.247       31.158       24.044      855.366      970.843      578.114        0.177        0.120       28.030       15.425        0.303      344.581       21.502      863.706
10/13/2014  13:48:00       39.266      -75.645        0.850       42.751       62.616       40.669     1827.675     3920.747     1653.934        0.733        0.370       85.229       32.714        0.147      345.160       22.492      863.679
10/13/2014  13:49:00       49.076      -25.783       36.175       50.146       57.355       39.986     2514.574     3289.647     1598.842        0.589        0.370       55.437       38.902        0.492      345.219       22.593      863.668
10/13/2014  13:50:00       85.483     -119.113       -1.751       63.428       61.430       36.708     4023.160     3773.678     1347.513        1.532        0.457      146.613       40.308        0.076      345.158       22.489      863.652
10/13/2014  13:51:00       41.512       -4.421       27.480       49.435       54.513       42.725     2443.784     2971.683     1825.407        0.487        0.362       41.746       44.669        1.145      345.285       22.706      863.647
10/13/2014  13:52:00       45.371      -81.208      -13.647       39.481       49.640       30.346     1558.768     2464.094      920.865        0.689        0.247       93.023       27.417        0.087      345.060       22.321      863.639
10/13/2014  13:53:00       57.694      -18.068       14.499       28.623       37.879       31.098      819.284     1434.844      967.103        0.354        0.161       60.457       22.155        0.134      344.849       21.959      863.626
10/13/2014  13:54:00       50.192       -9.100       13.437       35.765       41.196       25.241     1279.105     1697.073      637.095        0.320        0.181       51.010       26.591        0.272      345.074       22.345      863.613
10/13/2014  13:55:00       74.655      -39.688        5.515       32.573       33.764       22.601     1061.014     1139.978      510.784        0.494        0.136       84.549       22.637        0.072      344.753       21.797      863.583
10/13/2014  13:56:00       32.612      -22.731       18.329       45.980       41.157       25.631     2114.183     1693.887      656.939        0.319        0.223       39.752       21.588        0.295      345.201       22.562      863.556
10/13/2014  13:57:00       94.502       31.515       21.637       47.231       48.494       27.486     2230.745     2351.669      755.507        0.786        0.267       99.618       19.957        0.040      345.056       22.314      863.531
10/13/2014  13:58:00       52.318       48.160        5.902       33.046       27.833       25.265     1092.039      774.655      638.332        0.380        0.125       71.110        9.330        0.017      345.220       22.594      863.513
10/13/2014  13:59:00       76.800       51.309       25.966       34.491       21.800       30.506     1189.642      475.239      930.615        0.590        0.130       92.363       17.784        0.037      344.894       22.038      863.502
10/13/2014  14:00:00       70.878       53.220       24.052       56.066       47.525       38.390     3143.390     2258.620     1473.825        0.765        0.344       88.634       32.428        0.134      345.154       22.483      863.489
10/13/2014  14:01:00       54.715       40.778       26.565       46.178       29.604       27.991     2132.378      876.416      783.511        0.458        0.190       68.239       19.605        0.083      345.309       22.748      863.483
10/13/2014  14:02:00       77.140        7.963       55.335       69.557       69.725       48.827     4838.163     4861.548     2384.043        1.058        0.604       77.550       49.809        0.413      344.985       22.193      863.470
10/13/2014  14:03:00      141.491       84.351       28.420       69.034       53.181       37.274     4765.632     2828.260     1389.339        1.846        0.449      164.727       17.710        0.012      345.131       22.440      863.458
10/13/2014  14:04:00      151.327      111.468       11.473       64.708       59.321       51.984     4187.093     3519.029     2702.363        2.293        0.520      187.949       31.698        0.028      345.245       22.637      863.436
10/13/2014  14:05:00      103.315      102.118       -2.532       50.521       39.419       36.079     2552.384     1553.838     1301.704        1.326        0.270      145.266       20.090        0.019      345.236       22.620      863.417
10/13/2014  14:06:00       78.672       60.444        8.430       50.238       37.839       31.409     2523.845     1431.752      986.502        0.743        0.247       99.211       20.526        0.043      345.325       22.774      863.398
10/13/2014  14:07:00       17.402       30.595       11.646       37.129       25.114       22.649     1378.577      630.723      512.966        0.195        0.126       35.198       11.725        0.111      345.509       23.090      863.381
10/13/2014  14:08:00       20.728       58.944       14.972       48.950       39.283       25.315     2396.063     1543.162      640.831        0.435        0.229       62.482       19.102        0.093      345.439       22.970      863.367
10/13/2014  14:09:00      121.755       73.256       18.390       43.066       48.967       29.217     1854.670     2397.752      853.654        1.282        0.255      142.094        9.660        0.005      345.220       22.594      863.360
10/13/2014  14:10:00      141.113       87.129       16.413       30.568       39.611       27.794      934.432     1569.056      772.489        1.552        0.164      165.845       11.478        0.005      345.384       22.876      863.351
10/13/2014  14:11:00       91.404       45.670       11.327       47.524       30.066       28.285     2258.501      903.976      800.022        0.726        0.198      102.179       21.854        0.046      345.441       22.974      863.332
10/13/2014  14:12:00       88.866       10.801       11.691       52.652       42.585       29.227     2772.276     1813.507      854.223        0.679        0.272       89.520       23.089        0.067      345.351       22.819      863.320
10/13/2014  14:13:00       60.559      -57.568       11.278       38.327       62.025       33.363     1468.965     3847.050     1113.094        0.677        0.321       83.556       27.776        0.111      345.216       22.588      863.299
10/13/2014  14:14:00       38.865        1.766       27.453       35.750       25.159       25.828     1278.058      632.966      667.109        0.242        0.129       38.906       13.856        0.127      345.345       22.809      863.267
10/13/2014  14:15:00      108.868       68.731       51.806       79.061       52.368       35.524     6250.713     2742.379     1261.924        1.476        0.513      128.749       27.287        0.045      345.424       22.942      863.231
10/13/2014  14:16:00      147.561       87.229       34.583       43.304       43.990       35.412     1875.265     1935.156     1254.045        1.782        0.253      171.415       19.093        0.012      345.426       22.947      863.196
10/13/2014  14:17:00       63.155       39.683       13.016       41.809       34.189       32.912     1747.981     1168.912     1083.220        0.487        0.200       74.587       12.731        0.029      345.728       23.467      863.162
10/13/2014  14:18:00       90.704       34.312        5.525       52.412       33.734       42.665     2747.067     1137.983     1820.284        0.757        0.285       96.977       32.556        0.113      345.749       23.502      863.135
10/13/2014  14:19:00       49.043       49.583        7.396       57.597       63.899       38.783     3317.469     4083.047     1504.125        0.691        0.445       69.740       34.165        0.240      345.652       23.335      863.125
10/13/2014  14:20:00      119.089      100.174       13.048       61.400       46.482       49.182     3769.955     2160.531     2418.900        1.637        0.417      155.618       31.653        0.041      345.472       23.025      863.118
10/13/2014  14:21:00      135.583       94.608       34.426       57.287       51.371       54.863     3281.829     2638.973     3009.902        1.872        0.447      165.328       26.821        0.026      345.499       23.070      863.112
10/13/2014  14:22:00       72.011       33.480       44.612       71.718       55.369       42.669     5143.524     3065.715     1820.631        0.916        0.501       79.414       38.314        0.233      345.733       23.473      863.104
10/13/2014  14:23:00      200.712      126.334       29.271       55.997       42.149       49.833     3135.640     1776.529     2483.295        3.225        0.370      237.162       30.802        0.017      345.386       22.875      863.102
10/13/2014  14:24:00      103.559       57.855       25.237       66.611       64.902       39.889     4437.087     4212.249     1591.123        1.247        0.512      118.624       18.731        0.025      345.659       23.347      863.087
10/13/2014  14:25:00       76.259       49.554       18.811       58.150       57.150       43.400     3381.472     3266.153     1883.589        0.858        0.427       90.945       30.131        0.110      345.797       23.584      863.079
10/13/2014  14:26:00       73.421       96.332       -2.077       63.973       61.182       42.026     4092.598     3743.225     1766.211        1.214        0.480      121.122       33.739        0.078      345.632       23.301      863.079
10/13/2014  14:27:00      128.048       89.622       10.181      122.856       61.532       38.779    15093.706     3786.233     1503.827        2.245        1.019      156.295       20.123        0.017      345.542       23.145      863.075
10/13/2014  14:28:00       78.472       86.121       -2.225       48.708       47.730       50.521     2372.459     2278.176     2552.412        1.039        0.360      116.511       35.413        0.092      345.611       23.265      863.060
10/13/2014  14:29:00       75.158       61.088       10.538       40.907       38.963       32.214     1673.386     1518.120     1037.746        0.686        0.211       96.853       11.836        0.015      345.610       23.264      863.035
10/13/2014  14:30:00        1.812       80.353        0.446       31.823       32.642       22.896     1012.724     1065.471      524.238        0.453        0.130       80.374       14.289        0.032      345.975       23.888      863.006
10/13/2014  14:31:00       78.938       60.829       23.404       66.788       62.981       34.359     4460.596     3966.561     1180.558        1.004        0.480       99.656       22.177        0.050      346.020       23.965      862.985
10/13/2014  14:32:00      104.774       66.251       31.676       42.646       53.179       40.379     1818.642     2827.979     1630.428        1.132        0.314      123.963       27.928        0.051      346.033       23.989      862.960
10/13/2014  14:33:00       38.982       76.582       76.385       49.652       38.952       29.909     2465.298     1517.258      894.524        0.905        0.244       85.932       16.574        0.037      346.129       24.154      862.934
10/13/2014  14:34:00      122.880       79.016       19.709       65.646       59.619       54.482     4309.357     3554.462     2968.236        1.628        0.542      146.093       40.176        0.076      345.726       23.462      862.911
10/13/2014  14:35:00       96.855       72.285       11.543       45.119       47.094       36.446     2035.683     2217.860     1328.308        1.016        0.279      120.855       22.831        0.036      345.939       23.828      862.887
10/13/2014  14:36:00       72.231       74.242       -2.169       41.484       44.580       28.780     1720.939     1987.360      828.284        0.763        0.227      103.582       12.780        0.015      346.179       24.240      862.868
10/13/2014  14:37:00       24.295       46.565       66.624       40.901       51.681       30.003     1672.872     2670.975      900.184        0.622        0.262       52.522       26.054        0.246      346.328       24.497      862.852
10/13/2014  14:38:00      128.391       91.484       55.504       65.709       49.430       51.322     4317.633     2443.354     2633.977        1.866        0.470      157.650       35.557        0.051      345.943       23.833      862.817
10/13/2014  14:39:00       29.523       21.614       27.584       30.498       29.927       28.732      930.104      895.605      825.504        0.237        0.133       36.590       13.645        0.139      346.016       23.962      862.798
10/13/2014  14:40:00       37.881        1.165       15.376       52.837       36.658       21.454     2791.714     1343.828      460.285        0.313        0.230       37.899       20.749        0.300      346.168       24.222      862.761
10/13/2014  14:41:00       60.772       25.333        3.596       48.576       53.426       25.227     2359.608     2854.361      636.396        0.510        0.293       65.840       27.016        0.168      345.930       23.813      862.732
10/13/2014  14:42:00       60.395        3.972       -4.818       53.625       90.112       29.470     2875.694     8120.134      868.480        0.777        0.593       60.525       33.938        0.314      346.022       23.971      862.710
10/13/2014  14:43:00       31.824      -18.835       30.171       43.804       63.470       38.701     1918.789     4028.402     1497.769        0.486        0.372       36.980       27.090        0.537      346.411       24.639      862.694
10/13/2014  14:44:00       -3.727       -2.485        3.244       29.288       32.423       21.904      857.759     1051.235      479.801        0.121        0.119        4.480       21.498       23.029      346.332       24.504      862.687
10/13/2014  14:45:00       14.839        8.817       41.927       32.862       40.402       37.424     1079.888     1632.315     1400.566        0.308        0.206       17.261       33.656        3.802      346.677       25.095      862.667
10/13/2014  14:46:00       92.608      -36.768       23.478       48.376       47.060       36.870     2340.236     2214.685     1359.407        0.820        0.296       99.640       34.165        0.118      346.050       24.019      862.668
10/13/2014  14:47:00       25.575       -1.177       42.405       36.791       64.169       32.591     1353.557     4117.689     1062.152        0.449        0.327       25.602       37.421        2.136      346.315       24.475      862.646
10/13/2014  14:48:00       48.690     -109.934       -0.695       51.595       61.893       39.368     2661.993     3830.687     1549.861        1.125        0.402      120.234       34.671        0.083      346.336       24.510      862.636
10/13/2014  14:49:00       92.031      -56.719       20.574       63.432       94.827       52.748     4023.579     8992.147     2782.335        1.395        0.790      108.105       61.023        0.319      346.266       24.390      862.652
10/13/2014  14:50:00       35.202        4.024       25.458       33.623       40.211       21.591     1130.505     1616.934      466.161        0.256        0.161       35.431       16.633        0.220      346.323       24.489      862.647
10/13/2014  14:51:00       58.722     -125.439        0.129       48.434       40.969       30.131     2345.864     1678.467      907.877        1.206        0.247      138.504       26.698        0.037      346.339       24.514      862.639
10/13/2014  14:52:00       29.934      -66.066        3.269       30.195       30.883       21.090      911.721      953.751      444.774        0.379        0.116       72.531       13.574        0.035      346.310       24.464      862.618
10/13/2014  14:53:00        8.087       23.164       26.984       20.759       47.158       30.134      430.920     2223.854      908.076        0.245        0.178       24.535       27.289        1.237      346.806       25.319      862.596
10/13/2014  14:54:00        5.813       25.563       18.943       22.291       38.270       27.307      496.897     1464.592      745.651        0.188        0.135       26.215       17.432        0.442      346.719       25.171      862.591
10/13/2014  14:55:00       78.131       57.397       -3.226       60.404       38.172       27.768     3648.691     1457.074      771.088        0.764        0.294       96.948       19.344        0.040      346.389       24.601      862.576
10/13/2014  14:56:00       30.957        5.871       18.075       43.335       41.700       31.690     1877.922     1738.858     1004.227        0.297        0.231       31.509       22.974        0.532      346.613       24.987      862.589
10/13/2014  14:57:00        3.872       -5.011       15.462       23.330       27.541       12.846      544.281      758.522      165.032        0.087        0.073        6.333        8.850        1.953      346.892       25.468      862.587
10/13/2014  14:58:00       15.529       31.785        6.903       41.071       27.488       21.139     1686.793      755.617      446.862        0.209        0.144       35.376       15.726        0.198      346.471       24.742      862.590
10/13/2014  14:59:00       38.828       60.717       18.995       52.721       57.390       38.081     2779.484     3293.653     1450.168        0.654        0.376       72.071       35.225        0.239      346.656       25.060      862.577
10/13/2014  15:00:00       82.375       48.208       13.018       49.467       37.291       27.350     2446.963     1390.602      748.048        0.693        0.229       95.445       12.162        0.016      346.436       24.682      862.576
10/13/2014  15:01:00      117.095       33.418       14.687       67.710       50.876       31.870     4584.690     2588.336     1015.705        1.161        0.409      121.771       13.200        0.012      346.444       24.696      862.559
10/13/2014  15:02:00       95.440       68.623       31.854       57.617       58.268       35.577     3319.763     3395.185     1265.718        1.141        0.399      117.550       28.453        0.059      346.297       24.443      862.554
10/13/2014  15:03:00       -0.322        2.957        1.557       28.621       34.122       21.581      819.141     1164.319      465.753        0.123        0.122        2.974       21.381       51.689      346.538       24.858      862.528
10/13/2014  15:04:00       22.064     -109.113        2.786       46.005       61.930       32.736     2116.457     3835.303     1071.668        0.971        0.351      111.321       26.641        0.057      346.600       24.965      862.502
10/13/2014  15:05:00       27.900       61.822        3.482       62.289       49.758       35.687     3879.925     2475.821     1273.542        0.612        0.381       67.826       32.409        0.228      346.841       25.380      862.481
10/13/2014  15:06:00       44.092       67.668       -0.022       48.892       52.128       31.770     2390.413     2717.314     1009.326        0.632        0.306       80.765       30.349        0.141      346.862       25.415      862.483
10/13/2014  15:07:00       62.148       22.970        4.596       49.569       35.298       25.969     2457.074     1245.961      674.363        0.439        0.219       66.257       17.552        0.070      346.827       25.354      862.478
10/13/2014  15:08:00       24.632       37.116        1.144       26.588       29.764       23.568      706.931      885.913      555.463        0.207        0.107       44.546       17.410        0.153      346.774       25.263      862.463
10/13/2014  15:09:00       31.361       55.586       -6.192       57.875       58.936       31.697     3349.560     3473.459     1004.696        0.597        0.391       63.823       29.535        0.214      346.846       25.387      862.466
10/13/2014  15:10:00      -33.520      192.002      -26.308       45.575       61.672       29.391     2077.057     3803.394      863.805        2.271        0.337      194.906       30.253        0.024      346.434       24.677      862.475
10/13/2014  15:11:00        3.132       49.152       -8.697       16.475       47.713       21.529      271.438     2276.528      463.511        0.276        0.151       49.252       27.601        0.314      346.722       25.175      862.491
10/13/2014  15:12:00        6.053       59.765        1.213       19.573       31.611       31.966      383.089      999.235     1021.811        0.301        0.120       60.070       21.367        0.127      346.518       24.824      862.488
10/13/2014  15:13:00       28.849       76.331        7.395       29.468       59.927       27.386      868.341     3591.294      749.969        0.596        0.260       81.601       23.938        0.086      346.442       24.692      862.478
10/13/2014  15:14:00       27.244      128.275      -10.739       36.016       77.821       35.570     1297.162     6056.096     1265.212        1.296        0.431      131.136       40.687        0.096      346.420       24.653      862.450
10/13/2014  15:15:00       12.914      203.274      -22.239       38.479       52.445       31.268     1480.608     2750.430      977.676        2.359        0.260      203.684       31.451        0.024      346.354       24.538      862.425
10/13/2014  15:16:00      -53.828       75.332       -3.913       34.954       50.613       28.806     1221.772     2561.701      829.800        0.660        0.231       92.587       16.649        0.032      346.643       25.038      862.404
10/13/2014  15:17:00      -55.769       46.281        2.876       47.884       67.223       26.368     2292.893     4518.967      695.284        0.638        0.375       72.471       17.694        0.060      346.810       25.325      862.379
10/13/2014  15:18:00      -32.766       41.373       12.583       34.551       47.067       30.508     1193.786     2215.307      930.716        0.364        0.217       52.776       32.316        0.375      347.113       25.846      862.367
10/13/2014  15:19:00      -61.421       44.890        0.778       49.921       37.525       30.488     2492.077     1408.098      929.547        0.531        0.241       76.077       31.433        0.171      347.046       25.731      862.352
10/13/2014  15:20:00      -82.882      114.815      -21.916       40.916       45.033       33.338     1674.090     2027.980     1111.451        1.267        0.241      141.605       33.660        0.057      346.639       25.031      862.346
10/13/2014  15:21:00      -22.974       81.795      -10.740       32.640       38.871       24.261     1065.349     1510.989      588.602        0.525        0.158       84.960       20.279        0.057      346.743       25.210      862.318
10/13/2014  15:22:00      -21.667      116.600      -16.336       36.487       35.696       20.201     1331.325     1274.170      408.086        0.867        0.151      118.596       11.309        0.009      346.614       24.989      862.299
10/13/2014  15:23:00      -83.511       27.884       -2.545       51.155       61.056       34.500     2616.862     3727.882     1190.217        0.765        0.377       88.043       21.112        0.057      346.878       25.443      862.273
10/13/2014  15:24:00     -151.673      -10.607      -20.276       35.595       29.552       25.849     1267.016      873.331      668.169        1.317        0.140      152.043       21.448        0.020      346.573       24.920      862.263
10/13/2014  15:25:00      -48.309       -3.569        7.612       53.098       35.227       32.682     2819.362     1240.945     1068.138        0.377        0.256       48.441       34.882        0.519      346.951       25.569      862.234
10/13/2014  15:26:00      -44.453      -32.481        8.574       48.211       39.980       31.242     2324.265     1598.367      976.077        0.400        0.245       55.055       28.763        0.273      346.909       25.496      862.217
10/13/2014  15:27:00      -38.779      -11.562        2.728       31.104       32.138       17.543      967.448     1032.838      307.773        0.198        0.115       40.466       21.283        0.277      346.629       25.014      862.203
10/13/2014  15:28:00      -34.856      125.643      -12.703       41.162       53.149       28.500     1694.297     2824.774      812.248        1.125        0.267      130.388       22.230        0.029      346.758       25.235      862.198
10/13/2014  15:29:00      -23.949      162.146       -7.989       46.701       74.873       41.946     2180.968     5605.930     1759.477        1.824        0.477      163.905       39.935        0.059      346.684       25.106      862.179
10/13/2014  15:30:00      -38.843       88.827        2.472       52.081       73.818       36.862     2712.429     5449.163     1358.821        0.946        0.476       96.948       38.372        0.157      346.946       25.559      862.163
10/13/2014  15:31:00       29.641      207.757      -29.267       47.826       78.747       34.791     2287.314     6201.138     1210.438        2.730        0.485      209.861       38.078        0.033      346.533       24.845      862.150
10/13/2014  15:32:00       -7.395      103.879       -9.793      106.106       87.578       55.265    11258.529     7669.864     3054.169        1.646        1.099      104.142       59.612        0.328      346.724       25.175      862.132
10/13/2014  15:33:00     -144.327       98.501      -24.331       48.270       71.889       34.265     2329.957     5168.072     1174.093        1.990        0.434      174.736       35.031        0.040      346.701       25.136      862.134
10/13/2014  15:34:00     -146.505       74.428      -29.824       41.685       32.581       29.621     1737.648     1061.512      877.374        1.578        0.184      164.327       22.248        0.018      346.722       25.174      862.114
10/13/2014  15:35:00     -102.611       90.121      -25.624       30.068       40.181       24.700      904.092     1614.545      610.081        1.122        0.156      136.568        9.913        0.005      346.805       25.317      862.093
10/13/2014  15:36:00      -79.058       70.091      -17.224       42.086       55.660       26.022     1771.241     3098.068      677.152        0.850        0.277      105.654       19.395        0.034      346.898       25.478      862.074
10/13/2014  15:37:00     -119.738      151.578      -23.208       56.960       60.506       45.468     3244.485     3660.969     2067.358        2.341        0.449      193.165       43.248        0.050      346.868       25.423      862.070
10/13/2014  15:38:00      -76.690      124.541      -28.206       46.913       53.945       33.995     2200.855     2910.063     1155.632        1.423        0.313      146.259       34.886        0.057      346.728       25.184      862.067
10/13/2014  15:39:00      -57.289        2.135      -11.848       26.676       38.675       13.216      711.618     1495.730      174.659        0.290        0.119       57.329       13.469        0.055      346.734       25.195      862.045
10/13/2014  15:40:00       28.612       32.409       11.908       27.202       24.145       17.851      739.962      582.972      318.646        0.183        0.082       43.232        4.407        0.010      346.943       25.554      862.029
10/13/2014  15:41:00       31.103       53.973       19.520       25.445       21.511       23.975      647.462      462.744      574.788        0.297        0.084       62.293       13.487        0.047      346.815       25.334      862.017
10/13/2014  15:42:00      -41.302      197.957      -30.193       59.842       85.895       32.141     3581.031     7377.898     1033.052        2.690        0.600      202.220       43.848        0.047      346.696       25.126      862.013
10/13/2014  15:43:00      -12.591      212.775      -33.079       55.180       48.560       23.439     3044.834     2358.058      549.374        2.624        0.298      213.147       12.598        0.003      346.891       25.462      862.015
10/13/2014  15:44:00       23.466      110.232      -14.752       42.038       52.811       37.318     1767.172     2789.049     1392.650        0.943        0.297      112.702       38.804        0.119      346.840       25.379      862.010
10/13/2014  15:45:00       32.173       42.523       12.224       47.679       48.242       28.540     2273.253     2327.336      814.549        0.420        0.271       53.322       22.410        0.177      346.917       25.508      861.996
10/13/2014  15:46:00       37.349       54.963       -0.913       46.610       42.645       38.422     2172.453     1818.598     1476.281        0.494        0.273       66.452       27.017        0.165      346.944       25.556      861.984
10/13/2014  15:47:00        4.268       76.643       -3.427       41.874       64.731       27.101     1753.467     4190.125      734.463        0.629        0.334       76.762       32.304        0.177      347.085       25.799      861.960
10/13/2014  15:48:00       14.003       80.204        7.642       68.670       54.423       44.767     4715.598     2961.824     2004.040        0.818        0.484       81.417       38.960        0.229      347.107       25.837      861.953
10/13/2014  15:49:00       41.203      108.089       -6.253       38.690       51.151       41.900     1496.929     2616.444     1755.635        0.964        0.293      115.676       36.802        0.101      346.956       25.575      861.950
10/13/2014  15:50:00       22.113       26.914       14.422       37.877       27.382       27.118     1434.653      749.775      735.393        0.217        0.146       34.833       14.177        0.166      347.124       25.866      861.940
10/13/2014  15:51:00       85.599        8.017       22.495       38.303       49.883       30.474     1467.086     2488.347      928.687        0.639        0.244       85.974       23.525        0.075      346.926       25.524      861.913
10/13/2014  15:52:00       19.856        0.817       29.839       25.003       48.860       21.918      625.137     2387.285      480.406        0.239        0.175       19.873       26.543        1.784      347.033       25.711      861.880
10/13/2014  15:53:00        4.612       -5.309       22.189       21.569       34.106       24.158      465.221     1163.221      583.600        0.138        0.111        7.032       25.709       13.366      347.318       26.201      861.867
10/13/2014  15:54:00        4.194      -29.411       -9.725       23.518       29.055       15.489      553.108      844.199      239.903        0.131        0.082       29.708        9.455        0.101      347.043       25.727      861.849
10/13/2014  15:55:00       15.867       14.102      -20.262       16.994       18.455       15.032      288.783      340.577      225.954        0.086        0.043       21.228       12.488        0.346      347.004       25.660      861.827
10/13/2014  15:56:00       11.320       -2.522        8.828       15.865       14.983        9.691      251.684      224.487       93.913        0.039        0.029       11.598        9.348        0.650      347.261       26.102      861.818
10/13/2014  15:57:00      -45.316       47.109       -4.487       30.716       31.590       24.704      943.493      997.945      610.271        0.342        0.128       65.367       17.477        0.071      347.363       26.280      861.819
10/13/2014  15:58:00      -95.682      107.937      -12.503       61.014       53.803       37.973     3722.719     2894.753     1441.972        1.451        0.403      144.241       41.749        0.084      347.256       26.092      861.807
10/13/2014  15:59:00     -106.238       41.834      -18.259       34.700       38.481       25.262     1204.073     1480.808      638.179        0.835        0.166      114.178       11.305        0.010      347.266       26.112      861.799
10/13/2014  16:00:00      -66.788       13.998      -19.649       68.806       21.220       19.236     4734.276      450.272      370.005        0.530        0.278       68.239       21.987        0.104      347.176       25.955      861.802
10/13/2014  16:01:00      -36.920        8.490       26.054       41.412       48.163       34.666     1714.971     2319.636     1201.744        0.367        0.262       37.884       38.147        1.014      347.385       26.316      861.780
10/13/2014  16:02:00     -102.188      -27.777       -8.721       34.255       34.804       24.148     1173.400     1211.312      583.103        0.713        0.148      105.896       16.093        0.023      347.151       25.912      861.773
10/13/2014  16:03:00      -13.658       -8.882       22.017       51.457       48.146       40.219     2647.807     2318.014     1617.576        0.367        0.329       16.292       42.476        6.797      347.439       26.408      861.760
10/13/2014  16:04:00      -27.110       30.988        9.652       55.953       42.869       24.568     3130.758     1837.768      603.588        0.368        0.279       41.173       27.769        0.455      347.355       26.264      861.769
10/13/2014  16:05:00       -3.052       62.965        7.652       27.390       36.430       27.901      750.204     1327.127      778.450        0.344        0.143       63.038       21.446        0.116      347.331       26.223      861.774
10/13/2014  16:06:00       62.219       87.704       -7.044       55.715       64.742       41.727     3104.141     4191.531     1741.139        1.032        0.452      107.532       40.298        0.140      347.162       25.932      861.771
10/13/2014  16:07:00       32.469      134.641      -14.148       41.349       71.879       44.412     1709.766     5166.538     1972.392        1.411        0.442      138.501       46.196        0.111      347.084       25.795      861.770
10/13/2014  16:08:00       43.823      180.264      -25.069       46.677       69.371       34.989     2178.740     4812.350     1224.196        2.163        0.411      185.514       35.659        0.037      347.079       25.787      861.752
10/13/2014  16:09:00       45.059      189.663      -30.230       40.428       57.123       32.005     1634.425     3263.092     1024.293        2.242        0.296      194.942       24.147        0.015      347.102       25.827      861.737
10/13/2014  16:10:00        9.879      117.630      -23.758       26.672       41.136       19.077      711.410     1692.160      363.932        0.863        0.138      118.045       19.868        0.028      347.115       25.851      861.721
10/13/2014  16:11:00       43.333       52.391       -7.525       42.996       33.316       28.803     1848.627     1109.933      829.625        0.423        0.189       67.990       13.225        0.038      347.189       25.978      861.712
10/13/2014  16:12:00       14.994       62.581       -3.350       21.952       36.968       17.598      481.910     1366.654      309.688        0.315        0.108       64.353       19.888        0.096      347.248       26.080      861.705
10/13/2014  16:13:00       24.708       50.526      -10.798       34.077       28.137       22.811     1161.230      791.680      520.347        0.288        0.124       56.244       14.245        0.064      347.258       26.096      861.687
10/13/2014  16:14:00        6.730      148.788      -24.341       48.624       77.291       32.898     2364.262     5973.938     1082.292        1.610        0.471      148.940       31.488        0.045      347.224       26.037      861.682
10/13/2014  16:15:00        4.641      173.757      -31.301       27.613       37.466       19.390      762.471     1403.706      375.974        1.687        0.127      173.819       17.523        0.010      347.124       25.866      861.673
10/13/2014  16:16:00      -28.418      154.818      -28.918       36.585       55.493       22.081     1338.494     3079.528      487.587        1.526        0.245      157.405       24.327        0.024      347.087       25.801      861.655
10/13/2014  16:17:00      -61.723       48.993      -16.659       21.685       42.032       21.116      470.242     1766.664      445.902        0.458        0.134       78.804       12.301        0.024      347.432       26.398      861.637
10/13/2014  16:18:00      -98.720       10.266      -17.084       32.052       35.727       22.482     1027.310     1276.392      505.448        0.648        0.140       99.252       17.218        0.030      347.285       26.144      861.641
10/13/2014  16:19:00      -13.361      -23.802       -5.716       33.466       33.831       17.067     1119.954     1144.507      291.297        0.167        0.128       27.296       14.667        0.289      347.198       25.995      861.650
10/13/2014  16:20:00      -45.036       49.223      -11.366       31.719       50.367       22.568     1006.095     2536.788      509.307        0.432        0.203       66.717       21.807        0.107      347.217       26.027      861.656
10/13/2014  16:21:00      -63.465        0.208      -10.502       32.246       56.398       28.485     1039.802     3180.769      811.412        0.458        0.252       63.465       31.504        0.246      347.211       26.016      861.656
10/13/2014  16:22:00       12.460      -35.845        0.975       43.447       25.582       22.151     1887.658      654.423      490.669        0.224        0.152       37.949       18.975        0.250      347.277       26.130      861.648
10/13/2014  16:23:00        6.496       -1.980        4.069       25.749       18.748       13.023      663.023      351.484      169.586        0.062        0.059        6.791        7.685        1.281      347.261       26.102      861.639
10/13/2014  16:24:00      -12.111       62.123        7.101       24.125       18.776       20.160      582.014      352.532      406.407        0.270        0.067       63.293       16.929        0.072      347.152       25.916      861.634
10/13/2014  16:25:00       -6.456       15.183       14.109       18.523       14.516       17.279      343.093      210.711      298.578        0.066        0.043       16.499       13.381        0.658      347.222       26.034      861.623
10/13/2014  16:26:00      -54.547       48.832       -2.638       46.222       32.601       27.590     2136.495     1062.820      761.216        0.466        0.198       73.212       28.978        0.157      347.277       26.131      861.603
10/13/2014  16:27:00      -19.369      152.966      -26.542       24.568       60.899       21.003      603.593     3708.653      441.106        1.462        0.238      154.188       23.869        0.024      347.155       25.921      861.588
10/13/2014  16:28:00      -33.984      186.013      -33.551       53.122       43.878       24.300     2821.969     1925.259      590.494        2.111        0.267      189.092       15.691        0.007      347.147       25.905      861.569
10/13/2014  16:29:00       -5.410      164.967      -28.366       27.616       38.327       13.654      762.666     1468.950      186.433        1.523        0.121      165.056       11.175        0.005      347.177       25.959      861.563
10/13/2014  16:30:00      -17.625      241.593      -35.511       33.724       54.239       22.610     1137.317     2941.906      511.226        3.226        0.230      242.235       20.617        0.007      347.193       25.980      861.557
10/13/2014  16:31:00      -41.966      207.581      -33.143       33.327       44.056       19.582     1110.693     1940.954      383.447        2.469        0.172      211.781       18.506        0.008      347.149       25.908      861.556
10/13/2014  16:32:00      -68.661      112.564      -22.853       30.298       48.006       23.072      917.940     2304.622      532.309        1.083        0.188      131.852       22.685        0.030      347.207       26.009      861.554
10/13/2014  16:33:00        2.258      106.280      -16.862       39.573       61.458       26.565     1565.989     3777.088      705.705        0.882        0.302      106.304       30.206        0.081      347.214       26.021      861.541
10/13/2014  16:34:00      -39.512       74.378      -14.262       33.662       40.054       24.804     1133.105     1604.348      615.241        0.532        0.168       84.221       21.375        0.064      347.237       26.061      861.534
10/13/2014  16:35:00      -16.985       54.727      -17.400       20.147       22.056       14.593      405.891      486.470      212.952        0.235        0.055       57.303       11.322        0.039      347.234       26.057      861.525
10/13/2014  16:36:00        2.870       44.867      -14.906       18.954       21.221       14.292      359.242      450.318      204.267        0.163        0.051       44.958        4.618        0.011      347.285       26.144      861.513
10/13/2014  16:37:00       -5.316       40.634       -4.684       14.528       22.878       12.366      211.059      523.387      152.924        0.129        0.044       40.980       12.996        0.101      347.281       26.138      861.496
10/13/2014  16:38:00      -33.634       45.870       -2.657       29.213       22.282       15.429      853.408      496.469      238.048        0.241        0.079       56.879       12.126        0.045      347.409       26.357      861.499
10/13/2014  16:39:00      -46.074       30.596      -10.231       32.333       21.174       13.951     1045.430      448.333      194.631        0.243        0.084       55.307       12.161        0.048      347.462       26.450      861.501
10/13/2014  16:40:00      -94.766       34.151      -16.647       47.802       43.666       27.687     2284.988     1906.757      766.562        0.769        0.248      100.732       24.769        0.060      347.487       26.491      861.492
10/13/2014  16:41:00      -41.228       69.166      -10.993       32.097       38.041       22.214     1030.232     1447.112      493.479        0.479        0.149       80.521       21.593        0.072      347.376       26.301      861.484
10/13/2014  16:42:00      -50.895      127.053      -23.949       32.848       32.062       17.817     1078.959     1027.971      317.456        1.086        0.121      136.867       12.479        0.008      347.268       26.115      861.479
10/13/2014  16:43:00      -67.014       75.512      -19.368       44.913       38.013       27.190     2017.197     1444.978      739.276        0.738        0.210      100.960       22.678        0.050      347.358       26.269      861.474
10/13/2014  16:44:00      -35.747       77.678      -23.041       36.325       26.439       16.790     1319.517      699.033      281.903        0.507        0.115       85.509       20.295        0.056      347.327       26.216      861.468
10/13/2014  16:45:00        3.324       77.136      -17.184       11.201       34.372        9.652      125.458     1181.424       93.169        0.383        0.070       77.207        6.799        0.008      347.336       26.232      861.461
10/13/2014  16:46:00      -11.123       53.769      -12.068       19.180       15.814        9.515      367.877      250.093       90.534        0.193        0.035       54.908       11.001        0.040      347.357       26.267      861.454
10/13/2014  16:47:00      -34.030        5.437       -0.062       27.139       25.552       17.433      736.533      652.910      303.894        0.144        0.085       34.462       11.558        0.112      347.607       26.698      861.441
10/13/2014  16:48:00     -104.937      -26.580       -8.211       32.472       28.183       12.119     1054.454      794.302      146.858        0.689        0.100      108.250       12.126        0.013      347.653       26.779      861.428
10/13/2014  16:49:00     -112.796      -10.889      -12.014       19.037       19.053       14.610      362.406      363.031      213.457        0.696        0.047      113.320        8.967        0.006      347.536       26.575      861.421
10/13/2014  16:50:00     -105.932       -0.339      -14.332       39.337       22.605       18.638     1547.375      510.975      347.359        0.692        0.120      105.933       15.597        0.022      347.545       26.591      861.412
10/13/2014  16:51:00      -35.925       31.405       -2.853       35.321       61.889       27.211     1247.569     3830.242      740.457        0.405        0.291       47.716       23.945        0.252      347.601       26.689      861.399
10/13/2014  16:52:00      -49.846      121.652      -18.101       34.185       56.142       23.291     1168.611     3151.883      542.481        1.124        0.243      131.468       28.379        0.047      347.376       26.299      861.392
10/13/2014  16:53:00      -69.244       79.216      -14.319       56.749       42.106       29.798     3220.495     1772.951      887.920        0.858        0.294      105.214       31.519        0.090      347.482       26.483      861.378
10/13/2014  16:54:00      -86.444       98.039      -29.039       37.163       50.892       31.943     1381.119     2589.996     1020.370        1.146        0.250      130.707       34.833        0.071      347.446       26.422      861.363
10/13/2014  16:55:00      -24.730       39.073       -3.576       32.133       33.341       18.651     1032.522     1111.596      347.856        0.232        0.125       46.241       16.307        0.124      347.458       26.441      861.340
10/13/2014  16:56:00      -87.811       48.455      -19.340       27.998       27.192       16.843      783.871      739.428      283.694        0.612        0.090      100.293       15.388        0.024      347.469       26.460      861.325
10/13/2014  16:57:00     -109.504       25.217      -16.383       32.611       28.078       20.387     1063.467      788.347      415.631        0.758        0.113      112.370       14.507        0.017      347.547       26.596      861.321
10/13/2014  16:58:00      -51.596      -41.861       -9.926       59.513       24.652       11.557     3541.741      607.699      133.567        0.440        0.214       66.441       13.835        0.043      347.405       26.351      861.311
10/13/2014  16:59:00       35.681      -41.682       -2.334       14.711       23.360       14.201      216.422      545.669      201.672        0.199        0.048       54.868       13.169        0.058      347.277       26.130      861.303
10/13/2014  17:00:00       14.103       14.546       13.533       16.235        9.928       11.319      263.567       98.572      128.112        0.054        0.025       20.261       10.525        0.270      347.170       25.946      861.295
10/13/2014  17:01:00      -20.455      -17.116       -1.971       14.515       14.757       11.517      210.697      217.757      132.651        0.064        0.028       26.671        7.562        0.080      347.464       26.453      861.283
10/13/2014  17:02:00       21.666       19.165        9.330       49.897       24.963       13.760     2489.694      623.175      189.341        0.211        0.165       28.926        5.127        0.031      347.271       26.119      861.272
10/13/2014  17:03:00      138.030       87.875       19.046       60.189       45.152       35.970     3622.737     2038.712     1293.820        1.705        0.348      163.629       31.878        0.038      347.286       26.143      861.276
10/13/2014  17:04:00       40.213       80.234       -7.205       55.610       62.891       26.806     3092.493     3955.221      718.561        0.794        0.388       89.748       21.876        0.059      347.192       25.983      861.275
10/13/2014  17:05:00       67.297       78.336        4.538       46.707       41.770       38.814     2181.560     1744.765     1506.558        0.806        0.272      103.274       27.545        0.071      347.203       26.002      861.291
10/13/2014  17:06:00       31.953      100.023      -16.490       33.487       49.717       29.478     1121.400     2471.819      868.937        0.788        0.223      105.003       29.202        0.077      347.266       26.112      861.295
10/13/2014  17:07:00       31.376      116.919       -7.933       33.681       66.827       34.317     1134.441     4465.805     1177.623        1.075        0.339      121.056       38.536        0.101      347.179       25.960      861.305
10/13/2014  17:08:00        8.758      152.238      -29.174       39.289       60.574       24.533     1543.626     3669.205      601.845        1.496        0.291      152.489       33.256        0.048      347.201       25.998      861.309
10/13/2014  17:09:00        2.906      176.861      -23.473       46.236       64.248       28.592     2137.739     4127.745      817.518        1.946        0.354      176.885       28.816        0.027      347.123       25.862      861.302
10/13/2014  17:10:00       72.197       62.367       20.269       65.014       59.647       38.253     4226.760     3557.709     1463.258        0.938        0.462       95.405       34.167        0.128      347.052       25.742      861.308
10/13/2014  17:11:00      165.358      119.126       33.089       59.098       52.586       45.541     3492.594     2765.297     2073.973        2.548        0.417      203.800       25.024        0.015      347.121       25.857      861.297
10/13/2014  17:12:00      172.120      145.123       17.274       71.551       62.103       60.914     5119.579     3856.781     3710.529        3.183        0.634      225.136       44.881        0.040      347.116       25.848      861.275
10/13/2014  17:13:00      157.550      106.060        9.817       85.445       59.018       52.510     7300.848     3483.114     2757.290        2.485        0.677      189.924       33.320        0.031      347.021       25.687      861.256
10/13/2014  17:14:00      150.392       77.141       32.244       66.757       53.535       48.742     4456.518     2865.960     2375.816        1.965        0.485      169.023       27.697        0.027      346.994       25.640      861.248
10/13/2014  17:15:00      172.973      116.475       41.419       70.052       49.902       40.880     4907.295     2490.225     1671.157        2.713        0.453      208.533       20.879        0.010      347.006       25.659      861.246
10/13/2014  17:16:00      234.994      145.027       24.854       72.403       65.943       41.132     5242.169     4348.451     1691.842        4.408        0.564      276.143       23.900        0.007      347.009       25.663      861.258
10/13/2014  17:17:00      120.792       81.701       14.686       47.824       38.419       29.196     2287.107     1476.007      852.434        1.305        0.231      145.828       12.618        0.007      346.958       25.580      861.270
10/13/2014  17:18:00      126.819       65.996       19.711       51.321       35.797       33.703     2633.814     1281.417     1135.899        1.294        0.253      142.964       23.162        0.026      346.950       25.565      861.265
10/13/2014  17:19:00      151.425       90.896       23.596       62.787       61.682       48.095     3942.250     3804.658     2313.143        2.090        0.503      176.611       36.021        0.042      346.899       25.477      861.245
10/13/2014  17:20:00      145.803       71.124       11.545       56.989       41.128       30.853     3247.745     1691.540      951.896        1.617        0.295      162.226       18.236        0.013      346.867       25.421      861.237
10/13/2014  17:21:00      138.513       74.856       14.642       63.282       40.980       36.622     4004.671     1679.333     1341.165        1.601        0.351      157.446       19.641        0.016      346.821       25.344      861.222
10/13/2014  17:22:00      125.991       44.408       12.713       58.447       51.424       35.668     3416.055     2644.447     1272.232        1.267        0.367      133.588       17.496        0.017      346.763       25.243      861.193
10/13/2014  17:23:00       92.565       43.252       11.643       50.652       44.528       37.097     2565.610     1982.707     1376.151        0.825        0.296      102.171       20.217        0.039      346.682       25.107      861.170
10/13/2014  17:24:00      149.338       92.387       15.677       36.096       30.526       32.942     1302.923      931.843     1085.192        1.720        0.166      175.606       23.190        0.017      346.748       25.219      861.158
10/13/2014  17:25:00      130.728       94.004       21.916       78.481       46.194       51.483     6159.338     2133.854     2650.549        1.867        0.547      161.017       24.726        0.024      346.781       25.274      861.134
10/13/2014  17:26:00      135.153       59.454       47.804       65.498       46.568       38.727     4290.042     2168.546     1499.759        1.602        0.398      147.652       26.154        0.031      346.596       24.957      861.133
10/13/2014  17:27:00      127.225       75.296       30.732       83.551       80.425       41.132     6980.838     6468.107     1691.850        1.897        0.757      147.836        9.523        0.004      346.637       25.026      861.121
10/13/2014  17:28:00      236.095      106.959       48.347       97.850      103.776       50.317     9574.677    10769.561     2531.841        4.619        1.144      259.193       32.104        0.015      346.685       25.107      861.110
10/13/2014  17:29:00      179.309      104.037       46.202       89.580       82.310       59.509     8024.562     6774.870     3541.351        3.172        0.917      207.305       36.807        0.032      346.650       25.046      861.122
10/13/2014  17:30:00      139.965       74.453       19.279       60.766       52.552       48.531     3692.460     2761.706     2355.287        1.716        0.440      158.535       21.473        0.018      346.621       25.000      861.127
10/13/2014  17:31:00      144.396       87.220       15.825       67.756       52.595       47.856     4590.934     2766.263     2290.203        1.918        0.482      168.693       24.880        0.022      346.646       25.040      861.144
10/13/2014  17:32:00       88.560       60.401       38.037       49.664       40.170       33.849     2466.528     1613.631     1145.777        0.908        0.261      107.196       20.668        0.037      346.575       24.921      861.143
10/13/2014  17:33:00      106.078       69.377        6.186       49.228       38.734       37.488     2423.362     1500.323     1405.347        1.072        0.266      126.751       16.900        0.018      346.602       24.967      861.142
10/13/2014  17:34:00      144.720       87.368       21.596       60.342       37.913       36.569     3641.108     1437.381     1337.307        1.773        0.321      169.047       18.785        0.012      346.599       24.962      861.153
10/13/2014  17:35:00      100.556       74.475        3.480       71.681       34.425       29.333     5138.124     1185.056      860.419        1.143        0.359      125.132       18.486        0.022      346.547       24.873      861.148
10/13/2014  17:36:00       56.024       50.128       -0.241       44.990       30.055       26.168     2024.104      903.319      684.782        0.463        0.181       75.177       24.267        0.104      346.471       24.742      861.147
10/13/2014  17:37:00       50.570       87.068       -9.368       47.609       51.156       29.496     2266.594     2616.930      869.995        0.799        0.288      100.689       25.959        0.066      346.439       24.686      861.149
10/13/2014  17:38:00       68.365       64.879       20.903       71.561       57.159       43.874     5120.951     3267.152     1924.921        0.981        0.516       94.250       39.311        0.174      346.422       24.656      861.139
10/13/2014  17:39:00       40.335      139.828      -16.861       59.114       40.085       31.862     3494.451     1606.825     1015.203        1.379        0.306      145.529       22.906        0.025      346.468       24.737      861.146
10/13/2014  17:40:00       24.476      122.905      -21.432       30.915       33.536       23.420      955.714     1124.691      548.502        0.940        0.131      125.319       20.182        0.026      346.416       24.648      861.146
10/13/2014  17:41:00       24.626      156.061      -19.432       47.100       40.320       27.210     2218.369     1625.685      740.381        1.496        0.229      157.992       21.820        0.019      346.446       24.699      861.148
10/13/2014  17:42:00       40.034      117.698      -18.761       31.437       47.649       28.095      988.285     2270.396      789.332        0.993        0.202      124.321       25.129        0.041      346.427       24.667      861.155
10/13/2014  17:43:00       13.976       97.773       -8.661       28.311       53.230       30.217      801.494     2833.432      913.063        0.719        0.227       98.767       30.813        0.097      346.421       24.658      861.153
10/13/2014  17:44:00       19.242      110.619       -9.707       33.511       44.089       30.784     1122.972     1943.815      947.657        0.836        0.201      112.280       30.030        0.072      346.418       24.649      861.149
10/13/2014  17:45:00       26.584       29.962        9.802       38.495       35.441       28.681     1481.886     1256.062      822.598        0.263        0.178       40.055       20.642        0.266      346.328       24.496      861.142
10/13/2014  17:46:00       69.347       73.030        1.422       55.897       35.439       30.212     3124.517     1255.954      912.757        0.772        0.265      100.710       23.131        0.053      346.349       24.533      861.132
10/13/2014  17:47:00      100.520       68.961       19.543       40.506       34.945       27.485     1640.746     1221.182      755.422        0.943        0.181      121.901       16.439        0.018      346.395       24.611      861.112
10/13/2014  17:48:00      116.933       73.172       10.297       32.102       31.432       28.098     1030.559      987.977      789.513        1.097        0.140      137.940       14.245        0.011      346.302       24.453      861.100
10/13/2014  17:49:00      123.838       79.895       25.887       63.083       44.402       34.673     3979.436     1971.511     1202.237        1.477        0.358      147.374       21.532        0.021      346.291       24.433      861.083
10/13/2014  17:50:00      107.928       75.476       22.798       50.822       29.828       32.713     2582.877      889.732     1070.132        1.120        0.227      131.701       18.446        0.020      346.280       24.413      861.069
10/13/2014  17:51:00      101.791       70.046       21.085       49.001       43.714       31.222     2401.053     1910.870      974.818        1.050        0.264      123.563       15.115        0.015      346.241       24.346      861.070
10/13/2014  17:52:00      137.159       83.347       11.640       24.273       29.357       24.286      589.156      861.804      589.789        1.397        0.102      160.497       13.555        0.007      346.251       24.364      861.061
10/13/2014  17:53:00       55.496       54.769       11.610       50.103       29.384       26.832     2510.287      863.405      719.967        0.515        0.205       77.971       25.336        0.106      346.200       24.277      861.057
10/13/2014  17:54:00       29.429       94.256      -13.384       27.450       38.024       21.647      753.515     1445.833      468.609        0.630        0.133       98.743       20.886        0.045      346.189       24.258      861.056
10/13/2014  17:55:00       17.897       38.689        7.097       29.486       33.471       29.499      869.427     1120.337      870.181        0.236        0.143       42.628       16.683        0.153      346.196       24.270      861.062
10/13/2014  17:56:00       27.259       67.104        2.600       37.358       52.151       27.234     1395.612     2719.733      741.706        0.505        0.243       72.429       29.166        0.162      346.219       24.308      861.074
10/13/2014  17:57:00       27.788      122.212       -9.071       44.864       68.618       31.954     2012.781     4708.470     1021.062        1.176        0.387      125.332       34.546        0.076      346.268       24.394      861.068
10/13/2014  17:58:00       46.724       52.083        1.827       52.737       35.025       31.071     2781.202     1226.783      965.405        0.494        0.249       69.970       23.290        0.111      346.250       24.363      861.087
10/13/2014  17:59:00       55.515       48.080        5.596       36.457       25.266       26.120     1329.146      638.355      682.247        0.404        0.132       73.441       20.147        0.075      346.189       24.259      861.092
10/13/2014  18:00:00       67.358       53.374        0.504       27.273       22.771       22.820      743.830      518.520      520.742        0.458        0.089       85.941       13.934        0.026      346.121       24.139      861.083
10/13/2014  18:01:00       73.131       60.273        0.633       51.821       43.202       33.372     2685.381     1866.374     1113.702        0.732        0.283       94.768       22.059        0.054      346.070       24.053      861.084
10/13/2014  18:02:00      109.231       78.026       10.904       42.867       29.112       36.746     1837.570      847.521     1350.276        1.109        0.202      134.236       20.670        0.024      346.123       24.144      861.072
10/13/2014  18:03:00      101.385       50.261       14.980       43.222       38.089       29.389     1868.103     1450.762      863.727        0.861        0.209      113.159       27.434        0.059      345.973       23.887      861.057
10/13/2014  18:04:00       79.636       62.251       21.191       26.807       24.371       20.147      718.635      593.932      405.912        0.619        0.086      101.080       13.591        0.018      345.979       23.897      861.051
10/13/2014  18:05:00       75.678       42.010       12.139       33.460       27.549       23.360     1119.577      758.955      545.670        0.503        0.121       86.557       13.719        0.025      345.927       23.809      861.057
10/13/2014  18:06:00       71.260       23.130       19.244       37.480       29.990       28.348     1404.772      899.396      803.585        0.454        0.155       74.919       19.692        0.069      345.957       23.858      861.066
10/13/2014  18:07:00       57.459       43.729        4.923       25.792       29.769       26.576      665.222      886.186      706.307        0.375        0.113       72.206       20.721        0.082      346.027       23.979      861.076
10/13/2014  18:08:00       98.687       54.147       20.075       38.299       29.098       29.793     1466.850      846.680      887.631        0.814        0.160      112.566       18.720        0.028      346.135       24.164      861.086
10/13/2014  18:09:00       59.485       38.422        7.586       33.317       30.204       25.986     1110.039      912.268      675.257        0.388        0.135       70.815       19.969        0.080      346.082       24.075      861.094
10/13/2014  18:10:00      115.564       78.921       24.955       42.775       37.409       27.343     1829.691     1399.452      747.617        1.209        0.199      139.941       18.076        0.017      346.042       24.005      861.104
10/13/2014  18:11:00       49.868       36.461        4.090       30.518       37.641       22.854      931.374     1416.817      522.284        0.335        0.144       61.775       22.164        0.129      345.911       23.780      861.107
10/13/2014  18:12:00       90.158       47.145       20.385       32.280       36.510       30.179     1042.027     1332.971      910.786        0.703        0.164      101.741       17.265        0.029      345.935       23.821      861.113
10/13/2014  18:13:00      104.146       67.726       16.037       33.469       22.628       21.001     1120.185      512.046      441.044        0.888        0.104      124.231       13.500        0.012      345.974       23.888      861.121
10/13/2014  18:14:00       86.433       68.640       20.851       30.118       19.154       22.908      907.075      366.876      524.759        0.721        0.090      110.373       14.069        0.016      345.937       23.825      861.120
10/13/2014  18:15:00       61.978       53.843        9.274       37.136       32.424       26.487     1379.082     1051.331      701.537        0.498        0.157       82.100       22.236        0.073      345.906       23.773      861.132
10/13/2014  18:16:00       25.702       55.169        5.073       35.566       35.224       35.660     1264.908     1240.727     1271.615        0.375        0.189       60.862       27.387        0.202      345.868       23.707      861.142
10/13/2014  18:17:00       59.671       79.416        9.065       47.704       41.619       43.235     2275.683     1732.102     1869.293        0.791        0.294       99.336       29.477        0.088      345.841       23.660      861.147
10/13/2014  18:18:00       51.677       59.326       11.015       59.305       50.611       37.439     3517.072     2561.522     1401.653        0.689        0.374       78.677       19.856        0.064      345.874       23.717      861.153
10/13/2014  18:19:00       49.392       92.434        7.761       48.177       51.468       41.588     2321.006     2648.992     1729.576        0.887        0.335      104.803       38.025        0.132      345.957       23.860      861.148
10/13/2014  18:20:00       29.917      108.456      -12.503       34.482       55.844       35.608     1189.026     3118.570     1267.938        0.919        0.279      112.506       34.113        0.092      345.920       23.796      861.133
10/13/2014  18:21:00       51.301       52.724       10.788       38.400       36.208       34.365     1474.579     1311.035     1180.978        0.475        0.198       73.564       24.080        0.107      345.836       23.652      861.126
10/13/2014  18:22:00       47.228      121.487      -12.446       34.968       60.934       31.823     1222.786     3712.991     1012.698        1.155        0.297      130.344       33.026        0.064      345.819       23.622      861.129
10/13/2014  18:23:00       42.029       76.275      -10.725       38.831       40.301       25.486     1507.816     1624.198      649.512        0.574        0.189       87.088       19.132        0.048      345.747       23.498      861.133
10/13/2014  18:24:00       35.315      105.266      -10.258       26.375       47.547       29.670      695.665     2260.706      880.289        0.813        0.192      111.032       26.362        0.056      345.785       23.564      861.139
10/13/2014  18:25:00       36.269       63.926        2.338       34.569       41.714       26.188     1195.027     1740.050      685.789        0.451        0.181       73.498       22.516        0.094      345.694       23.407      861.153
10/13/2014  18:26:00       63.670       87.101       -6.783       38.198       42.236       32.438     1459.050     1783.864     1052.245        0.799        0.215      107.891       29.382        0.074      345.751       23.505      861.158
10/13/2014  18:27:00       39.270       67.683       -7.611       26.131       40.665       25.139      682.851     1653.656      631.980        0.457        0.148       78.250       26.119        0.111      345.661       23.351      861.169
10/13/2014  18:28:00       34.907       89.887       -4.982       33.732       48.375       25.044     1137.848     2340.110      627.210        0.671        0.205       96.427       26.035        0.073      345.708       23.433      861.185
10/13/2014  18:29:00       17.950      139.443      -12.244       38.302       32.735       24.753     1467.043     1071.580      612.704        1.153        0.158      140.594       19.518        0.019      345.788       23.568      861.186
10/13/2014  18:30:00       30.369      133.996      -23.590       31.904       43.225       23.203     1017.858     1868.360      538.376        1.143        0.171      137.394       15.883        0.013      345.621       23.281      861.194
10/13/2014  18:31:00       11.448      106.635      -21.743       28.395       32.750       16.976      806.249     1072.577      288.178        0.707        0.108      107.247        7.504        0.005      345.614       23.270      861.201
10/13/2014  18:32:00      -18.280       77.113       -7.441       28.307       40.153       25.407      801.290     1612.240      645.526        0.470        0.153       79.250       23.836        0.090      345.586       23.222      861.203
10/13/2014  18:33:00       17.042       97.410      -15.640       29.018       40.383       15.818      842.054     1630.821      250.208        0.637        0.136       98.890       14.866        0.023      345.584       23.220      861.219
10/13/2014  18:34:00       26.017       29.654        0.789       17.025       20.712       14.499      289.863      428.984      210.207        0.124        0.046       39.449        6.194        0.025      345.481       23.040      861.217
10/13/2014  18:35:00        0.249       39.493       -7.507       18.357       29.920        8.276      336.969      895.180       68.486        0.146        0.065       39.494        9.127        0.053      345.480       23.040      861.229
10/13/2014  18:36:00       20.399       69.800       -5.077       21.393       28.473       19.018      457.657      810.717      361.672        0.347        0.082       72.720       17.057        0.055      345.471       23.023      861.250
10/13/2014  18:37:00       43.475       42.246       -5.014       24.057       14.787       12.236      578.732      218.643      149.730        0.232        0.047       60.620        8.439        0.019      345.488       23.054      861.244
10/13/2014  18:38:00       31.380       46.452        7.560       26.329       28.777       22.765      693.241      828.141      518.259        0.262        0.102       56.058       20.479        0.133      345.444       22.978      861.256
10/13/2014  18:39:00      124.715       72.203       33.290       21.947       18.771       19.871      481.663      352.340      394.850        1.155        0.061      144.108       12.337        0.007      345.562       23.180      861.258
10/13/2014  18:40:00      100.253       51.421        9.194       28.725       22.747       18.035      825.112      517.438      325.262        0.722        0.083      112.671       12.068        0.011      345.624       23.287      861.256
10/13/2014  18:41:00       60.346       39.244       19.640       16.214       14.088       14.536      262.892      198.474      211.294        0.312        0.034       71.985        9.902        0.019      345.623       23.285      861.260
10/13/2014  18:42:00       49.129       23.195       17.639       14.425       10.841       13.667      208.073      117.518      186.787        0.189        0.026       54.329        3.490        0.004      345.471       23.023      861.256
10/13/2014  18:43:00       19.177       10.781       -0.578       11.496       14.920       11.269      132.161      222.603      126.995        0.048        0.024       21.999        7.362        0.112      345.304       22.739      861.257
10/13/2014  18:44:00       18.841       66.420      -11.363       22.845       33.385       16.587      521.879     1114.526      275.118        0.340        0.096       69.040       18.531        0.072      345.387       22.880      861.267
10/13/2014  18:45:00       18.580       90.071      -20.703       21.573       17.445       10.560      465.377      304.335      111.512        0.488        0.044       91.967        7.961        0.007      345.364       22.841      861.272
10/13/2014  18:46:00       -8.361       73.848      -15.503       36.399       20.138       10.725     1324.916      405.553      115.026        0.380        0.092       74.320       12.612        0.029      345.324       22.772      861.276
10/13/2014  18:47:00        3.062       91.464      -13.504       21.529       21.885        9.590      463.502      478.970       91.964        0.480        0.052       91.515        6.592        0.005      345.368       22.848      861.287
10/13/2014  18:48:00      -34.439       40.905      -13.376       19.902       26.482       11.880      396.103      701.283      141.140        0.214        0.062       53.472       13.605        0.065      345.189       22.544      861.287
10/13/2014  18:49:00      -22.241       40.796       -5.773       21.649       17.375       11.026      468.698      301.888      121.569        0.154        0.045       46.465        8.520        0.034      345.166       22.503      861.286
10/13/2014  18:50:00      -31.965       45.158      -13.734       16.907       23.269        7.103      285.846      541.454       50.447        0.206        0.044       55.326        5.934        0.012      345.121       22.427      861.292
10/13/2014  18:51:00      -62.170       34.948      -10.778       20.447       38.938       16.831      418.089     1516.174      283.274        0.371        0.111       71.319       18.184        0.065      345.129       22.438      861.279
10/13/2014  18:52:00      -58.164        0.059       -9.436       15.272       14.229       12.232      233.244      202.459      149.628        0.203        0.029       58.164        8.828        0.023      344.842       21.948      861.263
10/13/2014  18:53:00      -66.806       -1.961      -11.676       23.011       14.403       16.025      529.507      207.441      256.792        0.280        0.050       66.835       12.556        0.035      344.685       21.681      861.256
10/13/2014  18:54:00      -79.387       -2.814      -20.282       23.108       23.699       11.654      533.978      561.640      135.822        0.398        0.062       79.437        9.435        0.014      344.620       21.568      861.251
10/13/2014  18:55:00     -101.568      -15.183      -17.186       24.628       21.099       10.561      606.532      445.167      111.544        0.600        0.058      102.697        5.205        0.003      344.422       21.229      861.251
10/13/2014  18:56:00      -68.865       -0.423      -12.257       30.300       24.572       18.424      918.093      603.769      339.462        0.338        0.093       68.866       15.749        0.052      344.374       21.148      861.268
10/13/2014  18:57:00     -118.977       14.183      -12.466       47.307       37.391       21.923     2237.975     1398.077      480.598        0.931        0.206      119.820       24.687        0.042      344.380       21.157      861.275
10/13/2014  18:58:00     -117.665        9.668      -21.621       38.264       27.628       21.194     1464.159      763.312      449.195        0.854        0.134      118.062       17.573        0.022      344.369       21.139      861.296
10/13/2014  18:59:00      -78.920       -3.483      -15.185       67.498       32.947       25.250     4556.026     1085.532      637.571        0.637        0.314       78.997       27.434        0.121      344.304       21.026      861.297
10/13/2014  19:00:00      -54.964       10.099       -9.894       49.802       24.757       20.426     2480.212      612.888      417.202        0.337        0.176       55.884       15.659        0.079      344.416       21.221      861.309
10/13/2014  19:01:00      -96.492       22.730      -19.393       34.987       32.538       22.132     1224.081     1058.743      489.806        0.649        0.139       99.133       16.424        0.027      344.485       21.338      861.310
10/13/2014  19:02:00     -102.998       14.097      -17.126       30.524       32.056       16.735      931.690     1027.569      280.045        0.667        0.112      103.958        9.576        0.008      344.488       21.342      861.313
10/13/2014  19:03:00      -98.015       12.794      -19.919       28.079       22.819       21.647      788.451      520.709      468.609        0.597        0.089       98.847       11.699        0.014      344.321       21.056      861.312
10/13/2014  19:04:00      -69.974       -3.981      -13.829       26.749       24.003       17.250      715.502      576.137      297.561        0.335        0.079       70.087       13.833        0.039      344.241       20.920      861.300
10/13/2014  19:05:00      -65.422        4.441      -12.492       31.539       25.981       18.874      994.702      675.031      356.242        0.324        0.101       65.572       16.057        0.060      344.211       20.870      861.299
10/13/2014  19:06:00      -88.838       -5.333      -15.275       21.996       23.582       19.277      483.832      556.097      371.608        0.478        0.071       88.998       13.761        0.024      344.288       21.001      861.296
10/13/2014  19:07:00     -101.894        0.981      -16.227       28.925       24.022       16.465      836.634      577.057      271.097        0.617        0.084      101.898       14.079        0.019      344.361       21.126      861.310
10/13/2014  19:08:00      -81.100      -13.736      -16.679       32.259       30.529       18.633     1040.664      932.029      347.194        0.468        0.116       82.255        8.167        0.010      344.334       21.079      861.311
10/13/2014  19:09:00     -108.720      -27.681      -13.828       26.001       26.442       17.580      676.027      699.204      309.063        0.723        0.084      112.189       11.108        0.010      344.099       20.677      861.318
10/13/2014  19:10:00      -78.580        1.789      -13.953       28.423       28.039       17.570      807.877      786.206      308.709        0.414        0.095       78.600       12.445        0.025      344.307       21.032      861.320
10/13/2014  19:11:00      -67.046       -8.413      -11.387       24.927       22.275       15.467      621.359      496.160      239.218        0.303        0.068       67.572       10.981        0.026      344.348       21.102      861.321
10/13/2014  19:12:00      -60.983       -3.576      -12.271       14.300       18.024       12.011      204.482      324.871      144.271        0.228        0.034       61.088        9.451        0.024      344.308       21.035      861.311
10/13/2014  19:13:00     -101.418        5.592      -20.575       20.894       22.803       12.141      436.552      519.969      147.411        0.592        0.055      101.572       10.315        0.010      344.041       20.579      861.302
10/13/2014  19:14:00      -93.718        6.500      -16.037       36.539       30.845       21.439     1335.087      951.443      459.629        0.591        0.137       93.943       15.969        0.029      344.057       20.605      861.303
10/13/2014  19:15:00     -168.839       35.285      -25.871       65.711       41.904       21.369     4317.875     1755.939      456.629        1.847        0.327      172.487       16.901        0.010      344.227       20.895      861.302
10/13/2014  19:16:00     -232.005       67.065      -21.877       54.448       42.192       27.473     2964.568     1780.178      754.750        3.215        0.275      241.504       19.546        0.007      344.389       21.168      861.301
10/13/2014  19:17:00     -191.091       78.720      -20.019       57.570       32.520       24.891     3314.297     1057.535      619.548        2.405        0.250      206.670       15.877        0.006      344.599       21.530      861.322
10/13/2014  19:18:00     -156.941       59.349      -22.292       46.647       34.438       28.011     2175.902     1185.986      784.634        1.640        0.207      167.788       16.510        0.010      344.690       21.687      861.333
10/13/2014  19:19:00     -116.360       61.599      -18.505       36.458       36.556       24.801     1329.182     1336.324      615.102        1.048        0.164      131.659       21.399        0.026      344.917       22.076      861.339
10/13/2014  19:20:00      -64.756       92.519      -19.786       28.732       35.831       24.351      825.523     1283.877      592.975        0.792        0.135      112.930       17.788        0.025      345.186       22.536      861.333
10/13/2014  19:21:00      -17.662      134.596      -20.525       25.609       25.866       11.412      655.799      669.037      130.242        1.015        0.073      135.750        7.311        0.003      345.232       22.615      861.340
10/13/2014  19:22:00       33.013      170.980      -27.286       25.644       26.721       15.727      657.617      714.037      247.341        1.634        0.081      174.138       13.684        0.006      345.379       22.866      861.333
10/13/2014  19:23:00       33.682      160.528      -22.916       31.112       40.331       27.834      967.984     1626.573      774.747        1.540        0.168      164.023       27.127        0.027      345.319       22.764      861.340
10/13/2014  19:24:00       30.426      134.844      -17.280       28.879       27.663       22.801      833.973      765.268      519.892        1.076        0.106      138.234       19.217        0.019      344.915       22.072      861.335
10/13/2014  19:25:00      -13.741      174.821      -25.749       42.150       28.545       14.828     1776.634      814.820      219.876        1.711        0.141      175.361       11.811        0.005      344.823       21.914      861.347
10/13/2014  19:26:00      -54.269      166.388      -21.915       27.627       46.045       18.964      763.242     2120.180      359.622        1.718        0.162      175.014       18.471        0.011      344.840       21.942      861.358
10/13/2014  19:27:00      -58.442      206.536      -26.550       27.403       40.525       27.656      750.949     1642.265      764.829        2.497        0.158      214.645       25.513        0.014      345.040       22.285      861.384
10/13/2014  19:28:00       25.334      221.401      -30.831       32.987       36.073       20.314     1088.150     1301.275      412.654        2.671        0.140      222.846       14.769        0.004      345.103       22.391      861.380
10/13/2014  19:29:00       18.765      142.540       -8.472       49.672       68.006       38.370     2467.303     4624.816     1472.285        1.465        0.428      143.770       34.939        0.059      344.856       21.972      861.358
10/13/2014  19:30:00      -62.387      152.026      -33.194       50.942       91.696       22.701     2595.045     8408.223      515.325        1.981        0.576      164.329       25.848        0.025      344.751       21.788      861.370
10/13/2014  19:31:00      -80.129       34.716      -11.091       40.215       28.876       20.391     1617.219      833.802      415.806        0.531        0.143       87.326       13.803        0.025      344.454       21.285      861.381
10/13/2014  19:32:00      -92.239       25.311      -20.958       28.041       36.462       20.964      786.316     1329.448      439.505        0.607        0.128       95.649       20.340        0.045      344.453       21.283      861.391
10/13/2014  19:33:00     -106.119      -49.757       -8.255       63.421       32.799       18.976     4022.190     1075.770      360.075        0.963        0.273      117.205       21.597        0.034      344.265       20.961      861.383
10/13/2014  19:34:00      -89.592      -45.555       -5.261       33.609       29.688       16.239     1129.552      881.361      263.697        0.620        0.114      100.509        4.574        0.002      344.071       20.629      861.384
10/13/2014  19:35:00      -71.198      -41.107       -8.430       46.091       49.939       21.299     2124.388     2493.876      453.650        0.595        0.254       82.213       18.215        0.049      344.013       20.529      861.399
10/13/2014  19:36:00     -201.173     -123.861       -9.409       52.540       43.977       30.985     2760.496     1933.939      960.061        3.078        0.283      236.246       25.630        0.012      344.030       20.554      861.413
10/13/2014  19:37:00     -204.171      -79.081       -3.823       77.686       78.120       44.127     6035.177     6102.660     1947.157        3.102        0.704      218.952       44.851        0.042      343.878       20.296      861.449
10/13/2014  19:38:00     -189.462       20.460      -15.850       83.861       65.897       38.568     7032.750     4342.374     1487.493        2.471        0.643      190.563       40.735        0.046      343.909       20.350      861.464
10/13/2014  19:39:00     -150.035      102.647      -21.483       50.505       54.789       34.984     2550.709     3001.865     1223.848        2.014        0.339      181.788       34.656        0.036      344.497       21.356      861.446
10/13/2014  19:40:00     -159.296      160.891      -37.724       71.962       66.820       42.978     5178.564     4464.929     1847.125        3.209        0.575      226.409       43.128        0.036      344.602       21.534      861.439
10/13/2014  19:41:00     -147.867      210.036      -46.649       61.917       74.259       42.675     3833.719     5514.387     1821.128        3.966        0.558      256.866       36.616        0.020      344.599       21.528      861.436
10/13/2014  19:42:00        4.741      271.202      -36.343       63.781       83.291       38.735     4068.069     6937.396     1500.418        4.370        0.625      271.243       40.415        0.022      344.804       21.880      861.405
10/13/2014  19:43:00       55.108      199.309      -29.120       55.251       73.802       37.455     3052.647     5446.805     1402.873        2.675        0.495      206.787       43.821        0.045      344.678       21.664      861.388
10/13/2014  19:44:00       11.233      161.220      -22.886       42.977       42.930       26.102     1847.052     1842.997      681.340        1.551        0.219      161.611       18.699        0.013      344.723       21.745      861.402
10/13/2014  19:45:00       13.066      128.084      -13.566       45.895       64.883       25.470     2106.395     4209.843      648.703        1.186        0.348      128.749       30.801        0.057      344.590       21.516      861.424
10/13/2014  19:46:00       29.604       70.993       -4.024       29.993       41.012       24.551      899.571     1682.005      602.734        0.456        0.159       76.918       25.610        0.111      344.479       21.326      861.420
10/13/2014  19:47:00       45.478       78.762       -6.451       49.610       30.938       22.326     2461.194      957.174      498.458        0.611        0.196       90.949       19.310        0.045      344.391       21.177      861.418
10/13/2014  19:48:00       -1.648       23.102        4.927       49.805       33.143       23.255     2480.569     1098.463      540.803        0.234        0.206       23.161        9.306        0.161      344.442       21.263      861.434
10/13/2014  19:49:00     -120.394      -47.827      -13.501       77.165       53.174       29.324     5954.385     2827.476      859.869        1.330        0.482      129.545       14.573        0.013      344.191       20.833      861.445
10/13/2014  19:50:00     -122.146      -52.444       -2.664       47.060       57.824       24.214     2214.666     3343.637      586.314        1.191        0.307      132.929       21.183        0.025      344.142       20.749      861.461
10/13/2014  19:51:00     -118.813       38.995      -15.199       37.155       20.804       14.359     1380.515      432.811      206.194        0.894        0.101      125.048       10.390        0.007      344.025       20.552      861.496
10/13/2014  19:52:00      -66.777       50.436       -7.322       46.805       26.964       15.864     2190.727      727.077      251.666        0.511        0.158       83.684       12.101        0.021      344.112       20.700      861.507
10/13/2014  19:53:00       69.715       61.511        1.678       51.823       38.895       22.317     2685.661     1512.797      498.034        0.667        0.235       92.972       24.001        0.067      344.246       20.928      861.465
10/13/2014  19:54:00       54.906        3.004       10.915       48.309       36.005       26.884     2333.760     1296.372      722.733        0.375        0.218       54.988       15.802        0.083      344.068       20.624      861.420
10/13/2014  19:55:00      -46.965      -15.402       -8.327       38.685       24.774       23.677     1496.495      613.775      560.603        0.259        0.134       49.425       15.901        0.104      344.427       21.239      861.422
10/13/2014  19:56:00      -30.245       28.144       -7.072       34.674       20.538       21.150     1202.302      421.791      447.325        0.191        0.104       41.314       13.173        0.102      344.901       22.049      861.421
10/13/2014  19:57:00      -18.773       64.793      -13.036       19.886       30.388       12.929      395.457      923.460      167.156        0.310        0.074       67.458       15.704        0.054      345.110       22.408      861.428
10/13/2014  19:58:00      -24.319       -1.124       -2.119       16.861       15.190        9.745      284.289      230.748       94.972        0.060        0.031       24.345       10.511        0.186      344.794       21.864      861.421
10/13/2014  19:59:00        2.511       60.475       -5.706       23.542       25.414       15.979      554.248      645.863      255.316        0.258        0.073       60.528        9.700        0.026      344.780       21.841      861.415
10/13/2014  20:00:00       -3.532       46.417      -11.476       12.120       17.511        7.246      146.892      306.644       52.500        0.140        0.025       46.551        6.678        0.021      344.664       21.643      861.434
10/13/2014  20:01:00       14.585       55.466       -2.985       17.278       14.595       10.303      298.520      213.005      106.160        0.196        0.031       57.351        4.444        0.006      344.824       21.917      861.439
10/13/2014  20:02:00       46.780       38.153       -3.576       11.464       25.802       18.833      131.423      665.729      354.674        0.240        0.058       60.366       11.073        0.034      344.606       21.543      861.432
10/13/2014  20:03:00       24.636       -7.535      -10.880       19.411       21.232       18.988      376.785      450.809      360.545        0.098        0.059       25.763       13.175        0.262      344.504       21.369      861.445
10/13/2014  20:04:00      -14.462       -8.626      -11.794       10.503       18.944       13.647      110.317      358.863      186.241        0.054        0.033       16.839        7.089        0.177      344.440       21.260      861.450
10/13/2014  20:05:00       49.943       25.739       15.190       16.633       16.363       16.593      276.659      267.737      275.337        0.210        0.041       56.186       12.763        0.052      344.201       20.853      861.446
10/13/2014  20:06:00       59.704       17.578        9.673       23.415       18.450       13.600      548.242      340.398      184.974        0.252        0.054       62.238        8.788        0.020      344.332       21.074      861.447
10/13/2014  20:07:00       39.698       21.578       19.480       25.779       20.139       18.092      664.545      405.587      327.323        0.191        0.070       45.183       16.114        0.127      344.246       20.928      861.466
10/13/2014  20:08:00       80.687       27.209       14.822       31.125       15.366       18.312      968.741      236.107      335.313        0.451        0.077       85.151       14.488        0.029      344.103       20.685      861.479
10/13/2014  20:09:00       47.355        9.003       19.507       23.995       20.596       20.988      575.765      424.191      440.509        0.207        0.072       48.203       15.866        0.108      344.028       20.556      861.494
10/13/2014  20:10:00       71.323       22.496       19.945       19.070       26.533       25.016      363.655      703.998      625.799        0.384        0.085       74.786       19.744        0.070      344.075       20.636      861.498
10/13/2014  20:11:00       80.696       38.580       28.602       46.640       34.634       33.146     2175.323     1199.507     1098.680        0.665        0.224       89.444       22.293        0.062      344.299       21.020      861.504
10/13/2014  20:12:00       57.927       44.492       44.399       54.290       25.463       24.504     2947.377      648.354      600.436        0.575        0.210       73.041       13.850        0.036      344.311       21.039      861.517
10/13/2014  20:13:00      110.324       45.041       26.800       52.843       40.334       30.926     2792.386     1626.846      956.404        1.015        0.269      119.164       28.204        0.056      344.140       20.746      861.523
10/13/2014  20:14:00      169.301       45.432       21.913       59.322       42.225       37.758     3519.109     1782.966     1425.630        1.897        0.336      175.290       28.212        0.026      344.861       21.980      861.535
10/13/2014  20:15:00       42.839       22.467       15.921       39.873       36.760       26.210     1589.865     1351.272      686.943        0.311        0.181       48.373       20.485        0.179      344.678       21.666      861.574
10/13/2014  20:16:00       58.558       15.789       12.112       47.985       42.193       27.419     2302.599     1780.273      751.784        0.433        0.242       60.649       25.628        0.179      344.765       21.816      861.592
10/13/2014  20:17:00       84.215       47.416       26.476       48.388       31.179       33.308     2341.390      972.126     1109.434        0.723        0.221       96.646       30.695        0.101      344.547       21.444      861.574
10/13/2014  20:18:00       95.795       25.672       25.115       41.510       29.399       23.805     1723.095      864.311      566.698        0.681        0.158       99.175       17.951        0.033      344.528       21.410      861.575
10/13/2014  20:19:00       13.234       10.605       25.183       24.371       20.014       17.186      593.969      400.558      295.350        0.111        0.064       16.959        7.024        0.172      344.323       21.061      861.565
10/13/2014  20:20:00      -15.104      -26.323        7.390       30.272       31.598       10.295      916.424      998.459      105.994        0.150        0.101       30.348        7.024        0.054      344.227       20.895      861.572
10/13/2014  20:21:00      -55.929        0.875       -8.390       10.364        7.241        6.976      107.408       52.434       48.661        0.170        0.010       55.935        3.603        0.004      344.149       20.764      861.596
10/13/2014  20:22:00      -47.884        0.180       -7.141       11.396        7.055        6.695      129.860       49.774       44.824        0.128        0.011       47.885        4.859        0.010      344.358       21.121      861.598
10/13/2014  20:23:00       -9.501       24.640       -0.087       24.412       13.282       10.122      595.968      176.417      102.460        0.079        0.044       26.408       10.691        0.164      344.543       21.435      861.592
10/13/2014  20:24:00       -6.028        9.864        0.936        8.242        7.513        6.786       67.927       56.452       46.056        0.015        0.009       11.560        5.841        0.255      344.704       21.712      861.594
10/13/2014  20:25:00       -0.317       -1.089       -2.032        9.587        7.102       11.234       91.913       50.438      126.213        0.014        0.013        1.134        9.927       76.650      344.579       21.498      861.601
10/13/2014  20:26:00       28.249       35.675       -5.723       23.147       27.723       17.278      535.791      768.582      298.532        0.185        0.080       45.505       17.625        0.150      344.702       21.708      861.597
10/13/2014  20:27:00      104.763       39.522        9.599       38.024       25.758       20.272     1445.800      663.464      410.970        0.757        0.126      111.970       16.659        0.022      344.622       21.571      861.564
10/13/2014  20:28:00       33.434       58.267       -4.508       34.267       50.151       23.543     1174.248     2515.076      554.293        0.439        0.212       67.179       23.625        0.124      344.406       21.201      861.557
10/13/2014  20:29:00       77.622      114.770      -20.107       38.101       57.244       27.813     1451.705     3276.835      773.540        1.255        0.275      138.554       23.363        0.028      344.697       21.700      861.546
10/13/2014  20:30:00       58.219       42.161        8.916       32.323       30.248       28.473     1044.793      914.960      810.717        0.401        0.139       71.882       14.070        0.038      344.480       21.329      861.542
10/13/2014  20:31:00       89.305       23.297        6.872       42.377       40.244       24.903     1795.852     1619.584      620.136        0.630        0.202       92.294       20.394        0.049      344.490       21.347      861.545
10/13/2014  20:32:00       42.509      -12.678        9.090       52.445       33.987       21.177     2750.527     1155.100      448.485        0.320        0.218       44.359       22.532        0.258      344.190       20.833      861.550
10/13/2014  20:33:00      -62.666       -7.879       -1.806       26.943       28.675       13.021      725.901      822.242      169.558        0.285        0.086       63.159       14.132        0.050      344.057       20.606      861.560
10/13/2014  20:34:00      -43.046      -33.281       -6.595       29.554       13.644       12.027      873.460      186.149      144.653        0.210        0.060       54.411       10.818        0.040      344.334       21.079      861.559
10/13/2014  20:35:00     -131.725      -38.828      -11.503       39.126       16.331       12.838     1530.836      266.699      164.824        1.048        0.098      137.328       13.413        0.010      343.714       20.021      861.560
10/13/2014  20:36:00      -50.369      -35.075      -14.988       76.927       37.811       21.581     5917.752     1429.660      465.734        0.590        0.391       61.378       17.834        0.084      344.593       21.522      861.556
10/13/2014  20:37:00        9.178       14.181       -3.973       37.791       24.013       11.824     1428.163      576.601      139.811        0.122        0.107       16.892        8.845        0.274      344.606       21.544      861.546
10/13/2014  20:38:00      -34.347       -5.305       -0.581       47.854       33.893       23.001     2289.958     1148.721      529.028        0.259        0.198       34.754       26.977        0.603      344.483       21.333      861.546
10/13/2014  20:39:00      -87.192      -28.486      -19.858       32.396       21.895       16.333     1049.526      479.403      266.751        0.530        0.090       91.727       15.243        0.028      344.697       21.700      861.557
10/13/2014  20:40:00      -37.603       -2.613        0.517       12.021       11.940        8.736      144.499      142.552       76.323        0.089        0.018       37.694        5.744        0.023      344.458       21.292      861.564
10/13/2014  20:41:00       -4.873       -4.275       -1.764        4.567        8.746        3.017       20.860       76.494        9.103        0.008        0.005        6.483        2.690        0.172      344.461       21.297      861.572
10/13/2014  20:42:00      -15.342       -0.012       -3.539       11.075        8.096        4.191      122.656       65.540       17.567        0.023        0.010       15.342        4.664        0.092      344.422       21.226      861.579
10/13/2014  20:43:00     -125.244       44.839      -15.838       46.785       35.611       23.637     2188.870     1268.158      558.708        1.098        0.201      133.028       22.018        0.027      344.017       20.538      861.591
10/13/2014  20:44:00      -58.009       54.590      -10.345       64.317       38.080       32.610     4136.710     1450.115     1063.392        0.655        0.333       79.656       41.602        0.273      344.221       20.886      861.585
10/13/2014  20:45:00       -4.535       24.292        0.230       20.493       18.631       13.600      419.967      347.111      184.948        0.078        0.048       24.712        7.949        0.103      344.291       21.007      861.578
10/13/2014  20:46:00       32.164       72.256      -11.145       21.883       30.639       14.592      478.872      938.722      212.929        0.400        0.082       79.091       12.093        0.023      344.321       21.058      861.585
10/13/2014  20:47:00       89.057       68.968        9.598       24.863       27.447       22.011      618.178      753.347      484.488        0.732        0.093      112.639       18.843        0.028      344.503       21.368      861.567
10/13/2014  20:48:00       29.970       26.537        0.416       35.654       21.831       16.454     1271.219      476.577      270.722        0.181        0.101       40.030        7.981        0.040      344.151       20.767      861.563
10/13/2014  20:49:00       38.485        4.459        2.131       20.042       26.247       19.287      401.699      688.897      372.001        0.148        0.073       38.743       17.350        0.201      344.229       20.899      861.584
10/13/2014  20:50:00       -6.847       26.045        4.124       15.002       12.597       13.539      225.060      158.684      183.316        0.065        0.028       26.930        6.645        0.061      344.326       21.066      861.604
10/13/2014  20:51:00      -12.127      -38.422       -2.525       12.531       23.811        7.312      157.020      566.949       53.469        0.120        0.039       40.290        5.120        0.016      343.951       20.424      861.597
10/13/2014  20:52:00       -8.876      -65.213       -3.636       12.173       21.141        9.654      148.191      446.929       93.200        0.252        0.034       65.814        5.413        0.007      344.233       20.905      861.602
10/13/2014  20:53:00       24.648      -38.341       -5.239       47.616       25.735       15.115     2267.246      662.272      228.452        0.263        0.158       45.580       12.091        0.070      344.376       21.151      861.608
10/13/2014  20:54:00       39.476       13.259       42.209       47.567       77.792       50.761     2262.579     6051.605     2576.726        0.720        0.545       41.643       61.024        2.147      344.220       20.885      861.597
10/13/2014  20:55:00       32.747       69.799       53.419       34.754       30.313       32.037     1207.852      918.859     1026.391        0.597        0.158       77.099       26.507        0.118      344.283       20.991      861.596
10/13/2014  20:56:00       43.708       46.729       42.555       34.232       40.518       25.019     1171.845     1641.689      625.966        0.467        0.172       63.984       22.673        0.126      344.408       21.206      861.590
10/13/2014  20:57:00       49.513       40.562        9.848       27.603       18.818       24.922      761.899      354.110      621.099        0.297        0.087       64.007       12.076        0.036      344.273       20.976      861.573
10/13/2014  20:58:00       14.957       17.612       13.820       34.960       19.099       16.261     1222.202      364.756      264.426        0.129        0.093       23.106       13.091        0.321      343.986       20.486      861.565
10/13/2014  20:59:00      -69.412      -41.607       -1.225       55.197       37.421       31.823     3046.679     1400.313     1012.709        0.600        0.273       80.927       24.579        0.092      343.212       19.164      861.568
10/13/2014  21:00:00     -128.412      -75.113       -3.419       23.370       30.062       15.518      546.156      903.695      240.820        1.192        0.085      148.767       10.319        0.005      343.360       19.416      861.563
10/13/2014  21:01:00     -134.085      -17.487       -7.690       45.612       24.800       23.760     2080.481      615.027      564.548        1.080        0.163      135.221       23.857        0.031      343.273       19.267      861.568
10/13/2014  21:02:00     -121.711      -29.997      -10.249       27.102       14.645       14.846      734.540      214.467      220.417        0.849        0.058      125.353        9.176        0.005      343.594       19.816      861.580
10/13/2014  21:03:00      -98.230      -27.949       -6.053       12.087        7.700        9.008      146.106       59.286       81.147        0.538        0.014      102.129        7.780        0.006      343.896       20.331      861.596
10/13/2014  21:04:00      -51.233      -42.453       -1.354       19.654       11.243        8.434      386.269      126.412       71.138        0.251        0.029       66.536        6.978        0.011      343.740       20.066      861.598
10/13/2014  21:05:00      -28.926      -21.715      -10.431        6.962        7.735        6.217       48.463       59.826       38.647        0.078        0.007       36.170        3.957        0.012      343.799       20.165      861.577
10/13/2014  21:06:00      -69.358      -37.157       -6.249       11.973       12.017        7.637      143.349      144.414       58.322        0.329        0.017       78.684        5.783        0.005      343.581       19.795      861.567
10/13/2014  21:07:00      -42.502      -36.881      -11.450       11.497        6.557        4.615      132.190       42.996       21.302        0.175        0.010       56.273        3.384        0.004      344.029       20.558      861.564
10/13/2014  21:08:00      -24.919      -31.110       -3.042       18.310        9.236       11.120      335.263       85.301      123.649        0.107        0.027       39.860        6.872        0.030      343.589       19.807      861.564
10/13/2014  21:09:00      -78.861      -16.240       -8.241       12.050       11.013        7.256      145.201      121.278       52.643        0.343        0.016       80.515        4.041        0.003      343.083       18.945      861.559
10/13/2014  21:10:00     -120.598      -31.589      -18.370       17.869        9.653        8.731      319.289       93.187       76.235        0.818        0.024      124.667        5.406        0.002      343.203       19.150      861.553
10/13/2014  21:11:00     -106.212      -26.397       -9.602       18.928       16.193       13.335      358.268      262.207      177.810        0.643        0.040      109.444       11.904        0.012      343.019       18.837      861.548
10/13/2014  21:12:00      -81.536      -26.514      -10.595       51.327       26.807       10.347     2634.492      718.590      107.055        0.546        0.173       85.739       17.707        0.043      343.120       19.009      861.541
10/13/2014  21:13:00      -65.165      -42.195       -2.020       71.996       47.993       23.510     5183.401     2303.316      552.735        0.703        0.402       77.633       34.223        0.194      343.826       20.213      861.526
10/13/2014  21:14:00      -10.842      -36.371        7.053       71.106       25.723       30.190     5056.124      661.670      911.407        0.406        0.331       37.952       41.768        1.211      342.752       18.381      861.538
10/13/2014  21:15:00       -2.259        7.991        3.062       26.020       15.816       13.751      677.044      250.151      189.081        0.060        0.056        8.304       10.554        1.615      342.948       18.715      861.529
10/13/2014  21:16:00      -16.136      -17.691       -3.227       18.159       45.647       14.535      329.762     2083.667      211.266        0.160        0.131       23.944       16.838        0.494      343.213       19.165      861.553
10/13/2014  21:17:00      -57.437      -74.982        4.557       64.034       49.623       32.448     4100.356     2462.397     1052.894        0.828        0.381       94.453       38.299        0.164      343.942       20.410      861.571
10/13/2014  21:18:00       21.849      -40.883       14.933       22.473       33.483       31.966      505.031     1121.121     1021.844        0.251        0.132       46.355       28.828        0.387      343.949       20.423      861.563
10/13/2014  21:19:00        4.308       -3.578       -0.371       35.534       32.459       15.708     1262.631     1053.593      246.753        0.130        0.128        5.601       22.919       16.746      343.434       19.542      861.560
10/13/2014  21:20:00      -70.044       38.108       -1.252       39.025       24.668       23.548     1522.953      608.515      554.525        0.452        0.134       79.740       23.747        0.089      343.491       19.639      861.578
10/13/2014  21:21:00      -93.701       -7.795      -14.900       35.011       30.245       16.899     1225.740      914.749      285.583        0.574        0.121       94.025       16.786        0.032      342.740       18.361      861.599
10/13/2014  21:22:00      -38.909       15.677       -5.425       23.968       16.302        9.788      574.444      265.753       95.805        0.136        0.047       41.949       11.686        0.078      343.929       20.387      861.592
10/13/2014  21:23:00      -60.675       27.546       -7.233       25.027       35.747       14.447      626.367     1277.839      208.720        0.330        0.106       66.635       13.765        0.043      343.697       19.992      861.571
10/13/2014  21:24:00     -112.022     -112.351        5.212       84.464       73.438       41.433     7134.127     5393.202     1716.654        1.972        0.712      158.656       37.787        0.057      343.852       20.255      861.552
10/13/2014  21:25:00     -197.106     -127.462      -11.655       87.773       78.849       49.992     7704.179     6217.234     2499.196        3.582        0.821      234.728       48.555        0.043      344.513       21.382      861.536
10/13/2014  21:26:00      -67.241      -25.174        6.011       46.146       46.315       18.887     2129.410     2145.098      356.732        0.491        0.232       71.799       17.713        0.061      344.230       20.902      861.517
10/13/2014  21:27:00     -118.931        2.229       -3.675       43.179       51.189       22.450     1864.446     2620.358      503.982        0.958        0.249      118.952       22.639        0.036      344.249       20.935      861.521
10/13/2014  21:28:00     -120.145      -56.580       -0.820       79.528       40.779       27.011     6324.683     1662.888      729.605        1.318        0.436      132.801       24.403        0.034      344.085       20.653      861.545
10/13/2014  21:29:00      -37.027      -20.598        3.249       29.102       32.278       13.808      846.935     1041.865      190.668        0.194        0.104       42.371       15.877        0.140      343.677       19.958      861.570
10/13/2014  21:30:00      -24.779      -31.001       -0.341       26.532       21.185       12.307      703.943      448.802      151.455        0.144        0.065       39.687       14.949        0.142      344.026       20.554      861.569
10/13/2014  21:31:00      -30.863      -35.217        2.749       45.445       35.989       20.268     2065.257     1295.173      410.792        0.299        0.189       46.827       26.095        0.311      343.986       20.485      861.580
10/13/2014  21:32:00       20.327      -18.596       19.172       40.325       59.982       33.351     1626.108     3597.900     1112.273        0.373        0.317       27.550       40.561        2.168      343.650       19.909      861.553
10/13/2014  21:33:00     -115.709       -0.215       -5.844       74.700       49.945       27.619     5580.150     2494.513      762.788        1.113        0.442      115.710       37.655        0.106      343.348       19.397      861.562
10/13/2014  21:34:00      -41.161        6.007        3.781       45.547       27.320       21.849     2074.498      746.403      477.369        0.252        0.165       41.597       22.632        0.296      343.375       19.443      861.571
10/13/2014  21:35:00      -38.524      -17.249       -0.359       37.899       24.189       15.183     1436.342      585.109      230.511        0.202        0.113       42.210       13.857        0.108      343.500       19.656      861.558
10/13/2014  21:36:00      -78.185      -30.559      -11.358       37.066       25.967       17.220     1373.899      674.293      296.528        0.476        0.117       83.945       20.290        0.058      343.675       19.953      861.553
10/13/2014  21:37:00      -29.746      -44.355        2.126       46.307       32.458       22.257     2144.359     1053.536      495.366        0.327        0.185       53.406       23.894        0.200      343.489       19.637      861.542
10/13/2014  21:38:00      -42.515      -39.305        4.132       41.152       25.407       19.658     1693.465      645.516      386.437        0.305        0.136       57.899        7.895        0.019      343.157       19.070      861.538
10/13/2014  21:39:00      -54.751      -37.240        1.056       22.080       24.386       16.943      487.532      594.693      287.052        0.288        0.068       66.216       13.690        0.043      343.156       19.069      861.540
10/13/2014  21:40:00      -49.710      -41.943       -2.319       32.345       24.551       17.737     1046.213      602.765      314.598        0.310        0.098       65.041       15.265        0.055      343.303       19.319      861.541
10/13/2014  21:41:00      -72.888      -62.829       -2.414       42.084       44.768       20.531     1771.021     2004.167      421.517        0.673        0.210       96.230       16.759        0.030      343.417       19.513      861.537
10/13/2014  21:42:00      -71.068      -70.632       -2.369       39.527       28.897       22.071     1562.416      835.032      487.127        0.646        0.144      100.197       22.466        0.050      343.382       19.456      861.524
10/13/2014  21:43:00      -76.983      -43.039       -2.819       33.347       24.320       16.664     1112.043      591.462      277.705        0.488        0.099       88.197       13.231        0.023      343.436       19.546      861.537
10/13/2014  21:44:00      -69.423      -29.195        0.279       30.901       27.898       13.175      954.843      778.308      173.587        0.379        0.095       75.312       13.083        0.030      343.175       19.102      861.539
10/13/2014  21:45:00      -26.183      -25.949       -0.689       19.376       14.010       10.417      375.444      196.286      108.518        0.102        0.034       36.863        7.902        0.046      343.018       18.834      861.534
10/13/2014  21:46:00      -70.420      -22.610       -3.605       13.433       13.898        9.174      180.432      193.150       84.171        0.297        0.023       73.961        6.925        0.009      343.124       19.014      861.530
10/13/2014  21:47:00      -47.293      -22.097       -4.159       25.921       22.873       12.571      671.876      523.196      158.025        0.205        0.068       52.200       11.214        0.046      342.879       18.598      861.551
10/13/2014  21:48:00      -45.680      -66.525       -2.651       15.829       15.231        9.311      250.572      231.975       86.698        0.354        0.028       80.699        6.269        0.006      343.161       19.078      861.537
10/13/2014  21:49:00      -73.882     -100.619       -2.448       38.117       48.583       25.421     1452.883     2360.293      646.228        1.002        0.223      124.831       23.601        0.036      343.397       19.481      861.535
10/13/2014  21:50:00      -71.375      -41.070       -5.582       44.587       28.062       17.905     1988.029      787.457      320.596        0.495        0.155       82.348       10.066        0.015      343.108       18.986      861.535
10/13/2014  21:51:00      -36.754      -18.110       -3.364       27.649       24.070       14.221      764.455      579.346      202.243        0.162        0.077       40.974       12.361        0.091      342.954       18.726      861.536
10/13/2014  21:52:00      -72.753      -29.881       -3.191       29.343       20.730       15.102      861.028      429.744      228.075        0.386        0.076       78.651       10.857        0.019      343.091       18.958      861.530
10/13/2014  21:53:00      -64.262      -54.632        2.661       30.802       27.909       18.881      948.787      778.896      356.508        0.460        0.104       84.346       16.094        0.036      342.868       18.578      861.536
10/13/2014  21:54:00      -55.772     -123.395       -1.903       28.681       39.695       18.614      822.623     1575.722      346.495        1.054        0.137      135.414        8.131        0.004      343.094       18.964      861.539
10/13/2014  21:55:00      -56.872      -93.671        6.810       45.035       57.633       30.628     2028.174     3321.515      938.077        0.917        0.314      109.584       26.425        0.058      342.872       18.585      861.561
10/13/2014  21:56:00      -70.150      -89.175       -8.870       31.347       47.093       18.789      982.616     2217.743      353.042        0.825        0.178      113.460       14.900        0.017      342.849       18.544      861.576
10/13/2014  21:57:00      -21.858      -85.212       -7.064       41.369       45.613       28.686     1711.397     2080.559      822.858        0.620        0.231       87.971       11.220        0.016      342.866       18.576      861.574
10/13/2014  21:58:00      -73.419      -29.656       -3.575       39.890       30.050       16.017     1591.206      903.023      256.552        0.452        0.138       79.182       11.549        0.021      342.768       18.408      861.576
10/13/2014  21:59:00     -113.749      -54.836        0.349       31.252       41.425       15.489      976.696     1716.006      239.904        0.944        0.147      126.277       16.138        0.016      342.597       18.116      861.582
10/13/2014  22:00:00      -59.756     -124.021       -1.873       43.129       50.627       21.686     1860.073     2563.053      470.277        1.192        0.245      137.666       21.536        0.024      342.711       18.311      861.575
10/13/2014  22:01:00      -54.580     -100.501      -11.400       33.767       58.104       22.271     1140.241     3376.021      495.989        0.911        0.251      114.365       12.676        0.012      342.841       18.532      861.570
10/13/2014  22:02:00      -56.437      -71.792        2.209       45.253       38.254       20.377     2047.875     1463.378      415.238        0.613        0.196       91.320       18.544        0.041      342.655       18.217      861.578
10/13/2014  22:03:00      -59.385     -120.465       -3.131       54.936       45.476       28.461     3018.014     2068.021      810.052        1.197        0.295      134.307       20.996        0.024      343.046       18.882      861.555
10/13/2014  22:04:00      -64.579      -82.946       10.176       56.468       45.488       29.122     3188.593     2069.150      848.114        0.863        0.305      105.121       28.702        0.075      342.852       18.551      861.560
10/13/2014  22:05:00      -78.979      -64.075       -6.885       49.332       31.765       21.310     2433.629     1009.005      454.115        0.714        0.195      101.702       20.459        0.040      342.572       18.074      861.574
10/13/2014  22:06:00      -61.220      -71.563       -3.229       34.758       24.911       17.023     1208.138      620.539      289.782        0.550        0.106       94.176       17.333        0.034      342.456       17.880      861.567
10/13/2014  22:07:00      -89.923      -40.536       -2.494       22.433       16.495       14.113      503.244      272.095      199.187        0.535        0.049       98.638        5.362        0.003      342.539       18.020      861.571
10/13/2014  22:08:00      -76.293      -56.715       -4.874       38.423       38.694       26.905     1476.338     1497.221      723.900        0.638        0.185       95.065       17.858        0.035      342.596       18.117      861.590
10/13/2014  22:09:00      -96.786      -35.353        4.011       35.158       30.622       17.925     1236.076      937.696      321.321        0.656        0.125      103.041       14.686        0.020      342.498       17.949      861.588
10/13/2014  22:10:00     -125.792      -34.075       -5.660       35.132       32.402       18.027     1234.249     1049.889      324.972        0.981        0.130      130.325       16.807        0.017      342.376       17.743      861.601
10/13/2014  22:11:00     -116.707      -55.494       -1.958       51.487       33.641       19.763     2650.873     1131.725      390.565        1.044        0.209      129.229       20.591        0.025      342.364       17.722      861.602
10/13/2014  22:12:00     -138.903      -54.205        1.266       33.372       28.845       19.221     1113.722      832.041      369.466        1.227        0.116      149.105       18.120        0.015      342.412       17.803      861.595
10/13/2014  22:13:00     -114.069      -87.660       -0.363       44.012       36.045       22.017     1937.041     1299.247      484.767        1.221        0.186      143.861       22.167        0.024      342.752       18.381      861.588
10/13/2014  22:14:00     -110.839     -113.598       -5.805       35.071       29.510       24.535     1229.955      870.817      601.961        1.396        0.135      158.713       15.768        0.010      342.931       18.686      861.599
10/13/2014  22:15:00      -58.186      -57.109        6.793       40.391       32.249       26.761     1631.398     1039.997      716.129        0.504        0.169       81.529       21.120        0.067      342.727       18.338      861.596
10/13/2014  22:16:00      -33.000      -97.625       -3.637       33.339       45.183       22.475     1111.474     2041.462      505.118        0.714        0.183      103.052       15.235        0.022      343.148       19.055      861.575
10/13/2014  22:17:00      -57.388      -88.926        1.419       40.776       53.351       26.420     1662.711     2846.342      697.992        0.820        0.260      105.835       25.847        0.060      343.014       18.828      861.572
10/13/2014  22:18:00      -47.415     -150.816        6.919       30.005       53.990       24.229      900.279     2914.913      587.042        1.472        0.220      158.094        8.729        0.003      343.174       19.099      861.577
10/13/2014  22:19:00      -63.756      -93.481        0.501       32.579       36.485       22.945     1061.409     1331.132      526.480        0.786        0.146      113.153       17.538        0.024      343.023       18.843      861.583
10/13/2014  22:20:00      -71.302      -30.156       -1.412       31.936       33.743       17.091     1019.920     1138.587      292.091        0.422        0.123       77.416       14.550        0.035      342.663       18.231      861.592
10/13/2014  22:21:00      -44.092       -7.687        3.264       29.280       23.934       12.894      857.300      572.817      166.249        0.180        0.080       44.757        8.764        0.038      342.497       17.950      861.592
10/13/2014  22:22:00      -60.393      -26.695        1.317       29.738       23.736       15.782      884.339      563.419      249.065        0.303        0.085       66.030       11.890        0.032      342.347       17.693      861.594
10/13/2014  22:23:00      -33.738      -32.459        3.752       27.355       38.201       15.788      748.307     1459.282      249.276        0.233        0.123       46.817       16.803        0.129      342.497       17.949      861.575
10/13/2014  22:24:00      -25.862      -24.526        1.615       13.825       10.533       10.256      191.127      110.938      105.196        0.084        0.020       35.642        7.575        0.045      342.520       17.987      861.563
10/13/2014  22:25:00      -67.203      -20.195        1.622       18.327       16.753       13.627      335.880      280.666      185.701        0.286        0.040       70.172        8.239        0.014      342.517       17.982      861.553
10/13/2014  22:26:00      -75.707      -59.700        4.135       36.361       51.111       25.600     1322.096     2612.335      655.382        0.695        0.229       96.414       20.211        0.044      342.706       18.302      861.538
10/13/2014  22:27:00      -82.259      -38.596       -0.582       31.459       52.990       22.113      989.648     2807.907      488.987        0.627        0.214       90.863       18.026        0.039      343.018       18.834      861.530
10/13/2014  22:28:00      -42.496      -53.926       10.479       41.637       32.873       19.806     1733.615     1080.602      392.266        0.401        0.160       68.658       12.988        0.036      342.776       18.422      861.531
10/13/2014  22:29:00      -52.778     -108.404        5.251       31.671       31.838       17.896     1003.069     1013.649      320.266        0.845        0.117      120.569       17.156        0.020      343.211       19.163      861.515
10/13/2014  22:30:00       -7.485      -87.881       15.209       28.630       26.150       16.848      819.685      683.846      283.850        0.490        0.089       88.199        8.532        0.009      343.691       19.981      861.504
10/13/2014  22:31:00        8.726      -44.291        6.240       30.049       23.304       18.878      902.964      543.054      356.394        0.194        0.090       45.142        7.469        0.027      343.073       18.927      861.498
10/13/2014  22:32:00       19.462       10.112       10.084       18.147       15.623       11.151      329.328      244.078      124.345        0.064        0.035       21.932        8.262        0.142      342.459       17.883      861.505
10/13/2014  22:33:00      -11.978      -28.226       -3.394       22.531       11.999       14.590      507.641      143.985      212.881        0.091        0.043       30.663       12.583        0.168      342.745       18.369      861.505
10/13/2014  22:34:00       -3.719      -55.434       -1.428       29.681       21.093       17.761      880.958      444.934      315.443        0.236        0.082       55.559       11.423        0.042      342.964       18.741      861.496
10/13/2014  22:35:00        3.273      -46.790       -1.203       40.850       36.021       22.467     1668.730     1297.544      504.767        0.284        0.174       46.905        8.857        0.036      342.970       18.753      861.495
10/13/2014  22:36:00      -17.943      -36.531        1.412       17.747       42.883       16.610      314.942     1838.974      275.880        0.204        0.121       40.699        5.900        0.021      342.949       18.717      861.491
10/13/2014  22:37:00      -45.611      -40.648        1.578       24.917       31.834       12.602      620.871     1013.394      158.816        0.276        0.090       61.095       15.641        0.066      342.907       18.645      861.488
10/13/2014  22:38:00        3.496      -22.818       -7.955        7.219       12.438       12.542       52.117      154.694      157.295        0.048        0.018       23.085        6.363        0.076      342.517       17.982      861.480
10/13/2014  22:39:00       24.160       18.088        1.005       13.073       20.745        8.330      170.906      430.357       69.385        0.079        0.034       30.181        9.419        0.097      342.540       18.021      861.484
10/13/2014  22:40:00       39.944       22.605       -0.378       12.510        9.490        8.411      156.493       90.068       70.749        0.121        0.016       45.897        2.330        0.003      342.255       17.536      861.494
10/13/2014  22:41:00       64.176       37.657        2.933       20.784        8.429        8.743      431.991       71.047       76.443        0.306        0.029       74.409        8.736        0.014      342.128       17.321      861.487
10/13/2014  22:42:00      105.185       53.047       10.514       34.595       22.896       20.187     1196.827      524.222      407.517        0.806        0.106      117.804       14.844        0.016      342.135       17.332      861.469
10/13/2014  22:43:00       36.720       27.249       44.111       31.335       28.064       19.775      981.854      787.566      391.062        0.310        0.108       45.725       21.840        0.228      341.896       16.927      861.469
10/13/2014  22:44:00       83.093       17.569       41.674       42.448       39.133       32.069     1801.801     1531.376     1028.438        0.666        0.218       84.930       28.468        0.112      342.186       17.420      861.467
10/13/2014  22:45:00       25.167       31.723       52.997       35.867       24.517       20.170     1286.468      601.072      406.828        0.337        0.115       40.493       15.981        0.156      342.228       17.490      861.483
10/13/2014  22:46:00       43.675       77.099       64.041       30.870       33.404       20.932      952.967     1115.850      438.147        0.723        0.125       88.610       15.079        0.029      341.972       17.056      861.476
10/13/2014  22:47:00       17.469       44.057       47.325       18.434       17.747       13.005      339.796      314.948      169.127        0.265        0.041       47.394       10.529        0.049      341.842       16.836      861.465
10/13/2014  22:48:00       45.573       17.098       21.088       18.614       17.304       18.500      346.480      299.445      342.232        0.190        0.049       48.675       11.831        0.059      341.824       16.806      861.467
10/13/2014  22:49:00       76.922       28.496        3.199       17.149       17.190       13.715      294.072      295.495      188.103        0.376        0.039       82.031       10.379        0.016      341.815       16.792      861.459
10/13/2014  22:50:00       78.783       17.018       15.908       39.879       28.994       22.561     1590.319      840.625      509.002        0.484        0.147       80.600       13.392        0.028      342.028       17.151      861.459
10/13/2014  22:51:00       24.820       45.053       42.822       39.910       23.599       30.488     1592.808      556.926      929.522        0.378        0.154       51.438       30.955        0.362      342.071       17.224      861.451
10/13/2014  22:52:00      -12.167       22.473       43.749       25.461       26.747       16.388      648.266      715.409      268.577        0.210        0.082       25.556       15.502        0.368      342.073       17.227      861.456
10/13/2014  22:53:00      -67.864       -7.746       -8.535       32.704       24.834       17.804     1069.530      616.751      316.987        0.337        0.100       68.305       20.971        0.094      341.572       16.377      861.458
10/13/2014  22:54:00      -34.385       40.890       -5.457       51.085       21.834       14.605     2609.678      476.715      213.314        0.309        0.165       53.426       23.503        0.194      341.731       16.648      861.459
10/13/2014  22:55:00       98.544       68.152       10.504       31.022       20.751       20.198      962.372      430.604      407.966        0.813        0.090      119.815       14.059        0.014      342.198       17.439      861.455
10/13/2014  22:56:00       57.120       86.059       62.271       45.731       31.929       23.304     2091.289     1019.488      543.085        0.910        0.183      103.290       19.373        0.035      341.953       17.024      861.444
10/13/2014  22:57:00        5.134       11.630       31.121       20.307       21.393       18.789      412.360      457.642      353.029        0.118        0.061       12.713       14.277        1.261      341.639       16.491      861.457
10/13/2014  22:58:00       10.157        0.477        1.592       13.958        9.068        6.201      194.823       82.232       38.455        0.021        0.016       10.168        3.963        0.152      341.720       16.628      861.482
10/13/2014  22:59:00       52.952       21.715        9.683       20.276       16.925       11.160      411.098      286.473      124.535        0.210        0.041       57.232        6.429        0.013      341.846       16.842      861.469
10/13/2014  23:00:00       23.840       16.600       -1.723       39.553       20.306       15.008     1564.444      412.316      225.255        0.152        0.110       29.050       22.449        0.597      341.811       16.783      861.461
10/13/2014  23:01:00      -31.793       21.713       -2.411       18.605       11.737        7.535      346.141      137.749       56.772        0.101        0.027       38.500        8.121        0.044      341.794       16.753      861.493
10/13/2014  23:02:00      -40.716       45.596      -12.476       21.406       18.798        8.424      458.234      353.353       70.960        0.239        0.044       61.129        7.162        0.014      341.846       16.841      861.513
10/13/2014  23:03:00       31.466       53.923       -6.310       26.746       19.545       10.561      715.372      381.994      111.532        0.257        0.060       62.432       13.039        0.044      341.952       17.022      861.520
10/13/2014  23:04:00       90.389       40.108       16.347       25.948       18.298       20.430      673.321      334.818      417.374        0.574        0.071       98.888       16.029        0.026      341.947       17.011      861.523
10/13/2014  23:05:00       -6.490       -4.169       16.679       30.175       19.053       12.992      910.545      363.019      168.791        0.089        0.072        7.714       11.884        2.373      341.721       16.630      861.521
10/13/2014  23:06:00      -72.444       -4.540      -11.107       22.103       15.197        9.701      488.564      230.957       94.111        0.310        0.041       72.586        8.721        0.014      341.559       16.357      861.527
10/13/2014  23:07:00      -54.179        6.804      -14.491       23.027       19.858       14.648      530.235      394.336      214.574        0.217        0.057       54.604       12.281        0.051      341.716       16.621      861.538
10/13/2014  23:08:00      -25.461       51.427      -11.639       18.647       12.490       10.780      347.708      155.999      116.213        0.202        0.031       57.385        8.026        0.020      341.959       17.033      861.541
10/13/2014  23:09:00      -58.148       -5.491      -11.607       16.131       32.686        8.088      260.214     1068.346       65.420        0.247        0.070       58.407        9.595        0.027      341.873       16.889      861.543
10/13/2014  23:10:00      -69.882      -18.308      -10.319       13.393       11.331        9.282      179.382      128.381       86.164        0.286        0.020       72.241        6.661        0.009      341.413       16.107      861.556
10/13/2014  23:11:00      -58.378        4.478      -12.340       27.997       16.878        5.202      783.852      284.871       27.058        0.234        0.055       58.549        2.940        0.003      341.965       17.043      861.547
10/13/2014  23:12:00        5.513       14.207       -0.275       16.042       18.997        4.997      257.332      360.869       24.971        0.044        0.032       15.239        6.192        0.165      342.261       17.547      861.517
10/13/2014  23:13:00      -49.358      -34.578        1.329       36.274       29.818       22.194     1315.801      889.131      492.563        0.317        0.135       60.265       17.634        0.086      341.672       16.547      861.521
10/13/2014  23:14:00      -23.021      -14.103       -5.385       22.328       27.634        7.158      498.552      763.647       51.242        0.104        0.066       26.998        7.312        0.073      342.145       17.349      861.501
10/13/2014  23:15:00        9.578        8.390        0.623       18.511        7.812        5.445      342.646       61.032       29.651        0.030        0.022       12.733        7.013        0.303      342.691       18.277      861.479
10/13/2014  23:16:00      -93.521      -26.687      -13.346       30.259       20.461       10.138      915.597      418.661      102.771        0.554        0.072       97.254       11.523        0.014      341.643       16.498      861.472
10/13/2014  23:17:00     -129.521      -19.174      -19.966       16.963       12.685       12.946      287.754      160.899      167.591        0.908        0.031      130.933       10.851        0.007      341.399       16.084      861.463
10/13/2014  23:18:00     -119.423      -69.607      -11.512       20.052       29.742       14.410      402.066      884.600      207.647        1.037        0.075      138.228       12.813        0.009      341.670       16.544      861.457
10/13/2014  23:19:00     -109.463      -49.062       -3.709       13.187       21.633        9.488      173.901      467.975       90.014        0.757        0.037      119.955        2.279        0.000      341.374       16.042      861.471
10/13/2014  23:20:00     -108.151      -19.640      -11.720       19.507       13.983        9.988      380.524      195.535       99.762        0.645        0.034      109.920        6.107        0.003      341.441       16.155      861.476
10/13/2014  23:21:00      -90.111       -3.494       -9.719       15.667       13.693        9.475      245.456      187.507       89.777        0.437        0.026       90.179        6.049        0.004      341.420       16.119      861.475
10/13/2014  23:22:00     -100.287       -0.782      -10.132       10.449        9.751        7.172      109.181       95.074       51.442        0.521        0.013      100.290        3.819        0.001      341.420       16.119      861.465
10/13/2014  23:23:00     -102.011      -10.424      -13.209       14.752       15.944        8.744      217.611      254.226       76.461        0.562        0.027      102.543        6.854        0.004      341.437       16.149      861.452
10/13/2014  23:24:00      -89.843      -14.483      -11.104       21.075       15.702       12.582      444.168      246.563      158.315        0.463        0.042       91.002        9.235        0.010      341.353       16.007      861.433
10/13/2014  23:25:00      -51.815      -11.907       -9.446       13.047       10.584        7.366      170.227      112.018       54.253        0.163        0.017       53.165        4.339        0.007      341.278       15.882      861.426
10/13/2014  23:26:00      -24.645      -13.704       -6.582       11.297       12.664        7.627      127.617      160.379       58.175        0.059        0.017       28.199        6.289        0.050      341.514       16.281      861.436
10/13/2014  23:27:00      -37.272       -0.974       -6.907       11.830        6.422        4.559      139.955       41.237       20.781        0.082        0.010       37.284        4.745        0.016      341.773       16.718      861.430
10/13/2014  23:28:00      -52.883      -26.769      -11.960       13.570       10.577        8.518      184.148      111.864       72.548        0.201        0.018       59.272        7.104        0.014      341.311       15.937      861.423
10/13/2014  23:29:00      -47.761      -19.555       -7.743        7.080        9.171        6.454       50.131       84.112       41.652        0.145        0.009       51.610        2.977        0.003      341.445       16.162      861.439
10/13/2014  23:30:00      -60.331      -13.874      -13.747       10.350        9.164        7.222      107.124       83.983       52.151        0.213        0.012       61.906        4.711        0.006      341.134       15.637      861.442
10/13/2014  23:31:00      -84.398        3.184       -9.705       23.248       11.897        8.558      540.455      141.549       73.247        0.399        0.038       84.458        8.702        0.011      341.085       15.552      861.423
10/13/2014  23:32:00      -58.446       39.366      -14.472       24.425       24.081        7.989      596.571      579.898       63.822        0.321        0.062       70.467        4.470        0.004      341.349       15.998      861.398
10/13/2014  23:33:00      -41.346       11.637       -5.457       14.462       43.562        8.345      209.147     1897.680       69.640        0.203        0.109       42.953       10.691        0.062      341.368       16.033      861.394
10/13/2014  23:34:00      -11.125      -30.010       -6.584       10.006       18.212        7.825      100.125      331.660       61.234        0.078        0.025       32.006        8.876        0.077      341.358       16.014      861.407
10/13/2014  23:35:00       32.702      -57.695       -3.420       18.595       25.247       11.363      345.770      637.404      129.113        0.276        0.056       66.318       11.024        0.028      341.536       16.317      861.426
10/13/2014  23:36:00      -39.281      -43.857       -3.206       44.590       35.377       15.360     1988.257     1251.518      235.916        0.348        0.174       58.876       14.610        0.062      341.468       16.202      861.445
10/13/2014  23:37:00      -85.034       15.182      -12.123        7.995       11.584        7.182       63.926      134.200       51.584        0.393        0.012       86.378        5.167        0.004      341.260       15.849      861.442
10/13/2014  23:38:00      -71.711       29.785      -16.112        9.171        7.250        3.838       84.104       52.565       14.734        0.322        0.008       77.651        1.970        0.001      341.309       15.932      861.404
10/13/2014  23:39:00      -34.724       26.498        0.335       12.727        9.363        7.720      161.988       87.657       59.605        0.111        0.015       43.680        7.542        0.030      341.982       17.073      861.379
10/13/2014  23:40:00      -60.644        9.728       -9.017        7.429        8.705        4.629       55.184       75.775       21.430        0.200        0.008       61.419        2.250        0.001      341.666       16.536      861.354
10/13/2014  23:41:00      -70.890       11.617       -5.625        8.383        5.539        3.783       70.268       30.678       14.312        0.265        0.006       71.836        2.610        0.001      341.764       16.704      861.342
10/13/2014  23:42:00      -87.028       -7.746      -11.084       22.266       13.540       13.393      495.797      183.337      179.361        0.431        0.043       87.372       15.413        0.031      341.163       15.685      861.342
10/13/2014  23:43:00     -126.173        0.611      -11.658       40.571       26.893       19.330     1645.985      723.216      373.632        0.940        0.137      126.174       22.499        0.032      340.994       15.399      861.355
10/13/2014  23:44:00      -71.644      -12.056       -1.091       27.223       25.847       15.710      741.088      668.084      246.799        0.347        0.083       72.652       10.483        0.021      340.882       15.210      861.366
10/13/2014  23:45:00      -72.063      -24.094      -11.259       14.987       18.025       10.898      224.611      324.893      118.773        0.328        0.033       75.984        9.774        0.017      340.947       15.318      861.363
10/13/2014  23:46:00      -59.091      -11.467      -10.863        9.968       11.981        7.729       99.362      143.549       59.733        0.202        0.015       60.194        7.614        0.016      340.983       15.380      861.326
10/13/2014  23:47:00      -32.173      -25.734       -5.844       18.165        8.121        8.407      329.964       65.947       70.674        0.110        0.023       41.199        4.680        0.013      341.022       15.447      861.298
10/13/2014  23:48:00      -27.287      -31.930      -11.825       22.117       15.542       11.213      489.152      241.553      125.741        0.138        0.043       42.001        7.547        0.032      341.008       15.422      861.302
10/13/2014  23:49:00      -16.952      -21.858        1.675       22.009       18.573       16.961      484.414      344.956      287.685        0.094        0.056       27.661       14.993        0.294      340.921       15.276      861.310
10/13/2014  23:50:00      -55.751      -23.651      -10.399       16.253       10.419        8.100      264.174      108.557       65.608        0.211        0.022       60.560        4.031        0.004      340.867       15.182      861.292
10/13/2014  23:51:00      -64.724      -20.224      -11.813       26.085        9.766        6.829      680.414       95.372       46.640        0.278        0.041       67.810        4.974        0.005      340.737       14.964      861.282
10/13/2014  23:52:00      -15.749      -16.595       -7.490       14.013       14.368        8.438      196.372      206.447       71.206        0.053        0.024       22.878        5.055        0.049      341.324       15.958      861.283
10/13/2014  23:53:00       -7.777       -3.000        1.200        6.704       10.041        7.238       44.941      100.823       52.394        0.013        0.010        8.335        6.036        0.524      341.613       16.447      861.276
10/13/2014  23:54:00        0.028       -1.308        3.682        5.070        8.027        7.014       25.710       64.437       49.193        0.008        0.007        1.308        2.139        2.673      341.271       15.869      861.260
10/13/2014  23:55:00      -28.519      -22.098       -2.639       12.937       37.191       12.975      167.364     1383.196      168.359        0.151        0.086       36.079       19.736        0.299      341.230       15.799      861.273
10/13/2014  23:56:00      -14.173      -85.575       -3.533       11.324       20.419       10.423      128.222      416.953      108.648        0.410        0.033       86.741        6.485        0.006      340.736       14.963      861.303
10/13/2014  23:57:00      -79.707      -89.295      -16.442       33.208       53.584       20.511     1102.801     2871.207      420.681        0.950        0.220      119.694       19.484        0.026      341.033       15.466      861.309
10/13/2014  23:58:00      -91.030      -26.996       -8.425       31.417       27.172       16.601      987.008      738.313      275.592        0.554        0.100       94.948       15.424        0.026      341.030       15.460      861.288
10/13/2014  23:59:00      -73.058      -19.102      -15.135       16.855       17.010        8.722      284.103      289.351       76.080        0.329        0.032       75.514        3.378        0.002      340.671       14.852      861.278
